[[{"header":{"parameterUnit":"m.s-1","parameterCategory":1,"la1":30.6,"la2":28.766,"lo1":-90.7593,"lo2":-88.6598,"dy":0.0162,"dx":0.0183,"nx":116,"ny":114,"refTime":"2023-10-08T06:00:00:Z","depth":0,"parameterNumber":2,"parameterNumberName":"U-component_of_WINDS"},"data":[0.0,0.0,0.0,0.0,0.0,0.0,0.0,0.0,0.0,0.0,0.0,0.0,0.0,0.0,0.0,0.0,0.0,0.0,0.0,0.0,0.0,0.0,0.0,0.0,0.0,0.0,0.0,0.0,0.0,0.0,0.0,0.0,0.0,0.0,0.0,0.0,0.0,0.0,0.0,0.0,0.0,0.0,0.0,0.0,0.0,0.0,0.0,0.0,0.0,0.0,0.0,0.0,0.0,0.0,0.0,0.0,0.0,0.0,0.0,0.0,0.0,0.0,0.0,0.0,0.0,0.0,0.0,0.0,0.0,0.0,0.0,0.0,0.0,0.0,0.0,0.0,0.0,0.0,0.0,0.0,0.0,0.0,0.0,0.0,0.0,0.0,0.0,0.0,0.0,0.0,0.0,0.0,0.0,0.0,0.0,0.0,0.0,0.0,0.0,0.0,0.0,0.0,0.0,0.0,0.0,0.0,0.0,0.0,0.0,0.0,0.0,0.0,0.0,0.0,0.0,0.0,0.0,0.0,0.0,0.0,0.0,0.0,0.0,0.0,0.0,0.0,0.0,0.0,0.0,0.0,0.0,0.0,0.0,0.0,0.0,0.0,0.0,0.0,0.0,0.0,0.0,0.0,0.0,0.0,0.0,0.0,0.0,0.0,0.0,0.0,0.0,0.0,0.0,0.0,0.0,0.0,0.0,0.0,0.0,0.0,0.0,0.0,0.0,0.0,0.0,0.0,0.0,0.0,0.0,0.0,0.0,0.0,0.0,0.0,0.0,0.0,0.0,0.0,0.0,0.0,0.0,0.0,0.0,0.0,0.0,0.0,0.0,0.0,0.0,0.0,0.0,0.0,0.0,0.0,0.0,0.0,0.0,0.0,0.0,0.0,0.0,0.0,0.0,0.0,0.0,0.0,0.0,0.0,0.0,0.0,0.0,0.0,0.0,0.0,0.0,0.0,0.0,0.0,0.0,0.0,0.0,0.0,0.0,0.0,0.0,0.0,0.0,0.0,0.0,0.0,0.0,0.0,0.0,0.0,0.0,0.0,0.0,0.0,0.0,0.0,0.0,0.0,0.0,0.0,0.0,0.0,0.0,0.0,0.0,0.0,0.0,0.0,0.0,0.0,0.0,0.0,0.0,0.0,0.0,0.0,0.0,0.0,0.0,0.0,0.0,0.0,0.0,0.0,0.0,0.0,0.0,0.0,0.0,0.0,0.0,0.0,0.0,0.0,0.0,0.0,0.0,0.0,0.0,0.0,0.0,0.0,0.0,0.0,0.0,0.0,0.0,0.0,0.0,0.0,0.0,0.0,0.0,0.0,0.0,0.0,0.0,0.0,0.0,0.0,0.0,0.0,0.0,0.0,0.0,0.0,0.0,0.0,0.0,0.0,0.0,0.0,0.0,0.0,0.0,0.0,0.0,0.0,0.0,0.0,0.0,0.0,0.0,0.0,0.0,0.0,0.0,0.0,0.0,0.0,0.0,0.0,0.0,0.0,0.0,0.0,0.0,0.0,0.0,0.0,0.0,0.0,0.0,0.0,0.0,0.0,0.0,0.0,0.0,0.0,0.0,0.0,0.0,0.0,0.0,0.0,0.0,0.0,0.0,0.0,0.0,0.0,0.0,0.0,0.0,0.0,0.0,0.0,0.0,0.0,0.0,0.0,0.0,0.0,0.0,0.0,0.0,0.0,0.0,0.0,0.0,0.0,0.0,0.0,0.0,0.0,0.0,0.0,0.0,0.0,0.0,0.0,0.0,0.0,0.0,0.0,0.0,0.0,0.0,0.0,0.0,0.0,0.0,0.0,0.0,0.0,0.0,0.0,0.0,0.0,0.0,0.0,0.0,0.0,0.0,0.0,0.0,0.0,0.0,0.0,0.0,0.0,0.0,0.0,0.0,0.0,0.0,0.0,0.0,0.0,0.0,0.0,0.0,0.0,0.0,0.0,0.0,0.0,0.0,0.0,0.0,0.0,0.0,0.0,0.0,0.0,0.0,0.0,0.0,0.0,0.0,0.0,0.0,0.0,0.0,0.0,0.0,0.0,0.0,0.0,0.0,0.0,0.0,0.0,0.0,0.0,0.0,0.0,0.0,0.0,0.0,0.0,0.0,0.0,0.0,0.0,0.0,0.0,0.0,0.0,0.0,0.0,0.0,0.0,0.0,0.0,0.0,0.0,0.0,0.0,0.0,0.0,0.0,0.0,0.0,0.0,0.0,0.0,0.0,0.0,0.0,0.0,0.0,0.0,0.0,0.0,0.0,0.0,0.0,0.0,0.0,0.0,0.0,0.0,0.0,0.0,0.0,0.0,0.0,0.0,0.0,0.0,0.0,0.0,0.0,0.0,0.0,0.0,0.0,0.0,0.0,0.0,0.0,0.0,0.0,0.0,0.0,0.0,0.0,0.0,0.0,0.0,0.0,0.0,0.0,0.0,0.0,0.0,0.0,0.0,0.0,0.0,0.0,0.0,0.0,0.0,0.0,0.0,0.0,0.0,0.0,0.0,0.0,0.0,0.0,0.0,0.0,0.0,0.0,0.0,0.0,0.0,0.0,0.0,0.0,0.0,0.0,0.0,0.0,0.0,0.0,0.0,0.0,0.0,0.0,0.0,0.0,0.0,0.0,0.0,0.0,0.0,0.0,0.0,0.0,0.0,0.0,0.0,0.0,0.0,0.0,0.0,0.0,0.0,0.0,0.0,0.0,0.0,0.0,0.0,0.0,0.0,0.0,0.0,0.0,0.0,0.0,0.0,0.0,0.0,0.0,0.0,0.0,0.0,0.0,0.0,0.0,0.0,0.0,0.0,0.0,0.0,0.0,0.0,0.0,0.0,0.0,0.0,0.0,0.0,0.0,0.0,0.0,0.0,0.0,0.0,0.0,0.0,0.0,0.0,0.0,0.0,0.0,0.0,0.0,0.0,0.0,0.0,0.0,0.0,0.0,0.0,0.0,0.0,0.0,0.0,0.0,0.0,0.0,0.0,0.0,0.0,0.0,0.0,0.0,0.0,0.0,0.0,0.0,0.0,0.0,0.0,0.0,0.0,0.0,0.0,0.0,0.0,0.0,0.0,0.0,0.0,0.0,0.0,0.0,0.0,0.0,0.0,0.0,0.0,0.0,0.0,0.0,0.0,0.0,0.0,0.0,0.0,0.0,0.0,0.0,0.0,0.0,0.0,0.0,0.0,0.0,0.0,0.0,0.0,0.0,0.0,0.0,0.0,0.0,0.0,0.0,0.0,0.0,0.0,0.0,0.0,0.0,0.0,0.0,0.0,0.0,0.0,0.0,0.0,0.0,0.0,0.0,0.0,0.0,0.0,0.0,0.0,0.0,0.0,0.0,0.0,0.0,0.0,0.0,0.0,0.0,0.0,0.0,0.0,0.0,0.0,0.0,0.0,0.0,0.0,0.0,0.0,0.0,0.0,0.0,0.0,0.0,0.0,0.0,0.0,0.0,0.0,0.0,0.0,0.0,0.0,0.0,0.0,0.0,0.0,0.0,0.0,0.0,0.0,0.0,0.0,0.0,0.0,0.0,0.0,0.0,0.0,0.0,0.0,0.0,0.0,0.0,0.0,0.0,0.0,0.0,0.0,0.0,0.0,0.0,0.0,0.0,0.0,0.0,0.0,0.0,0.0,0.0,0.0,0.0,0.0,0.0,0.0,0.0,0.0,0.0,0.0,0.0,0.0,0.0,0.0,0.0,0.0,0.0,0.0,0.0,0.0,0.0,0.0,0.0,0.0,0.0,0.0,0.0,0.0,0.0,0.0,0.0,0.0,0.0,0.0,0.0,0.0,0.0,0.0,0.0,0.0,0.0,0.0,0.0,0.0,0.0,0.0,0.0,0.0,0.0,0.0,0.0,0.0,0.0,0.0,0.0,0.0,0.0,0.0,0.0,0.0,0.0,0.0,0.0,0.0,0.0,0.0,0.0,0.0,0.0,0.0,0.0,0.0,0.0,0.0,0.0,0.0,0.0,0.0,0.0,0.0,0.0,0.0,0.0,0.0,0.0,0.0,0.0,0.0,0.0,0.0,0.0,0.0,0.0,0.0,0.0,0.0,0.0,0.0,0.0,0.0,0.0,0.0,0.0,0.0,0.0,0.0,0.0,0.0,0.0,0.0,0.0,0.0,0.0,0.0,0.0,0.0,0.0,0.0,0.0,0.0,0.0,0.0,0.0,0.0,0.0,0.0,0.0,0.0,0.0,0.0,0.0,0.0,0.0,0.0,0.0,0.0,0.0,0.0,0.0,0.0,0.0,0.0,0.0,0.0,0.0,0.0,0.0,0.0,0.0,0.0,0.0,0.0,0.0,0.0,0.0,0.0,0.0,0.0,0.0,0.0,0.0,0.0,0.0,0.0,0.0,0.0,0.0,0.0,0.0,0.0,0.0,0.0,0.0,0.0,0.0,0.0,0.0,0.0,0.0,0.0,0.0,0.0,0.0,0.0,0.0,0.0,0.0,0.0,0.0,0.0,0.0,0.0,0.0,0.0,0.0,0.0,0.0,0.0,0.0,0.0,0.0,0.0,0.0,0.0,0.0,0.0,0.0,0.0,0.0,0.0,0.0,0.0,0.0,0.0,0.0,0.0,0.0,0.0,0.0,0.0,0.0,0.0,0.0,0.0,0.0,0.0,0.0,0.0,0.0,0.0,0.0,0.0,0.0,0.0,0.0,0.0,0.0,0.0,0.0,0.0,0.0,0.0,0.0,0.0,0.0,0.0,0.0,0.0,0.0,0.0,0.0,0.0,0.0,0.0,0.0,0.0,0.0,0.0,0.0,0.0,0.0,0.0,0.0,0.0,0.0,0.0,0.0,0.0,0.0,0.0,0.0,0.0,0.0,0.0,0.0,0.0,0.0,0.0,0.0,0.0,0.0,0.0,0.0,0.0,0.0,0.0,0.0,0.0,0.0,0.0,0.0,0.0,0.0,0.0,0.0,0.0,0.0,0.0,0.0,0.0,0.0,0.0,0.0,0.0,0.0,0.0,0.0,0.0,0.0,0.0,0.0,0.0,0.0,0.0,0.0,0.0,0.0,0.0,0.0,0.0,0.0,0.0,0.0,0.0,0.0,0.0,0.0,0.0,0.0,0.0,0.0,0.0,0.0,0.0,0.0,0.0,0.0,0.0,0.0,0.0,0.0,0.0,0.0,0.0,0.0,0.0,0.0,0.0,0.0,0.0,0.0,0.0,0.0,0.0,0.0,0.0,0.0,0.0,0.0,0.0,0.0,0.0,0.0,0.0,0.0,0.0,0.0,0.0,0.0,0.0,0.0,0.0,0.0,0.0,0.0,0.0,0.0,0.0,0.0,0.0,0.0,0.0,0.0,0.0,0.0,0.0,0.0,0.0,0.0,0.0,0.0,0.0,0.0,0.0,0.0,0.0,0.0,0.0,0.0,0.0,0.0,0.0,0.0,0.0,0.0,0.0,0.0,0.0,0.0,0.0,0.0,0.0,0.0,0.0,0.0,0.0,0.0,0.0,0.0,0.0,0.0,0.0,0.0,0.0,0.0,0.0,0.0,0.0,0.0,0.0,0.0,0.0,0.0,0.0,0.0,0.0,0.0,0.0,0.0,0.0,0.0,0.0,0.0,0.0,0.0,0.0,0.0,0.0,0.0,0.0,0.0,0.0,0.0,0.0,0.0,0.0,0.0,0.0,0.0,0.0,0.0,0.0,0.0,0.0,0.0,0.0,0.0,0.0,0.0,0.0,0.0,0.0,0.0,0.0,0.0,0.0,0.0,0.0,0.0,0.0,0.0,0.0,0.0,0.0,0.0,0.0,0.0,0.0,0.0,0.0,0.0,0.0,0.0,0.0,0.0,0.0,0.0,0.0,0.0,0.0,0.0,0.0,0.0,0.0,0.0,0.0,0.0,0.0,0.0,0.0,0.0,0.0,0.0,0.0,0.0,0.0,0.0,0.0,0.0,0.0,0.0,0.0,0.0,0.0,0.0,0.0,0.0,0.0,0.0,0.0,0.0,0.0,0.0,0.0,0.0,0.0,0.0,0.0,0.0,0.0,0.0,0.0,0.0,0.0,0.0,0.0,0.0,0.0,0.0,0.0,0.0,0.0,0.0,0.0,0.0,0.0,0.0,0.0,1.8887,1.875,0.0,0.0,0.0,0.0,0.0,0.0,0.0,0.0,0.0,0.0,0.0,0.0,0.0,0.0,0.0,0.0,0.0,0.0,0.0,0.0,0.0,0.0,0.0,0.0,0.0,0.0,0.0,0.0,0.0,0.0,0.0,0.0,0.0,0.0,0.0,0.0,0.0,0.0,1.1867,1.2522,1.3788,1.4325,1.4846,1.5378,0.0,0.0,0.0,0.0,0.0,0.0,0.0,0.0,0.0,0.0,0.0,0.0,0.0,0.0,0.0,0.0,0.0,0.0,0.0,0.0,0.0,0.0,0.0,0.0,0.0,0.0,0.0,0.0,0.0,0.0,0.0,0.0,0.0,0.0,0.0,0.0,0.0,0.0,0.0,0.0,0.0,0.0,0.0,0.0,0.0,0.0,0.0,0.0,0.0,0.0,0.0,0.0,0.0,0.0,0.0,0.0,0.0,0.0,0.0,0.0,0.0,0.0,0.0,0.0,0.0,0.0,0.0,0.0,0.0,0.0,2.0644,1.9804,0.0,0.0,0.0,0.0,0.0,0.0,0.0,0.0,0.0,0.0,0.0,0.0,0.0,0.0,0.0,0.0,0.0,0.0,0.0,0.0,0.0,0.0,0.0,0.0,0.0,0.0,0.0,0.0,0.0,0.0,0.0,0.0,0.0,0.0,0.0,1.1243,1.2546,1.3896,1.428,1.5069,1.6171,1.6248,1.6262,1.6248,1.5725,0.0,0.0,0.0,0.0,0.0,0.0,0.0,0.0,0.0,0.0,0.0,0.0,0.0,0.0,0.0,0.0,0.0,0.0,0.0,0.0,0.0,0.0,0.0,0.0,0.0,0.0,0.0,0.0,0.0,0.0,0.0,0.0,0.0,0.0,0.0,0.0,0.0,0.0,0.0,0.0,0.0,0.0,0.0,0.0,0.0,0.0,0.0,0.0,0.0,0.0,0.0,0.0,0.0,0.0,0.0,0.0,0.0,0.0,0.0,0.0,0.0,0.0,0.0,2.2988,2.3516,2.4141,2.457,2.4961,2.518,2.2756,2.1269,2.0566,2.0488,0.0,0.0,0.0,0.0,0.0,0.0,0.0,0.0,0.0,0.0,0.0,0.0,0.0,0.0,0.0,0.0,0.0,0.0,0.0,0.0,0.0,0.7988,0.7988,0.7988,0.7988,0.7988,0.0,0.0,0.0,0.0,0.0,0.0,1.0002,1.1243,1.2546,1.3896,1.5832,1.708,1.7702,1.8023,1.8143,1.8076,1.6462,1.6977,1.8895,0.0,0.0,0.0,0.0,0.0,0.0,0.0,0.0,0.0,0.0,0.0,0.0,0.0,0.0,0.0,0.0,0.0,0.0,0.0,0.0,0.0,0.0,0.0,0.0,0.0,0.0,0.0,0.0,0.0,0.0,0.0,0.0,0.0,0.0,0.0,0.0,0.0,0.0,0.0,0.0,0.0,2.0447,2.0353,0.0,0.0,0.0,0.0,0.0,0.0,0.0,0.0,0.0,0.0,0.0,0.0,0.0,2.3694,2.4496,2.5258,2.5488,2.521,2.5664,2.5742,2.5464,2.5937,2.6152,2.6236,2.6172,0.0,2.3242,2.2849,0.0,0.0,0.0,0.0,0.0,0.0,0.0,0.0,0.0,0.0,0.0,0.0,0.0,0.0,0.0,0.0,0.0,0.0,0.0,0.0,0.0,0.8964,0.9628,0.9628,1.0897,1.1116,0.9729,0.0,0.0,0.0,0.0,1.2183,1.2183,1.344,1.4716,1.5986,1.7621,1.8639,1.901,1.9332,1.9466,1.9397,1.8477,1.8496,1.9195,1.8083,0.0,0.0,0.0,0.0,0.0,0.0,0.0,0.0,0.0,0.0,0.0,0.0,0.0,0.0,0.0,0.0,0.0,0.0,0.0,0.0,0.0,0.0,0.0,0.0,0.0,0.0,0.0,0.0,0.0,0.0,0.0,0.0,0.0,0.0,0.0,0.0,0.0,0.0,0.0,2.0853,2.1776,2.1387,2.1699,2.1659,0.0,0.0,0.0,0.0,0.0,0.0,0.0,0.0,0.0,2.4965,2.5391,2.5898,2.6548,2.7174,2.7598,2.7891,2.8086,2.834,2.8633,2.8828,2.9043,2.9277,2.9473,2.8594,2.692,2.5,2.3381,2.2013,0.0,0.0,0.0,0.0,2.172,2.2111,0.0,0.0,0.0,0.0,0.0,0.0,0.0,0.0,0.0,0.0,0.0,0.0,0.8827,1.056,1.1777,1.1932,1.35,1.3696,1.1847,1.2423,0.0,0.0,0.0,1.3536,1.3896,1.5523,1.7034,1.8398,1.9522,2.0298,2.0708,2.1002,2.1104,2.1122,2.1344,2.1146,2.0608,1.9664,1.9921,2.087,0.0,0.0,0.0,0.0,0.0,0.0,0.0,0.0,0.0,0.0,0.0,0.0,0.0,0.0,0.0,0.0,0.0,0.0,0.0,0.0,0.0,0.0,0.0,0.0,0.0,0.0,0.0,0.0,0.0,0.0,0.0,0.0,0.0,0.0,0.0,0.0,0.0,2.1896,2.2598,2.1953,2.2637,2.2695,0.0,0.0,0.0,0.0,0.0,0.0,2.457,2.5117,2.6016,2.7324,2.7891,2.8437,2.8992,2.9394,2.9922,3.0576,3.0576,3.0898,3.1543,3.1426,3.1601,3.1962,3.1894,3.123,3.0048,2.7233,2.5258,2.3968,2.3516,2.3144,2.2949,2.3616,2.3909,2.4144,0.0,0.0,0.0,0.0,0.0,0.0,0.0,0.0,0.0,0.0,0.0,1.0493,1.1063,1.2815,1.4166,1.4737,1.4393,1.4068,1.3961,1.1814,1.1082,1.2239,1.211,1.2595,1.3872,1.6523,1.8758,2.0552,2.1416,2.2298,2.3118,2.346,2.3629,2.3687,2.5192,2.5635,2.4959,2.151,2.1927,2.4622,2.1086,0.0,0.0,0.0,0.0,0.0,0.0,0.0,0.0,0.0,0.0,0.0,0.0,0.0,0.0,0.0,0.0,0.0,0.0,0.0,0.0,0.0,0.0,0.0,0.0,0.0,0.0,0.0,0.0,0.0,0.0,0.0,0.0,0.0,0.0,0.0,0.0,0.0,0.0,2.2052,2.3714,0.0,0.0,0.0,0.0,2.3672,2.482,2.5932,2.6771,2.7637,2.8691,2.9961,3.084,3.1699,3.2539,3.2949,3.3152,3.3191,3.3191,3.3211,3.325,3.2871,3.293,3.3269,3.291,3.2461,3.1905,2.9648,2.7734,2.6191,2.5718,2.5542,2.5499,2.5562,2.5854,2.6255,0.0,0.0,0.0,0.0,0.0,0.0,0.0,0.0,0.0,1.0632,1.1526,1.2477,1.3044,1.5321,1.7046,1.7649,1.8611,1.8508,1.6913,1.6217,1.546,1.4488,1.4789,1.5656,1.7088,1.8836,2.0539,2.2117,2.3388,2.4329,2.5024,2.5355,2.6199,2.754,2.7948,2.9141,3.061,2.6695,2.5735,2.6607,2.4152,2.2913,0.0,0.0,0.0,0.0,0.0,0.0,0.0,0.0,0.0,0.0,0.0,0.0,0.0,0.0,0.0,0.0,0.0,0.0,0.0,0.0,0.0,0.0,0.0,0.0,0.0,0.0,0.0,0.0,0.0,0.0,0.0,0.0,0.0,0.0,0.0,0.0,0.0,2.6021,2.7194,0.0,2.6157,2.6426,2.668,2.668,2.7871,2.9121,3.0273,3.0879,3.1914,3.3496,3.3848,3.4277,3.4863,3.4746,3.4687,3.4687,3.4394,3.4238,3.4238,3.4082,3.4101,3.4219,3.3809,3.3379,3.2891,3.1836,3.0234,2.8425,2.7923,2.7435,2.7051,2.7552,2.7689,2.7695,0.0,0.0,0.0,0.0,0.0,0.0,0.0,0.0,1.2942,1.2174,1.3354,1.4559,1.5426,1.8015,2.0009,2.0818,2.1568,2.1247,1.9525,1.8486,1.74,1.6187,1.6691,1.7796,1.9479,2.0793,2.2211,2.379,2.5037,2.5957,2.6439,2.664,2.7848,2.9904,3.0307,3.2005,3.4468,3.2036,3.0206,2.8836,2.6939,2.5977,2.5455,0.0,0.0,0.0,0.0,0.0,0.0,0.0,0.0,0.0,0.0,0.0,0.0,0.0,0.0,0.0,0.0,0.0,0.0,0.0,0.0,0.0,0.0,0.0,0.0,0.0,0.0,0.0,0.0,0.0,0.0,0.0,0.0,0.0,0.0,2.6537,2.8333,2.9082,3.0341,3.0732,2.9707,3.0,3.0263,3.0263,3.1426,3.2617,3.3665,3.4082,3.4902,3.6211,3.5976,3.6035,3.6411,3.5879,3.5605,3.5605,3.5293,3.5156,3.5137,3.5,3.5019,3.5117,3.4531,3.4121,3.3828,3.3398,3.2305,3.082,3.0234,2.9492,2.8875,2.9531,2.9531,2.9258,0.0,0.0,0.0,0.0,0.0,0.0,0.0,1.2861,1.2143,1.2478,1.4662,1.6775,1.824,2.0831,2.2953,2.4128,2.2886,2.1943,2.1622,1.8211,1.6497,1.7235,1.7541,1.8692,2.0766,2.2238,2.3843,2.5571,2.6426,2.7001,2.7336,2.7349,2.8531,3.0731,3.2289,3.4235,3.6411,3.7119,3.5215,3.1562,2.9316,2.8398,2.8066,0.0,0.0,0.0,0.0,0.0,0.0,0.0,0.0,0.0,0.0,0.0,0.0,0.0,0.0,0.0,0.0,0.0,0.0,0.0,0.0,0.0,0.0,0.0,0.0,0.0,0.0,0.0,0.0,0.0,0.0,0.0,0.0,0.0,2.5913,2.845,3.0518,3.1016,3.2961,3.3743,3.2492,3.3489,3.4231,3.4231,3.5371,3.6289,3.6753,3.7129,3.7539,3.7913,3.7168,3.6968,3.7324,3.6484,3.6021,3.6021,3.6001,3.5982,3.5982,3.5605,3.5625,3.5942,3.5098,3.4707,3.4668,3.4271,3.3809,3.3289,3.2531,3.171,3.0976,3.1367,3.125,3.0898,0.0,0.0,0.0,0.0,0.0,0.0,0.0,1.4949,1.4858,1.5182,1.7125,1.8969,2.0193,2.2513,2.4249,2.4796,2.3888,2.2907,2.1957,1.9526,1.8326,1.8786,1.9639,2.1109,2.3193,2.4249,2.5438,2.6827,2.7241,2.7602,2.7951,2.8136,3.0319,3.4017,3.467,3.6915,4.0219,3.9812,3.8652,3.6738,3.2746,3.0556,2.9434,0.0,0.0,0.0,0.0,0.0,0.0,0.0,0.0,0.0,0.0,0.0,0.0,0.0,0.0,0.0,0.0,0.0,0.0,0.0,0.0,0.0,0.0,0.0,0.0,0.0,0.0,0.0,0.0,0.0,0.0,0.0,2.7832,2.9492,2.9043,3.1562,3.3867,3.4994,3.6133,3.6719,3.6367,3.666,3.6875,3.6875,3.748,3.8066,3.8476,3.8613,3.873,3.8848,3.8633,3.8418,3.8223,3.7383,3.6953,3.6934,3.6309,3.5982,3.6016,3.5898,3.5918,3.5962,3.5449,3.5019,3.4668,3.4271,3.3633,3.2949,3.2715,3.2316,3.1827,3.1582,3.125,3.0898,0.0,0.0,0.0,0.0,0.0,0.0,0.0,1.5915,1.6166,1.6618,1.8478,2.0227,2.151,2.3399,2.4719,2.505,2.4084,2.2867,2.1555,1.9867,1.9332,2.0271,2.1315,2.2752,2.4703,2.5611,2.652,2.7483,2.7736,2.8085,2.8379,2.8524,3.1148,3.5783,3.5915,3.8441,4.2558,4.207,4.1465,4.0547,3.7301,3.4759,3.2687,3.0312,2.9121,2.845,2.685,2.625,2.5884,2.3945,0.0,0.0,0.0,0.0,0.0,0.0,0.0,0.0,0.0,0.0,0.0,0.0,0.0,0.0,0.0,0.0,0.0,0.0,0.0,0.0,0.0,0.0,0.0,0.0,3.082,3.293,3.3379,3.4941,3.6543,3.7871,3.8613,3.9082,3.9277,3.9277,3.9277,3.9277,3.9549,3.9803,4.0019,3.9844,3.9746,3.9746,3.9219,3.8865,3.8611,3.7734,3.7305,3.7285,3.6797,3.6465,3.6289,3.6289,3.6191,3.5962,3.5566,3.5234,3.4941,3.4349,3.3801,3.3352,0.0,0.0,0.0,0.0,3.1094,3.0898,0.0,0.0,0.0,0.0,0.0,0.0,0.0,1.6086,1.6511,1.7125,1.8945,2.0717,2.2091,2.3625,2.4653,2.4957,2.3723,2.2291,2.0846,1.9746,1.996,2.1756,2.2746,2.4031,2.5678,2.6533,2.7241,2.7802,2.8112,2.8419,2.8711,2.8738,3.1539,3.6519,3.6586,3.9331,4.3926,4.3926,4.3691,4.3183,4.2012,3.9725,3.6714,3.418,3.3144,3.2676,3.0176,2.8867,2.7995,2.5684,0.0,0.0,0.0,0.0,0.0,0.0,0.0,0.0,0.0,0.0,0.0,0.0,0.0,0.0,0.0,0.0,0.0,0.0,0.0,0.0,0.0,0.0,0.0,0.0,3.3809,3.6328,3.7952,3.8265,3.8752,3.9902,4.041,4.082,4.125,4.1289,4.1269,4.1211,4.1211,4.1211,4.1211,4.0801,0.0,0.0,0.0,3.8787,3.8689,3.7851,3.7422,3.7363,3.7324,3.7109,3.6773,3.6773,3.6504,3.6074,3.5703,3.5488,3.5332,3.4583,3.4063,3.3766,3.344,3.2567,3.1465,3.1094,3.0801,3.0616,0.0,0.0,0.0,0.0,0.0,0.0,0.0,1.6086,1.6511,1.7125,1.8945,2.049,2.1283,2.3113,2.4302,2.4369,2.3482,2.2372,2.1109,2.0815,2.1483,2.3295,2.4673,2.5891,2.6948,2.7603,2.8112,2.843,2.8484,2.8791,2.9325,2.9553,3.2397,3.7324,3.786,4.0781,4.5293,4.5293,4.5039,4.459,4.4004,4.1738,3.8496,3.6641,3.5254,3.4082,3.2237,3.1875,3.1875,2.8976,2.8457,2.8555,2.6275,2.4785,0.0,0.0,0.0,0.0,0.0,0.0,0.0,0.0,0.0,0.0,0.0,0.0,0.0,0.0,0.0,0.0,0.0,0.0,0.0,3.3535,3.6211,3.8437,3.9824,4.0605,4.1016,4.0976,4.1289,4.1582,4.168,4.168,4.1543,4.123,4.1211,4.1211,4.1211,4.1094,4.0879,4.0489,4.0273,3.9805,3.9082,3.8574,3.8144,3.7757,3.7461,0.0,3.7168,3.7168,3.6953,3.6577,3.6499,3.6069,3.5391,3.5215,3.3865,3.1985,3.2668,3.2344,3.1474,3.1396,3.0306,2.8872,0.0,0.0,0.0,0.0,0.0,0.0,0.0,1.6299,1.6725,1.7314,1.8784,2.0027,2.057,2.1857,2.2539,2.2211,2.1269,2.0802,2.1096,2.1523,2.2819,2.5197,2.6279,2.7241,2.8136,2.8634,2.8928,2.9045,2.9192,2.9566,3.014,3.0287,3.2586,3.6717,3.8328,4.1138,4.4773,4.6116,4.6504,4.6269,4.584,4.4375,4.2226,4.0293,3.8613,3.7129,3.5874,3.5098,3.4323,3.1942,3.1035,3.0527,2.8594,2.709,2.5781,0.0,0.0,0.0,0.0,0.0,0.0,0.0,0.0,0.0,0.0,0.0,0.0,0.0,0.0,2.7519,2.9277,0.0,3.416,3.6289,3.8493,4.0176,4.1035,4.1719,4.1953,4.1543,4.168,4.1797,4.1797,4.1621,4.1406,4.123,4.1211,4.1211,4.1211,4.1211,4.0976,4.0489,3.9451,3.8572,3.7896,3.649,3.5709,3.5634,3.5152,3.4864,3.4791,3.463,3.4324,3.3929,3.3802,3.3496,3.3065,3.2703,3.1605,3.0236,3.0568,3.0131,2.9261,2.9033,2.8207,2.7194,0.0,0.0,0.0,0.0,0.0,0.0,0.0,0.0,1.6901,1.7461,1.8572,1.9439,1.9823,2.0414,2.0535,1.9917,1.9292,1.9613,2.1256,2.2298,2.4052,2.6867,2.7562,2.827,2.9068,2.9366,2.9539,2.9659,2.994,3.0381,3.0969,3.1022,3.2785,3.5969,3.8632,4.1325,4.4012,4.6693,4.7773,4.7656,4.7226,4.6543,4.5586,4.3574,4.1797,4.0234,3.9101,3.7598,3.5898,3.4206,3.2832,3.1582,3.0556,2.9285,2.7858,2.6099,2.5297,0.0,0.0,0.0,0.0,0.0,0.0,0.0,0.0,2.5141,2.5879,2.7949,2.9336,3.084,3.3027,3.5195,3.7148,3.8711,4.037,4.1543,4.1875,4.2207,4.2265,4.1953,4.1914,4.1914,4.1914,4.1543,4.1289,4.1211,4.1211,4.1211,4.1211,4.1211,4.1016,4.0664,3.8965,3.7849,3.7351,3.5376,3.4452,3.4635,3.3686,3.3137,3.3023,3.2262,3.1712,3.1297,3.0943,3.0782,3.0733,3.0008,2.9253,2.8565,2.823,2.7338,2.6296,2.6513,2.6184,2.5594,0.0,0.0,0.0,0.0,0.0,0.0,0.0,0.0,0.0,1.7206,1.8237,1.8905,1.8704,1.9241,1.9361,1.8731,1.9789,2.0962,2.2191,2.3559,2.5306,2.7509,2.8177,2.8791,2.9419,2.9459,2.974,3.0306,3.0555,3.0996,3.1583,3.1837,3.3448,3.6265,3.9242,4.1958,4.451,4.7485,4.8496,4.8105,4.7676,4.6992,4.6074,4.4707,4.334,4.1835,3.9863,3.8047,3.6421,3.5019,3.3711,3.2637,3.248,3.1289,2.9581,2.7897,2.6016,2.4277,2.3303,2.3105,2.3532,2.4972,2.5386,2.642,0.0,3.0898,3.1152,3.2961,3.4023,3.4863,3.5527,3.7402,3.916,4.0137,4.1426,4.2265,4.2304,4.2362,4.2362,4.2323,4.2323,4.2323,4.2323,4.1973,4.1582,4.125,4.1211,4.1211,4.1211,4.1211,4.1191,4.1094,4.0899,4.0531,4.0047,3.9798,3.9491,3.9146,3.686,3.5771,3.5678,3.3441,3.2166,3.1696,3.1079,3.0782,3.0733,3.0008,2.8736,2.7165,2.656,2.5091,2.3682,2.6401,2.6057,2.4213,0.0,0.0,0.0,0.0,0.0,0.0,0.0,0.0,0.0,0.0,1.7862,1.8103,1.7996,1.7903,1.7649,1.726,1.8572,2.0187,2.2044,2.3875,2.6039,2.8617,2.9138,2.9646,3.0234,3.0408,3.0621,3.0862,3.133,3.177,3.2233,3.2478,3.3334,3.4675,3.7499,4.0141,4.2704,4.5447,4.7398,4.8574,4.8444,4.7656,4.6523,4.5254,4.3183,4.0742,3.9062,3.7363,0.0,0.0,3.3281,3.2511,3.2715,3.1445,2.957,2.8132,2.6836,2.5859,2.5508,2.5391,2.5718,2.7201,2.8333,2.9737,3.2324,3.2949,3.3555,3.5547,3.6836,3.7891,3.8848,4.0351,4.1092,3.9844,4.0319,4.0343,3.8717,3.8558,3.8521,3.8195,3.8217,3.927,4.1812,4.168,4.1367,4.123,4.0021,3.9276,3.9276,3.8112,3.7419,3.7419,3.6161,3.5392,3.5183,3.3781,3.3058,3.3081,3.1486,3.0821,3.0989,2.957,2.8743,2.8406,2.7914,2.7643,2.7438,2.6932,2.6287,2.557,2.51,2.4341,2.3509,2.4271,2.3806,2.285,0.0,0.0,0.0,0.0,0.0,0.0,0.0,0.0,0.0,0.0,0.0,1.7541,1.7355,1.6887,1.6473,1.6203,1.7515,1.9292,2.1515,2.3683,2.6158,2.9035,2.9553,3.014,3.0902,3.1116,3.1263,3.1343,3.1851,3.2251,3.2607,3.2888,3.3133,3.3514,3.6129,3.8734,4.138,4.3927,4.642,4.8698,4.8464,4.7558,4.6148,4.4274,4.1699,3.8848,3.7656,3.582,0.0,3.2547,3.1621,3.1045,3.1562,3.0566,2.9051,2.7995,2.7135,2.6562,2.6889,2.724,2.7969,2.9698,3.1435,3.3133,3.4635,3.5547,3.6616,3.8496,3.9531,4.0391,4.1348,4.171,4.1184,3.9205,3.8778,3.8031,3.605,3.5585,3.5334,3.4862,3.4642,3.5794,3.9034,3.9359,3.9413,3.9413,3.7896,3.7002,3.7002,3.554,3.4692,3.4692,3.3145,3.2299,3.2299,3.0525,2.9754,2.9968,2.8602,2.804,2.815,2.6933,2.6279,2.6105,2.5758,2.5464,2.5184,2.4877,2.4679,2.4572,2.4315,2.4022,2.3723,2.2939,2.2432,2.2111,0.0,0.0,0.0,0.0,0.0,0.0,0.0,0.0,0.0,0.0,0.0,0.0,0.0,1.6484,1.619,1.5848,1.7156,1.8783,2.0632,2.2926,2.5411,2.8112,2.9075,3.0034,3.1136,3.1223,3.137,3.1698,3.1957,3.2251,3.2607,3.2888,3.3133,3.3514,3.6129,3.8734,4.138,4.3927,4.6253,4.8164,4.7279,4.623,4.4665,4.1328,3.8691,3.6695,3.5781,0.0,3.0225,2.9328,2.8496,2.7976,2.8769,2.8711,2.8269,2.7819,2.649,2.5434,2.668,2.7884,2.9542,3.2508,3.4557,3.6445,3.8555,4.0019,4.1367,4.2677,4.2598,4.2304,4.2343,4.0334,3.863,3.8531,3.7121,3.5975,3.5917,3.5061,3.4342,3.4077,3.3183,3.2735,3.3108,3.4238,3.4894,3.4894,3.4813,3.4813,3.4813,3.4732,3.4692,3.4692,3.4611,3.4611,3.4611,3.453,3.4489,3.4489,3.2052,3.0719,3.031,2.7622,2.6386,2.636,2.6105,2.581,2.5478,2.5184,2.489,2.4572,2.4315,2.4022,2.3763,2.342,2.2892,2.2405,0.0,0.0,0.0,0.0,0.0,0.0,0.0,0.0,0.0,0.0,0.0,0.0,0.0,0.0,0.0,0.0,1.682,1.8143,1.9736,2.2205,2.4543,2.664,2.8297,2.9553,3.0341,3.0555,3.0889,3.137,3.1476,3.177,3.2251,3.2345,3.2652,3.3169,3.4033,3.5909,3.8392,3.9005,4.128,4.4379,4.3347,4.2894,4.2539,3.9375,3.6309,3.341,0.0,0.0,2.7884,2.6758,2.6197,2.6118,2.6973,2.6738,2.6216,2.6348,2.6367,2.6836,2.9004,3.0937,3.2988,3.5723,3.7519,3.9082,4.0918,4.1465,4.1719,4.2148,4.0162,3.8329,3.8329,3.6754,3.494,3.3309,3.3283,3.2892,3.1275,3.0614,2.996,2.9083,2.9014,2.8884,2.8385,3.162,3.3934,3.4335,3.3222,3.2505,3.2505,3.1159,3.0385,3.0385,3.0385,3.0385,3.0385,3.0385,3.0385,3.0385,2.9141,2.8256,2.7755,2.6823,2.6386,2.6373,2.6118,2.5944,2.581,2.5315,2.5024,2.4903,2.4609,2.4315,2.4022,2.3728,2.3367,2.2958,0.0,0.0,0.0,0.0,0.0,0.0,0.0,0.0,0.0,0.0,0.0,0.0,0.0,0.0,0.0,0.0,0.0,1.7394,1.8679,2.0722,2.2699,2.4499,2.6012,2.7161,2.7856,2.7963,2.8283,2.8828,2.9041,2.9593,3.0381,3.0702,3.1169,3.173,3.1837,3.3381,3.59,3.5375,3.6974,3.9706,3.8494,3.7727,3.6952,3.4259,3.149,0.0,0.0,2.5108,2.4889,2.4509,2.4375,2.4473,2.5039,2.5254,2.543,2.5991,2.722,2.9043,3.1934,3.418,3.6309,3.885,4.0391,4.1504,4.2441,4.1859,4.1035,4.0562,3.77,3.5147,3.4827,3.2927,3.0969,2.9495,2.9301,2.8984,2.7943,2.7416,2.6961,2.6587,2.66,2.6533,2.6185,2.8978,3.1127,3.1811,3.0857,3.026,3.026,2.8964,2.8179,2.8179,2.8179,2.8179,2.8179,2.8179,2.8179,2.8179,2.759,2.7108,2.6694,2.648,2.6386,2.6373,2.6225,2.6024,2.581,2.5398,2.5117,2.4903,2.4679,2.4426,2.4182,2.3995,2.3741,2.342,0.0,0.0,0.0,0.0,0.0,0.0,0.0,0.0,0.0,0.0,0.0,0.0,0.0,0.0,0.0,0.0,0.0,0.0,1.7488,1.8679,2.0097,2.175,2.2479,2.3241,2.4075,2.3834,2.3981,2.4532,2.5079,2.5959,2.7148,2.7949,2.8657,2.9219,2.9499,3.1117,3.3616,3.2797,3.3179,3.4248,3.2912,3.1012,2.8734,2.6599,0.0,0.0,2.1483,2.1096,2.1547,2.2684,2.3135,2.3237,2.3257,2.4446,2.603,2.6967,2.9121,3.1894,3.5293,3.748,3.9394,4.1914,4.3105,4.3533,4.3042,4.1342,3.944,3.805,3.5143,3.2622,3.1739,2.8924,2.6867,2.7155,2.561,2.4836,2.6279,2.5758,2.5638,2.672,2.6106,2.5812,2.636,2.6426,2.6787,2.7629,2.8005,2.8165,2.8179,2.8179,2.8179,2.8179,2.8179,2.8179,2.8179,2.8179,2.8165,2.8138,2.7576,2.7296,2.7269,2.6693,2.64,2.6413,2.64,2.6066,2.5531,2.5518,2.5133,2.4626,2.4613,2.4426,2.4222,2.4209,2.4035,2.3736,0.0,0.0,0.0,0.0,0.0,0.0,0.0,0.0,0.0,0.0,0.0,0.0,0.0,0.0,0.0,0.0,0.0,0.0,1.6605,1.7956,1.9011,1.9679,2.1141,2.2131,2.2539,2.2686,2.3025,2.3625,2.3581,2.3964,2.47,2.4663,2.4983,2.5558,2.5625,2.6076,2.6718,2.6297,2.6969,2.8224,0.0,2.682,2.6991,0.0,0.0,0.0,2.2197,2.2094,2.2593,2.2359,2.3521,2.5113,2.5449,2.6523,2.8066,3.0243,3.2676,3.5332,3.8144,4.0391,4.2246,4.3574,4.3555,4.2816,4.1167,3.9151,3.6789,3.387,3.0068,2.6958,2.5993,2.4591,2.3838,2.4579,2.552,2.652,2.759,2.755,2.7349,2.7215,2.7001,2.6787,2.672,2.6907,2.7269,2.7669,2.7762,2.7951,2.8179,2.8179,2.8179,2.8179,2.8179,2.8179,2.8179,2.8179,2.7965,2.7536,2.7376,2.7148,2.6921,2.656,2.6507,2.6694,2.648,2.6186,2.5864,2.5598,2.5304,2.4943,2.4679,2.4559,2.4466,2.4289,2.4155,2.4008,0.0,0.0,0.0,0.0,0.0,0.0,0.0,0.0,0.0,0.0,0.0,0.0,0.0,0.0,0.0,0.0,0.0,0.0,0.0,1.686,1.7462,1.7742,1.8584,1.9185,1.9495,1.9506,1.9783,2.0384,2.0539,2.0953,2.1643,2.1838,2.2218,2.2659,2.2792,2.2913,2.3006,2.2445,0.0,0.0,0.0,0.0,0.0,0.0,0.0,2.0257,1.9532,2.0746,2.2863,2.4279,2.5683,2.6967,2.7812,2.9199,3.1055,3.3652,3.6113,3.8555,4.1172,4.3144,4.4531,4.4648,4.3318,4.1443,3.9062,3.5711,3.2256,2.9101,2.5674,2.295,2.199,2.1749,2.1951,2.288,2.4275,2.5772,2.7215,2.7309,2.7336,2.7657,2.7576,2.7442,2.7402,2.7428,2.7617,2.7911,2.7938,2.8005,2.8179,2.8179,2.8179,2.8179,2.8179,2.8179,2.8179,2.8179,2.8018,2.7697,2.7563,2.7375,2.7188,2.6774,2.6667,2.6814,2.652,2.6265,2.5971,2.5638,2.5344,2.5088,2.4719,2.4599,2.4586,2.4412,2.4396,2.4292,0.0,0.0,0.0,0.0,0.0,0.0,0.0,0.0,0.0,0.0,0.0,0.0,0.0,0.0,0.0,0.0,0.0,0.0,0.0,0.0,0.0,1.623,1.5965,1.5952,1.623,1.5941,1.6048,1.6593,1.7101,1.7742,1.8503,1.9263,1.9757,2.004,0.0,0.0,0.0,0.0,0.0,0.0,0.0,0.0,0.0,0.0,0.0,0.0,1.6244,1.8795,2.2711,2.6914,2.8556,2.9141,3.0586,3.25,3.4674,3.7305,3.9473,4.1582,4.4062,4.5312,4.5716,4.4864,4.2288,3.9217,3.6316,3.1733,2.7255,2.4373,2.2055,2.0271,1.9441,2.0097,2.1087,2.2091,2.2979,2.4275,2.6333,2.6412,2.672,2.8031,2.7951,2.7898,2.8165,2.7991,2.7951,2.8165,2.8219,2.8232,2.8192,2.8179,2.8179,2.8179,2.8179,2.8179,2.8179,2.8179,2.8165,2.8125,2.7816,2.7696,2.7682,2.7094,2.68,2.6867,2.6533,2.6265,2.5971,2.5678,2.5398,2.5104,2.4773,2.4653,2.4653,2.4613,2.4572,2.4469,0.0,0.0,0.0,0.0,0.0,0.0,0.0,0.0,0.0,0.0,1.6754,1.6673,0.0,0.0,0.0,0.0,0.0,0.0,0.0,0.0,0.0,0.0,1.5835,1.5835,1.5888,1.5835,1.5861,1.5955,1.6061,1.6182,1.6342,1.6502,1.6595,1.6648,1.6702,0.0,0.0,0.0,0.0,0.0,0.0,0.0,0.0,0.0,0.0,0.0,1.8488,2.0231,2.2661,2.6958,3.0012,3.2422,3.4837,3.6777,3.8711,4.1308,4.2851,4.4121,4.5976,4.5167,4.3664,4.3008,3.9423,3.5147,3.1628,2.8201,2.4784,2.132,2.0083,1.9428,1.8786,1.996,2.1563,2.3228,2.4209,2.5491,2.759,2.7617,2.7575,2.8125,2.8138,2.8125,2.8179,2.8337,2.8364,2.8205,2.8419,2.8417,2.8205,2.8179,2.8179,2.8179,2.8179,2.8179,2.8179,2.8179,2.8058,2.7776,2.7722,2.7696,2.7682,2.7094,2.6961,2.7202,2.6627,2.6265,2.5998,2.5944,2.5705,2.5411,2.5117,2.4997,2.497,2.4693,2.4452,2.4007,0.0,0.0,0.0,0.0,0.0,0.0,0.0,1.6513,1.67,1.67,1.67,1.6593,1.6324,1.6139,1.5979,0.0,0.0,0.0,0.0,0.0,0.0,0.0,0.0,0.0,1.5808,1.5808,1.5808,1.5808,0.0,1.5808,1.5808,1.5808,1.5808,1.5808,1.5808,1.5808,1.5808,1.5808,1.5808,1.5808,1.5808,1.5808,0.0,0.0,0.0,0.0,0.0,1.9507,2.1399,2.5613,2.9199,3.2587,3.6701,3.918,4.0937,4.2851,4.3067,4.3092,4.4763,4.3334,4.1136,4.0275,3.6442,3.1992,2.8552,2.523,2.2063,1.9239,1.8784,1.8824,1.8544,1.98,2.1309,2.2666,2.3482,2.474,2.6961,2.7015,2.7162,2.8085,2.8326,2.8366,2.8205,2.843,2.8484,2.8205,2.8326,2.8339,2.8192,2.8179,2.8179,2.8179,2.8179,2.8179,2.8179,2.8179,2.8112,2.7965,2.7965,2.7965,2.7951,2.7482,2.7362,2.7455,2.6867,2.6533,2.6373,2.5919,2.5638,2.535,2.3857,2.3279,2.3142,2.191,2.1408,2.1154,0.0,0.0,0.0,0.0,0.0,0.0,0.0,1.6645,1.6847,1.6955,1.6941,1.678,1.6511,1.6139,1.5875,0.0,0.0,0.0,0.0,0.0,0.0,0.0,0.0,0.0,0.0,0.0,0.0,1.5808,1.5808,0.0,0.0,0.0,0.0,0.0,1.5808,1.5808,1.5808,1.5808,1.5808,0.0,0.0,1.5808,0.0,0.0,0.0,0.0,0.0,1.8106,1.9794,2.3703,2.7078,3.0497,3.5449,3.9158,4.1776,4.2305,4.1928,4.1574,4.2501,4.0775,3.8437,3.7302,3.3338,2.8964,2.5997,2.2737,1.9816,1.7983,1.8023,1.841,1.8477,1.9533,2.0779,2.185,2.2412,2.3576,2.6039,2.6185,2.6546,2.8005,2.846,2.8511,2.8312,2.8524,2.8577,2.8312,2.8219,2.8179,2.8179,2.8179,2.8179,2.8179,2.8179,2.8179,2.8179,2.8179,2.8179,2.8179,2.8179,2.8179,2.8179,2.7829,2.7669,2.7575,2.6554,2.6091,2.5933,2.4788,2.4314,2.4096,2.1928,2.1076,2.0876,1.9208,1.8542,1.8426,0.0,0.0,0.0,0.0,0.0,0.0,0.0,1.6939,1.7327,1.7822,1.7675,1.7421,1.7152,1.6591,1.6126,0.0,0.0,0.0,0.0,0.0,0.0,0.0,0.0,0.0,0.0,0.0,0.0,1.5808,1.5808,0.0,0.0,0.0,0.0,0.0,0.0,1.5808,1.5808,1.5808,0.0,0.0,0.0,0.0,0.0,0.0,0.0,0.0,0.0,1.6782,1.8339,2.1475,2.3729,2.572,2.8874,3.5086,4.0879,3.8988,4.0078,4.1612,4.0186,3.7867,3.5607,3.445,3.0038,2.5442,2.3248,2.0832,1.8798,1.7782,1.7849,1.8143,1.8437,1.9067,2.007,2.1743,2.2064,2.3073,2.5985,2.6185,2.6546,2.8005,2.846,2.8591,2.8564,2.8831,2.8828,2.8591,2.8353,2.8179,2.8179,2.8179,2.8179,2.8179,2.8179,2.8179,2.8179,2.8179,2.8179,2.8179,2.8179,2.8179,2.8179,2.7829,2.7549,2.72,2.4894,2.3722,2.3296,2.1249,2.0411,2.037,1.9666,1.9413,1.9362,1.88,1.8403,1.7927,0.0,0.0,0.0,0.0,0.0,0.0,1.67,1.6979,1.7394,1.7942,1.7769,1.7568,1.7448,1.6913,1.6339,1.5848,0.0,0.0,0.0,0.0,0.0,0.0,0.0,0.0,0.0,0.0,1.5808,1.5808,1.5808,0.0,0.0,0.0,0.0,0.0,0.0,1.5808,1.5808,1.5808,0.0,0.0,0.0,0.0,0.0,0.0,0.0,0.0,0.0,0.0,1.6866,1.8829,2.0595,2.2193,2.3601,2.7975,3.2979,3.4649,3.5372,3.5789,3.651,3.4855,3.2696,3.1702,2.8194,2.4492,2.2772,2.0468,1.8464,1.7755,1.7969,1.8343,1.8464,1.9,1.9682,2.0535,2.0668,2.1443,2.3688,2.3901,2.4703,2.7068,2.7615,2.8083,2.8748,2.9138,2.9112,2.8644,2.8497,2.8379,2.8192,2.8179,2.8179,2.8179,2.8179,2.8179,2.8179,2.8179,2.8179,2.8179,2.8179,2.7448,2.6096,2.5865,2.4956,2.3435,2.2171,2.1543,2.1302,2.0128,1.9654,1.9504,1.7889,1.7202,1.6967,1.5574,1.4907,1.461,0.0,0.0,0.0,0.0,0.0,1.6872,1.6727,1.6979,1.7381,1.7929,1.7849,1.7689,1.7622,1.7061,1.65,1.5981,1.5861,0.0,0.0,0.0,0.0,0.0,0.0,0.0,0.0,0.0,1.5808,1.5808,1.5808,1.5808,0.0,0.0,1.5808,1.5808,0.0,0.0,0.0,0.0,0.0,0.0,0.0,0.0,0.0,0.0,0.0,0.0,0.0,0.0,0.0,0.0,0.0,1.8985,1.9352,2.1532,2.4779,2.8981,3.0539,3.1115,3.2193,3.1631,3.0474,2.9499,2.68,2.3995,2.2498,2.0187,1.821,1.7689,1.7996,1.8384,1.8477,1.8905,1.9359,1.9733,1.9867,2.0508,2.2178,2.2498,2.3447,2.5853,2.644,2.7162,2.839,2.9098,2.9245,2.8657,2.8604,2.847,2.8205,2.8179,2.8179,2.8179,2.8179,2.8179,2.8179,2.8179,2.7841,2.7152,2.7152,2.5939,2.3641,2.3509,2.2508,2.0808,1.981,1.9284,1.9125,1.8098,1.7696,1.7508,1.5792,1.5074,1.4837,1.3215,1.2623,1.2562,0.0,0.0,0.0,0.0,0.0,0.0,1.666,1.6979,1.7381,1.7943,1.8009,1.7902,1.7635,1.7061,1.658,1.6324,1.6005,0.0,0.0,0.0,0.0,0.0,0.0,0.0,0.0,0.0,1.5808,1.5808,1.5808,1.5808,1.5808,1.5808,1.5808,1.5808,0.0,0.0,0.0,0.0,0.0,0.0,0.0,0.0,0.0,0.0,0.0,0.0,0.0,0.0,0.0,0.0,0.0,0.0,0.0,1.656,1.7623,2.1774,2.6145,2.9227,2.7361,2.815,2.9219,2.8016,2.5732,2.3429,2.193,1.9746,1.7929,1.7649,1.7836,1.8116,1.8437,1.8731,1.909,1.9706,2.001,2.0717,2.2171,2.2672,2.33,2.4479,2.4917,2.5717,2.7188,2.866,2.9245,2.8657,2.8604,2.847,2.8205,2.8179,2.8179,2.8179,2.8179,2.8179,2.8179,2.8179,2.7012,2.4733,2.4733,2.3512,2.1211,2.1117,2.0893,2.046,1.8121,1.694,1.6492,1.4334,1.348,1.3452,1.3159,1.3125,1.3152,1.2671,1.2596,1.2665,0.0,0.0,0.0,0.0,0.0,0.0,0.0,1.6685,1.7061,1.7649,1.7582,1.7501,1.7595,1.6899,1.6404,1.631,1.6005,0.0,0.0,0.0,0.0,0.0,0.0,0.0,0.0,0.0,1.5808,1.5808,1.5808,1.5808,1.5808,1.5808,1.5808,1.5808,1.5808,1.5808,0.0,0.0,0.0,0.0,0.0,0.0,0.0,0.0,0.0,0.0,0.0,0.0,0.0,0.0,0.0,0.0,0.0,0.0,0.0,1.8229,2.1257,2.4205,2.4642,2.5438,2.5932,2.4957,2.3166,2.1462,2.0561,1.8998,1.7702,1.7635,1.7996,1.8384,1.8477,1.892,1.9359,1.9733,2.001,2.0437,2.1136,2.2211,2.3496,2.505,2.7094,2.8564,2.9032,2.9325,2.9325,2.8895,2.8724,2.847,2.8205,2.8179,2.8179,2.8179,2.8179,2.8179,2.8179,2.663,2.5428,2.4691,2.3083,2.1011,1.8682,1.8526,1.7484,1.5769,1.4938,1.4502,1.4375,1.3687,1.3403,1.339,1.3302,1.3207,1.305,1.2907,1.2712,1.2569,0.0,0.0,0.0,0.0,0.0,0.0,0.0,1.666,1.6874,1.7381,1.7193,1.7073,1.7235,1.6685,1.6297,1.6297,1.6005,0.0,0.0,0.0,0.0,0.0,0.0,0.0,0.0,1.5808,1.5808,1.5808,1.5939,1.5915,1.5808,1.5915,1.5915,1.5808,1.5808,1.5808,0.0,0.0,0.0,0.0,0.0,0.0,1.5808,0.0,0.0,0.0,0.0,0.0,0.0,0.0,0.0,0.0,0.0,0.0,0.0,0.0,1.8077,2.0151,2.1937,2.318,2.3781,2.3006,2.1657,2.0361,1.9773,1.8598,1.7608,1.7608,1.809,1.849,1.849,1.9,1.9455,1.9613,1.9973,2.0304,2.0641,2.197,2.3509,2.5144,2.7562,2.9085,2.9085,2.9419,2.9526,2.9232,2.8938,2.8631,2.8379,2.7428,2.6885,2.6885,2.6885,2.6885,2.6885,2.4551,2.2955,2.2084,2.0616,1.8616,1.6207,1.607,1.5108,1.3578,1.3464,1.3403,0.0,1.3403,1.3403,1.339,1.3275,1.3193,1.3064,1.2887,1.2705,1.2576,0.0,0.0,0.0,0.0,0.0,0.0,0.0,1.6926,1.6859,1.7166,1.6913,1.67,1.67,1.6471,1.6284,1.627,0.0,0.0,0.0,0.0,0.0,0.0,0.0,0.0,0.0,1.5808,1.5808,1.5808,1.6112,1.6112,1.5848,1.6126,1.6112,1.5835,1.5821,1.5808,0.0,0.0,0.0,0.0,1.5808,1.5808,0.0,0.0,0.0,0.0,0.0,0.0,0.0,0.0,0.0,0.0,0.0,0.0,0.0,0.0,0.0,0.0,0.0,2.1176,2.2358,2.181,2.0828,1.985,1.9388,1.8411,0.0,1.7608,1.809,1.849,1.849,1.9,1.9401,1.9428,1.9867,2.0304,2.0641,2.2064,2.3603,2.5101,2.6774,2.7789,2.7709,2.9005,2.9637,2.9212,2.8876,2.8498,2.8106,2.5775,2.4465,2.4465,2.4294,2.4294,2.4465,2.2116,1.986,1.7781,1.7599,1.6297,1.4078,1.3892,1.3707,1.3565,1.3464,1.3403,1.3403,1.3403,1.3403,1.337,1.3125,1.3091,1.3146,1.2678,1.2603,1.2652,0.0,0.0,0.0,0.0,0.0,0.0,0.0,0.0,0.0,0.0,1.6913,1.67,1.67,1.6471,1.6203,0.0,0.0,0.0,0.0,0.0,0.0,0.0,0.0,0.0,0.0,1.5808,1.5808,1.5808,1.5875,1.6019,1.619,1.6005,1.6019,1.6152,1.5901,1.5808,0.0,0.0,0.0,0.0,1.5808,1.5808,0.0,0.0,0.0,0.0,1.5808,1.5808,0.0,0.0,0.0,0.0,0.0,0.0,0.0,0.0,1.6139,1.6524,1.7073,0.0,1.8519,1.8344,1.8103,1.7929,0.0,1.7809,1.7608,1.7608,1.809,1.849,1.849,1.9,1.9468,1.9666,1.997,2.0304,2.0641,2.2947,2.5141,2.6613,2.8123,2.8698,2.7789,2.8644,2.8356,2.6294,2.5853,2.4886,2.3042,2.2374,2.1998,2.1998,2.0313,2.0269,2.1998,1.9598,1.8113,1.7552,1.5663,1.4379,1.3729,1.3653,1.3558,1.3451,1.3417,1.3403,1.3403,1.3403,1.3403,1.3383,1.3234,1.3118,1.3023,1.2759,1.2623,1.2549,0.0,0.0,0.0,0.0,0.0,0.0,0.0,0.0,0.0,0.0,0.0,0.0,0.0,0.0,0.0,0.0,0.0,0.0,0.0,0.0,0.0,0.0,0.0,1.5808,1.5808,1.5808,1.5808,1.5808,1.6075,1.6246,1.6297,1.6246,1.6246,1.6284,1.5941,1.5808,0.0,0.0,0.0,1.5808,1.5808,0.0,0.0,0.0,0.0,0.0,1.5808,1.5808,0.0,1.5808,1.5808,1.5808,0.0,0.0,0.0,0.0,1.5915,1.6072,1.6072,1.6618,1.7206,1.7206,1.73,1.7408,1.7568,1.7608,1.7622,1.7769,1.817,1.8531,1.8664,1.8466,1.8621,1.9628,1.9425,1.9504,2.0457,2.2958,2.5014,2.589,2.7577,2.8577,2.8337,2.7775,2.6866,2.5441,2.4086,2.2772,2.1503,2.0274,1.9619,1.9619,1.7422,1.7249,1.9488,1.7112,1.5874,1.5789,1.4429,1.3727,1.3585,1.3585,1.3546,1.3403,1.3403,1.3363,1.3295,1.3295,1.3261,1.3186,1.303,1.2922,1.2834,1.2684,1.2569,1.2501,0.0,0.0,0.0,0.0,0.0,0.0,0.0,0.0,0.0,0.0,0.0,0.0,0.0,0.0,0.0,0.0,0.0,0.0,0.0,0.0,0.0,0.0,0.0,1.5821,1.5875,1.5875,1.5888,1.5941,1.646,1.6607,1.6431,1.6607,1.6553,1.6284,1.5941,1.5808,0.0,0.0,1.5808,1.5808,1.5808,0.0,0.0,0.0,0.0,0.0,0.0,0.0,0.0,1.5808,1.5808,1.5808,1.5808,0.0,0.0,0.0,0.0,0.0,1.5915,1.6605,1.7246,1.7152,1.7327,1.7555,1.7595,1.7622,1.7729,1.7942,1.8289,1.8637,1.885,1.8105,1.7941,1.9539,1.9107,1.9237,2.1077,2.3175,2.4617,2.4837,2.6306,2.7496,2.8072,2.6243,2.4845,2.4447,2.2362,2.0935,2.0584,1.8462,1.7282,1.7282,1.5337,1.5184,1.6941,1.5053,1.398,1.3768,1.3768,1.3693,1.3551,1.3551,1.3526,1.3403,1.3403,1.3315,1.3214,1.3214,1.3132,1.2982,1.2793,1.2693,1.2672,1.2556,1.2501,1.2501,0.0,0.0,0.0,0.0,0.0,0.0,0.0,0.0,0.0,0.0,0.0,0.0,0.0,0.0,0.0,0.0,0.0,0.0,0.0,0.0,0.0,1.6555,1.6075,1.5928,1.623,1.623,1.6326,1.6567,1.666,1.6807,1.7058,1.6807,1.6553,1.6284,1.5941,1.5808,1.5808,1.5808,1.5808,1.5808,1.5808,0.0,0.0,0.0,0.0,0.0,0.0,0.0,0.0,1.5808,1.5808,1.5808,1.5808,0.0,0.0,0.0,0.0,0.0,1.6408,1.7034,1.7421,1.6901,1.702,1.7326,1.7555,1.7782,1.7969,1.7982,1.8449,1.8836,1.889,1.9156,1.9467,1.9757,2.0861,2.2508,2.4832,2.5684,2.6174,2.6412,2.5882,2.5167,2.4346,2.306,2.1393,1.9163,1.8646,1.7543,1.555,1.505,1.4822,1.4822,1.4476,1.44,1.4634,1.4286,1.3933,1.3619,1.3619,1.3538,1.3437,1.3437,1.3424,1.3403,1.3403,1.3315,1.3214,1.3214,1.3132,1.2982,1.2793,1.2693,1.2672,1.2556,1.2501,1.2501,0.0,0.0,0.0,0.0,0.0,0.0,0.0,0.0,0.0,0.0,0.0,0.0,0.0,0.0,0.0,0.0,0.0,0.0,0.0,0.0,0.0,1.6714,1.6422,1.6366,1.65,1.6513,1.6672,1.6966,1.7127,1.7274,1.7394,1.6914,1.6553,1.6284,1.5941,1.5808,1.5808,1.5808,1.5808,1.5808,0.0,0.0,0.0,0.0,0.0,0.0,0.0,0.0,0.0,0.0,1.5808,1.5808,1.5808,0.0,0.0,0.0,0.0,0.0,1.6353,1.678,1.7154,1.7355,1.7769,1.8063,1.7849,1.8036,1.8356,1.8691,1.8971,1.9252,1.9543,1.9529,1.9745,2.0532,2.231,2.3674,2.3973,2.4996,2.5127,2.3648,2.3868,2.3664,2.2326,2.0614,1.9066,1.7894,1.6641,1.5425,1.4343,1.4299,1.4299,1.4299,1.4299,1.4224,1.4119,1.4119,1.3926,1.3585,1.3585,1.3546,1.3403,1.3403,1.3403,1.3397,1.3315,1.3234,1.3091,1.2969,1.2847,1.2705,1.2637,1.261,1.2596,1.2528,1.2501,1.2501,0.0,0.0,0.0,0.0,0.0,0.0,0.0,0.0,0.0,0.0,0.0,0.0,0.0,0.0,0.0,0.0,0.0,0.0,0.0,0.0,1.718,1.6927,1.6914,1.6914,1.6914,1.6914,1.7113,1.7488,1.7715,1.7756,1.7675,1.7021,1.658,1.6391,1.5992,1.5808,1.5808,1.5808,1.5808,1.5808,0.0,0.0,0.0,0.0,0.0,0.0,0.0,0.0,0.0,0.0,0.0,0.0,0.0,0.0,0.0,1.5808,1.5848,1.5995,1.6404,1.6819,1.7288,1.7956,1.8409,1.8663,1.8528,1.8703,1.9065,1.9682,1.9856,2.0003,2.0281,2.0113,2.0407,2.1841,2.373,2.4693,2.3685,2.4404,2.4155,2.183,2.1886,2.1631,2.0523,1.8322,1.6984,1.6984,1.5344,1.4299,1.4299,1.4299,1.4299,1.4299,1.4299,1.4245,1.4173,1.4132,1.3926,1.3585,1.3585,1.3546,1.3403,1.3403,1.3403,1.339,1.3282,1.3132,1.2989,1.2793,1.2598,1.2501,1.2501,1.2501,1.2501,1.2501,1.2501,1.2501,0.0,0.0,0.0,0.0,0.0,0.0,0.0,0.0,0.0,0.0,0.0,0.0,0.0,0.0,0.0,0.0,0.0,0.0,0.0,0.0,1.7568,1.7541,1.7541,1.7541,1.7541,1.7541,1.7809,1.8424,1.8438,1.829,1.7942,1.7089,1.67,1.6647,1.6061,1.5808,1.5808,1.5808,1.5808,1.5808,1.5808,0.0,0.0,0.0,0.0,0.0,0.0,0.0,0.0,0.0,0.0,0.0,0.0,0.0,1.5808,1.5808,1.6019,1.6391,1.6991,1.7742,1.8384,1.8437,1.8249,1.8395,1.9743,2.0064,2.0237,2.0855,2.1234,2.1274,2.0766,2.148,2.2582,2.3788,2.5268,2.6507,2.7224,2.5832,2.4654,2.4426,2.0719,1.8148,1.806,1.5946,1.4564,1.4564,1.4387,1.4299,1.4299,1.4299,1.4299,1.4299,1.4299,1.4292,1.4285,1.4143,1.3926,1.3585,1.3585,1.3546,1.3403,1.3403,1.3403,1.339,1.3282,1.3132,1.2989,1.2793,1.2598,1.2501,1.2501,1.2501,1.2501,1.2501,1.2501,1.2501,0.0,0.0,0.0,0.0,0.0,0.0,0.0,0.0,0.0,0.0,0.0,0.0,0.0,0.0,0.0,0.0,0.0,0.0,0.0,1.7608,1.7608,1.7608,1.7608,1.7675,1.7836,1.7849,1.8129,1.8758,1.8584,1.8437,1.8303,1.7434,1.7006,1.6993,1.6553,1.6355,1.6355,1.6355,1.6355,1.6355,1.6355,1.6355,0.0,0.0,0.0,0.0,0.0,0.0,0.0,0.0,1.5808,1.5808,1.5808,1.5928,1.6112,1.6112,1.6313,1.6633,1.7085,1.7675,1.8276,1.8664,1.8945,1.9343,2.0294,2.0788,2.1162,2.1577,2.2372,2.2893,2.2679,2.326,2.4128,2.5168,2.6373,2.6882,2.5969,2.5185,2.3652,2.0746,1.8845,1.7238,1.577,1.4822,1.4299,1.4299,1.4299,1.4299,1.4299,1.4299,1.4299,1.4299,1.4299,1.4299,1.4299,1.4055,1.3871,1.3714,1.3632,1.3546,1.3403,1.3403,1.3403,1.339,1.3186,1.305,1.2982,1.2691,1.2556,1.2501,1.2501,1.2501,1.2501,1.2501,1.2501,1.2501,0.0,0.0,0.0,0.0,0.0,0.0,0.0,0.0,0.0,0.0,0.0,0.0,0.0,0.0,0.0,0.0,0.0,0.0,1.7608,1.7608,1.7608,1.7608,1.7608,1.7729,1.7982,1.8116,1.8396,1.889,1.8637,1.8437,1.833,1.7555,1.7206,1.7192,1.6834,1.67,1.67,1.67,1.67,1.67,1.67,1.67,0.0,0.0,0.0,0.0,0.0,0.0,0.0,0.0,1.5965,1.5965,1.5965,1.6112,1.631,1.6404,1.6645,1.6913,1.7152,1.7662,1.8276,1.877,1.9439,2.0214,2.1269,2.183,2.2331,2.2966,2.338,2.3688,2.3875,2.4302,2.4853,2.573,2.6328,2.6276,2.488,2.3427,2.1351,1.8191,1.7159,1.6078,1.4476,1.4299,1.4299,1.4299,1.4299,1.4299,1.4299,1.4299,1.4299,1.4299,1.4299,1.4299,1.4299,1.395,1.3795,1.3795,1.3605,1.3505,1.3397,1.3349,1.3329,1.3315,1.3017,1.2928,1.2868,1.261,1.2501,1.2501,1.2501,1.2501,1.2501,1.2501,1.2501,1.2494,0.0,0.0,0.0,0.0,0.0,0.0,0.0,0.0,0.0,0.0,0.0,0.0,0.0,0.0,0.0,0.0,0.0,0.0,1.7608,1.7608,1.7608,1.7608,1.7608,1.7729,1.7982,1.8303,1.8637,1.889,1.8637,1.8343,1.7982,1.7461,1.7206,1.7192,1.6847,1.6727,1.6714,1.6714,1.6714,1.6714,1.6714,1.6714,1.6714,0.0,0.0,0.0,0.0,0.0,0.0,0.0,1.6297,1.6297,1.6297,1.631,1.6364,1.662,1.6953,1.7206,1.7206,1.7836,1.8571,1.8836,1.957,2.0757,2.2825,2.3292,2.3705,2.5211,2.4356,2.3492,2.4115,2.4462,2.4813,2.5386,2.5041,2.4691,2.4648,2.0702,1.7807,1.7763,1.5734,1.4299,1.4299,1.4299,1.4299,1.4299,1.4299,1.4299,1.4299,1.4299,1.4299,1.4299,1.4299,1.4299,1.4299,1.395,1.3795,1.3795,1.3539,1.3403,1.3397,1.3247,1.3214,1.32,1.2861,1.2693,1.2679,1.2562,1.2501,1.2501,1.2501,1.2501,1.2463,1.2463,1.2463,1.2404,0.0,0.0,0.0,0.0,0.0,0.0,0.0,0.0,0.0,0.0,0.0,0.0,0.0,0.0,0.0,0.0,0.0,0.0,1.7608,1.7608,1.7608,1.7608,1.7608,1.7648,1.7716,1.7996,1.8396,1.889,1.8637,1.8343,1.7995,1.7836,1.7756,1.7756,1.7903,1.7849,1.7622,1.7622,1.7502,1.7328,1.7328,1.7328,1.7328,0.0,0.0,0.0,0.0,0.0,0.0,0.0,0.0,0.0,1.658,1.686,1.7193,1.7073,1.7382,1.7756,1.7756,1.8249,1.8918,1.9412,2.0508,2.1897,2.3567,2.346,2.3576,2.5476,2.5181,2.4743,2.5369,2.5678,2.5361,2.3921,2.4038,2.328,2.025,1.8671,1.7203,1.5513,1.4734,1.4299,1.4299,1.4299,1.4299,1.4299,1.4299,1.4299,1.4299,1.4299,1.4299,1.4299,1.4197,1.4143,1.4143,1.3844,1.3653,1.3646,1.3492,1.3403,1.3397,1.3356,1.3275,1.32,1.3016,1.2834,1.2672,1.2461,1.2352,1.2352,1.2352,1.1516,1.0308,1.0308,0.9415,0.8123,0.0,0.0,0.0,0.0,0.0,0.0,0.0,0.0,0.0,0.0,0.0,0.0,0.0,0.0,0.0,0.0,0.0,0.0,0.0,1.7649,1.7608,1.7608,1.7702,1.7876,1.8116,1.8156,1.8369,1.8744,1.8464,1.8129,1.7836,1.7969,1.7995,1.8009,1.8357,1.8303,1.7995,1.7995,1.7916,1.7769,1.7769,1.7769,1.7769,0.0,0.0,0.0,0.0,0.0,0.0,0.0,0.0,0.0,1.6913,1.7153,1.7421,1.7367,1.7662,1.7995,1.7995,1.8529,1.9292,2.012,2.1336,2.276,2.4209,2.4676,2.5208,2.6586,2.6212,2.5824,2.6412,2.5686,2.4624,2.3451,2.2373,2.0769,1.8174,1.6984,1.5858,1.4476,1.4299,1.4299,1.4299,1.4299,1.4299,1.4299,1.4299,1.4299,1.4299,1.4245,1.4211,1.4211,1.4061,1.398,1.398,1.3743,1.3585,1.3585,1.341,1.3308,1.3308,1.3254,1.3214,1.3118,1.2907,1.2725,1.2539,1.1568,1.1168,1.1086,1.023,0.9183,0.8166,0.8166,0.7381,0.6284,0.0,0.0,0.0,0.0,0.0,0.0,0.0,0.0,0.0,0.0,2.2341,0.0,0.0,0.0,0.0,0.0,0.0,0.0,0.0,0.0,1.7622,1.7648,1.7889,1.8303,1.885,1.8624,1.849,1.849,1.8169,1.7876,1.7635,1.7916,1.8049,1.8116,1.8437,1.8384,1.8063,1.8063,1.8022,1.7995,1.7995,1.8009,1.8035,1.8009,0.0,0.0,0.0,0.0,0.0,0.0,0.0,0.0,1.7246,1.7259,1.7314,1.7568,1.7822,1.8076,1.8102,1.8798,1.9762,2.0935,2.2218,2.3589,2.4997,2.6573,2.7789,2.7991,2.7255,2.6667,2.6996,2.4873,2.3098,2.3241,2.0189,1.772,1.7501,1.5646,1.4299,1.4299,1.4299,1.4299,1.4299,1.4299,1.4299,1.4299,1.4285,1.4278,1.4278,1.4193,1.4105,1.4048,1.3912,1.3788,1.3781,1.3639,1.3558,1.3545,1.3308,1.3207,1.3193,1.3057,1.2876,1.2642,1.2155,1.1908,1.1766,0.9862,0.9089,0.8888,0.7012,0.6153,0.6002,0.6002,0.5891,0.5701,0.0,0.0,0.0,0.0,0.0,0.0,0.0,0.0,0.0,0.0,0.0,0.0,0.0,0.0,0.0,0.0,0.0,0.0,0.0,0.0,1.7689,1.7902,1.8237,1.845,1.8584,1.8517,1.849,1.849,1.8169,1.7955,1.7929,1.8223,1.8489,1.8716,1.908,1.8891,1.8397,1.8397,1.8236,1.7995,1.7995,1.8156,1.837,1.8103,1.7955,0.0,0.0,0.0,0.0,0.0,0.0,0.0,1.7515,1.7662,1.7836,1.7902,1.8129,1.8504,1.8958,1.9559,2.0357,2.179,2.3901,2.5892,2.6907,2.7643,2.7844,2.6988,2.7336,2.7289,2.5572,2.4728,2.319,1.9651,1.8357,1.7159,1.53,1.4601,1.4299,1.4299,1.4299,1.4299,1.4299,1.4299,1.4299,1.4299,1.419,1.4122,1.4122,1.4132,1.4014,1.3849,1.3815,1.3747,1.3632,1.3526,1.339,1.3309,1.3248,1.3152,1.3043,1.3016,1.2004,1.021,0.8416,0.7537,0.7356,0.6915,0.6716,0.6674,0.6239,0.5126,0.3793,0.3793,0.2747,0.1366,0.0,0.0,0.0,0.0,0.0,0.0,0.0,0.0,0.0,0.0,0.0,0.0,0.0,0.0,0.0,0.0,0.0,0.0,0.0,0.0,1.8156,1.8423,1.8583,1.8758,1.8933,1.8771,1.8691,1.8691,1.8383,1.8236,1.8236,1.8557,1.8784,1.8903,1.9267,1.9067,1.849,1.849,1.8397,1.8236,1.8236,1.8409,1.8664,1.8343,1.8143,1.7969,1.7836,0.0,0.0,0.0,0.0,0.0,0.0,0.0,1.8236,1.8236,1.8571,1.9,1.9308,2.0137,2.1093,2.1984,2.2959,2.3874,2.4434,2.4701,2.4654,2.4027,2.528,2.5811,2.347,2.2137,2.0616,1.8191,1.6852,1.569,1.4476,1.4299,1.4299,1.4299,1.4299,1.4299,1.4299,1.4299,1.4272,1.4197,1.4159,1.4041,1.3966,1.3899,1.3824,1.37,1.3626,1.3551,1.3519,1.3444,1.3322,1.3173,1.2083,1.0952,0.9832,1.09,1.013,0.7963,0.6816,0.6256,0.6058,0.5042,0.4621,0.453,0.3521,0.2505,0.1604,0.1603,0.0916,0.0,0.0,0.0,0.0,0.0,0.0,0.0,0.0,0.0,0.0,0.0,0.0,0.0,0.0,0.0,0.0,0.0,0.0,0.0,0.0,0.0,0.0,1.889,1.8971,1.9118,1.9388,1.9132,1.8998,1.8998,1.8758,1.8664,1.8718,1.8836,1.8916,1.9011,1.9281,1.9093,1.8571,1.8571,1.8571,1.8571,1.8571,1.8744,1.8971,1.8677,1.841,1.8142,1.8089,1.7929,1.7782,1.8009,0.0,0.0,0.0,0.0,1.8504,1.8557,1.8746,1.9023,1.9367,2.0398,2.1361,2.1502,2.1146,2.0855,2.111,2.1191,2.1091,2.0702,2.2482,2.3384,2.1048,1.9054,1.7676,1.7238,1.5557,1.4299,1.4299,1.4299,1.4299,1.4299,1.4299,1.4299,1.4299,1.4278,1.4211,1.4125,1.4064,1.3939,1.3768,1.3653,1.3572,1.3593,1.3492,1.3424,1.3403,1.3039,1.274,1.2591,1.0298,0.7994,0.5804,0.7642,0.7471,0.5728,0.5361,0.5222,0.5063,0.331,0.2554,0.2386,0.0676,0.0,0.0,0.0,0.0,0.0,0.0,0.0,0.0,0.0,0.0,0.0,0.0,0.0,0.0,0.0,2.3409,0.0,0.0,0.0,0.0,0.0,0.0,0.0,1.889,0.0,0.0,1.889,1.9172,1.9361,1.9401,1.9361,1.9334,1.9334,1.9294,1.9415,1.9613,1.9145,1.9065,1.9334,1.9374,1.9185,1.8836,1.8836,1.8836,1.8836,1.8836,1.9038,1.9308,1.8985,1.881,1.8743,1.8517,1.8397,1.8398,1.8424,1.8437,0.0,0.0,0.0,1.8544,1.8798,1.8045,1.7532,1.9283,2.002,2.0201,1.9681,2.0107,2.0697,2.0962,2.1122,2.0659,1.8671,2.0053,2.0962,1.8671,1.8025,1.7115,1.508,1.452,1.4299,1.4299,1.4299,1.4299,1.4299,1.4299,1.4299,1.4299,1.4183,1.4139,1.4119,1.3831,1.3682,1.3619,1.3599,1.3566,1.3437,1.3539,1.3532,1.3403,1.1482,1.0457,1.0212,0.7883,0.5644,0.3538,0.382,0.3822,0.3431,0.1619,0.0847,0.0809,0.0538,0.0422,0.0385,0.0115,0.0,0.0,0.0,0.0,0.0,0.0,0.0,0.0,0.0,0.0,0.0,0.0,0.0,0.0,0.0,0.0,2.2571,0.0,0.0,0.0,1.8787,1.8998,1.9172,1.9172,1.9172,1.9172,1.9172,1.9321,1.9401,1.9401,1.9401,1.9401,1.9401,1.9562,1.9679,1.98,1.9677,1.9703,1.9853,1.9853,1.9599,1.9172,1.9172,1.9078,1.889,1.889,1.9105,1.9361,1.9038,1.889,1.8876,1.8784,1.8624,1.8517,1.8677,1.8731,1.8731,1.8731,0.0,0.0,0.0,1.8265,1.7402,1.8035,1.7578,1.6979,1.7336,1.704,1.6758,1.7082,1.7246,1.7036,1.6034,1.6641,1.7036,1.6034,1.5858,1.5513,1.4476,1.4299,1.4299,1.4299,1.4299,1.4299,1.4299,1.4299,1.4299,1.4299,1.4163,1.4119,1.4119,1.3797,1.3585,1.3585,1.3546,1.3471,1.3403,1.2243,1.1617,1.157,0.9322,0.7536,0.6206,0.5053,0.3411,0.1372,0.1372,0.1372,0.1296,0.0379,0.0,0.0,0.0,0.0,0.0,0.0,0.0,0.0,0.0,0.0,0.0,0.0,0.0,0.0,0.0,0.0,0.0,0.0,0.0,0.0,0.0,0.0,0.0,0.0,0.0,0.0,0.0,1.9199,1.9401,1.9401,1.9468,1.9508,1.9508,1.9575,1.9586,1.9586,1.9586,1.9586,1.9586,1.98,1.9947,2.0027,2.0241,2.0428,2.0561,2.0304,2.004,1.9722,1.9575,1.9399,1.9223,1.9143,1.9279,1.9481,1.9225,1.9116,1.9103,1.9065,1.8891,1.8744,1.8958,1.905,1.9116,1.9116,1.9345,0.0,0.0,0.0,1.6713,1.5673,1.4841,1.4362,1.4821,1.4209,1.358,1.3844,1.4075,1.4245,1.4245,1.4245,1.4251,1.4292,1.4299,1.4299,1.4299,1.4299,1.4299,1.4299,1.4265,1.4245,1.4245,1.4245,1.4224,1.419,1.4116,1.4041,1.3966,1.3756,1.3572,1.3531,1.3464,1.3148,1.2561,1.0965,0.9823,0.9262,0.6981,0.4708,0.2538,0.24,0.1501,0.0,0.0,0.0,0.0,0.0,0.0,0.0,0.0,0.0,0.0,0.0,0.0,0.0,0.0,0.0,0.0,0.0,0.0,0.0,0.0,0.0,0.0,0.0,0.0,0.0,0.0,0.0,0.0,2.0121,1.9458,1.8975,1.889,1.9199,1.9401,1.9401,1.9655,1.9773,1.9773,2.001,0.0,2.0157,2.0157,2.0157,2.0157,2.017,2.0361,2.0659,2.0672,2.098,2.1475,2.0601,2.0374,2.0605,2.0013,1.992,2.0117,1.9867,1.976,1.9773,1.976,1.976,1.972,1.9468,1.9361,1.9348,1.9361,1.9548,1.976,1.976,1.996,1.9841,0.0,0.0,0.0,1.1768,1.2395,1.3557,1.2313,1.2626,1.3282,1.3397,1.377,1.4125,1.4125,1.4125,1.4173,1.4272,1.4299,1.4299,1.4299,1.4299,1.4299,1.4299,1.4177,1.4125,1.4125,1.4125,1.4027,1.3835,1.3987,1.3953,1.3632,1.3599,1.3524,1.3417,1.3403,1.2395,1.0252,1.0128,0.9077,0.6916,0.4626,0.2379,0.0193,0.0153,0.0114,0.0,0.0,0.0,0.0,0.0,0.0,0.0,0.0,0.0,0.0,0.0,0.0,0.0,0.0,0.0,0.0,0.0,0.0,0.0,0.0,0.0,0.0,0.0,0.0,0.0,0.0,0.0,0.0,0.0,2.0622,2.0259,1.9285,1.9479,1.972,1.9907,1.9983,2.005,2.005,2.0144,2.0197,2.0197,2.0197,2.0197,2.0197,2.0428,2.0575,2.0712,2.11,2.1381,2.1569,2.1029,2.0855,2.0922,2.0535,2.0307,2.0197,2.009,2.005,2.005,2.005,2.005,2.0037,1.996,1.992,1.992,1.992,1.9987,2.005,2.005,2.0117,1.9676,1.7023,1.5027,1.3253,1.1345,1.1453,1.2127,1.204,1.2366,1.2834,1.3173,1.3532,1.379,1.379,1.3858,1.3939,1.395,1.4089,1.4156,1.4156,1.4238,1.4231,1.3991,1.4041,1.4034,1.3933,1.3926,1.3899,1.3802,1.381,1.3783,1.3727,1.3587,1.2865,1.1465,1.1349,1.0252,0.7956,0.649,0.4644,0.2423,0.1584,0.078,0.0,0.0,0.0,0.0,0.0,0.0,0.0,0.0,0.0,0.0,0.0,0.0,0.0,0.0,0.0,0.0,0.0,0.0,0.0,0.0,0.0,0.0,0.0,0.0,0.0,0.0,0.0,0.0,2.1422,0.0,0.0,0.0,0.0,2.05,1.9623,1.9773,1.9997,2.0197,2.029,2.0374,2.0374,2.0437,2.049,2.049,2.0397,2.0397,2.049,2.0628,2.0753,2.0828,2.1248,2.1489,2.1601,2.1243,2.1269,2.1537,2.1243,2.0949,2.0668,2.053,2.049,2.0504,2.0641,2.0615,2.049,2.049,2.037,2.0197,2.0197,2.0264,2.0374,2.0374,2.0042,1.9113,1.6424,1.4387,1.271,1.1247,1.0948,1.1226,1.1775,1.2094,1.2393,1.2847,1.3186,1.3417,1.3464,1.3551,1.368,1.3781,1.3885,1.396,1.4098,1.4156,1.415,1.3946,1.3919,1.3885,1.3741,1.3727,1.3707,1.3653,1.301,1.2537,1.2574,1.1729,1.0582,0.9183,0.8998,0.794,0.5668,0.3371,0.15,0.0,0.0,0.0,0.0,0.0,0.0,0.0,0.0,0.0,0.0,0.0,0.0,0.0,0.0,0.0,0.0,0.0,0.0,0.0,0.0,0.0,0.0,0.0,0.0,0.0,0.0,0.0,0.0,0.0,0.0,0.0,2.0089,0.0,0.0,0.0,0.0,0.0,1.98,2.005,2.0224,2.0224,2.0535,2.0726,2.0726,2.0962,2.1109,2.1109,2.0828,2.0828,2.1109,2.0828,2.0828,2.1109,2.1122,2.1269,2.1569,2.1269,2.1617,2.2392,2.2084,2.185,2.1582,2.1229,2.1122,2.1176,2.1475,2.1408,2.1136,2.1149,2.0744,2.025,2.025,2.0481,2.0739,2.0739,1.9663,1.8084,1.6399,1.4623,1.2832,0.0,0.0,0.0,1.1462,1.1678,1.1895,1.2379,1.2758,1.3016,1.3166,1.3275,1.3478,1.372,1.3673,1.3722,1.405,1.4105,1.4105,1.4098,1.381,1.3585,1.3572,1.3536,1.3434,1.3321,1.1515,1.0274,1.0013,0.8067,0.681,0.662,0.653,0.5499,0.3383,0.1171,0.0,0.0,0.0,0.0,0.0,0.0,0.0,0.0,0.0,0.0,0.0,0.0,0.0,0.0,0.0,0.0,0.0,0.0,0.0,0.0,0.0,0.0,0.0,0.0,0.0,0.0,0.0,0.0,0.0,1.9448,1.9207,1.9099,0.0,0.0,0.0,1.9533,1.9813,2.0107,2.0414,2.0508,2.0641,2.0855,2.0949,2.0989,2.0989,2.1069,2.1109,2.1109,2.1029,2.1029,2.1109,2.1029,2.1029,2.1109,2.1368,2.1502,2.1596,2.1911,2.2071,2.2071,2.1563,2.167,2.2111,2.1403,2.1496,2.2017,2.1716,2.1662,2.1764,2.1977,2.1817,2.1496,2.1496,2.155,2.1622,2.1408,1.9152,1.6528,1.6043,1.3774,1.1306,1.0817,0.0,0.0,0.0,0.0,0.0,1.1901,1.2169,1.2417,1.2637,1.2941,1.3146,1.3193,1.3437,1.362,1.3593,1.3763,1.3831,1.3614,1.3614,1.3546,1.3322,1.1967,1.102,1.0801,0.8939,0.7704,0.7653,0.708,0.6009,0.4349,0.2716,0.1556,0.098,0.032,0.0,0.0,0.0,0.0,0.0,0.0,0.0,0.0,0.0,0.0,0.0,0.0,0.0,0.0,0.0,0.0,0.0,0.0,0.0,0.0,0.0,0.0,0.0,0.0,0.0,0.0,0.0,0.0,1.8958,1.8704,1.8878,1.9092,0.0,0.0,0.0,1.9947,2.0241,2.0494,2.0686,2.0788,2.0922,2.1096,2.1109,2.1109,2.1109,2.1109,2.1109,2.1109,2.0989,2.0989,2.1109,2.0989,2.0989,2.1109,2.1283,2.1395,2.1422,2.1724,2.1844,2.181,2.1309,2.155,2.2231,2.2084,2.2305,2.2792,2.2699,2.2719,2.2752,2.2926,2.2632,2.2164,2.2164,2.2084,2.1943,2.1529,1.9455,1.7012,1.6138,1.3938,1.163,1.0916,1.0752,1.0867,1.1145,0.0,0.0,1.1579,1.1714,1.1887,1.2088,1.2372,1.2642,1.271,1.2996,1.3247,1.322,1.3363,1.3478,1.3492,1.266,1.2032,1.1914,1.0014,0.8621,0.8505,0.6557,0.5289,0.5314,0.4447,0.3336,0.2009,0.0691,0.0,0.0,0.0,0.0,0.0,0.0,0.0,0.0,0.0,0.0,0.0,0.0,0.0,0.0,0.0,0.0,0.0,0.0,0.0,0.0,0.0,0.0,0.0,0.0,0.0,0.0,0.0,0.0,1.9321,1.9065,1.9452,1.9639,1.9116,1.9506,1.984,0.0,1.988,2.0,2.0264,2.0561,2.0753,2.0753,2.0962,2.1109,2.1109,2.1136,2.1162,2.1162,2.1189,2.1189,2.1162,2.0909,2.0913,2.1109,2.0855,2.0855,2.1109,2.1149,2.1149,2.1109,2.1149,2.1283,2.1529,2.1296,2.151,2.2058,2.2859,2.3225,2.3399,2.3955,2.3995,2.3817,2.3884,2.33,2.2565,2.2491,2.2298,2.1904,2.1159,1.9928,1.8332,1.6242,1.4408,1.2724,1.1143,1.0725,1.0826,1.1111,1.107,0.0,1.1287,1.1382,1.1457,1.1592,1.187,1.2166,1.2264,1.2556,1.2813,1.2955,1.3003,1.3044,1.3184,1.1328,0.9891,0.9718,0.7689,0.6307,0.6291,0.4244,0.2968,0.2999,0.1142,0.0,0.0,0.0,0.0,0.0,0.0,0.0,0.0,0.0,0.0,0.0,0.0,0.0,0.0,0.0,0.0,0.0,0.0,0.0,0.0,0.0,0.0,0.0,0.0,0.0,0.0,0.0,0.0,0.0,0.0,1.9401,1.9455,1.9599,1.972,1.984,1.993,2.0037,2.0117,2.0117,2.0361,2.0615,2.0909,2.0989,2.1029,2.1029,2.1082,2.1109,2.1109,2.1336,2.1502,2.1502,2.1729,2.171,2.1502,2.1448,2.1328,2.1109,2.1056,2.1056,2.1109,2.1381,2.1368,2.1122,2.1395,2.1395,2.1229,2.1643,2.1884,2.2004,2.2178,2.2832,2.3736,2.3843,2.3857,2.387,2.4302,2.4048,2.3509,2.3233,2.2792,2.2044,2.0429,1.8586,1.6647,1.4563,1.2855,1.1487,1.1002,1.0989,1.1063,1.0968,1.1117,0.0,1.1043,1.1279,1.1586,1.1577,1.1952,1.2257,1.2284,1.2725,1.3017,1.2807,1.2976,1.2583,1.0924,1.0191,0.918,0.7413,0.5282,0.3902,0.3828,0.1871,0.0642,0.0644,0.0241,0.0,0.0,0.0,0.0,0.0,0.0,0.0,0.0,0.0,0.0,0.0,0.0,0.0,0.0,0.0,0.0,0.0,0.0,0.0,0.0,0.0,0.0,0.0,0.0,0.0,0.0,0.0,0.0,0.0,1.9401,1.9508,1.9626,1.9773,2.004,2.0281,2.0428,2.0454,2.0508,2.0624,2.0802,2.0949,2.1096,2.1243,2.1368,2.1368,2.147,2.155,2.155,2.1716,2.1796,2.1796,2.1943,2.1957,2.181,2.1796,2.1729,2.155,2.155,2.147,2.1336,2.1515,2.1422,2.1122,2.1269,2.1256,2.1136,2.1609,2.189,2.2044,2.2792,2.3541,2.4235,2.4529,2.4767,2.4914,2.5024,2.4703,2.4115,2.3492,2.322,2.2807,2.1289,1.9083,1.6785,1.5441,1.3237,1.1179,1.1077,1.1104,1.12,1.1165,1.1137,0.0,0.0,1.1118,1.1158,1.1232,1.1428,1.1667,1.1816,1.2088,1.2008,1.1083,1.1005,1.0036,0.7066,0.7521,0.7342,0.5209,0.2988,0.1639,0.1542,0.0623,0.0,0.0,0.0,0.0,0.0,0.0,0.0,0.0,0.0,0.0,0.0,0.0,0.0,0.0,0.0,0.0,0.0,0.0,0.0,0.0,0.0,0.0,0.0,0.0,0.0,0.0,0.0,0.0,0.0,0.0,0.0,0.0,1.9481,1.9639,1.984,1.9947,2.0391,2.0726,2.0779,2.0793,2.0869,2.1162,2.1189,2.1216,2.1269,2.1529,2.1743,2.1917,2.1984,2.2058,2.2231,2.2138,2.2071,2.2071,2.2124,2.2124,2.2071,2.2017,2.1951,2.193,2.1844,2.1729,2.1502,2.1555,2.1462,2.1203,2.1256,2.1283,2.1296,2.1622,2.1917,2.2271,2.3647,2.4315,2.4506,2.5184,2.5571,2.5797,2.5585,2.5173,2.4639,2.3825,2.3479,2.3122,2.168,1.9267,1.684,1.5929,1.3618,1.1363,1.1336,1.1349,1.1383,1.1416,1.1266,1.1124,0.0,0.0,0.0,1.0941,1.1002,1.1117,1.1389,1.1213,1.062,0.9342,0.8738,0.724,0.3761,0.4761,0.5075,0.2985,0.1111,0.0,0.0,0.0,0.0,0.0,0.0,0.0,0.0,0.0,0.0,0.0,0.0,0.0,0.0,0.0,0.0,0.0,0.0,0.0,0.0,0.0,0.0,0.0,0.0,0.0,0.0,0.0,0.0,0.0,0.0,0.0,0.0,0.0,0.0,0.0,1.9746,1.9773,1.996,2.0481,2.0659,2.0793,2.1015,2.1056,2.1162,2.1502,2.1529,2.1636,2.1857,2.1911,2.2258,2.306,2.2432,2.2325,2.3092,2.2638,2.2331,2.2331,2.2653,2.2666,2.2378,2.2111,2.189,2.1636,2.1336,2.1189,2.1162,2.1462,2.1569,2.1542,2.181,2.1884,2.1911,2.2191,2.2485,2.288,2.3821,2.4075,2.3968,2.4847,2.5181,2.5248,2.5438,2.5464,2.5317,2.4653,2.3298,2.1451,1.9105,1.6913,1.4807,1.2918,1.218,1.1968,1.1789,1.1857,1.1941,1.1653,1.1769,1.1769,1.1083,0.0,1.1443,1.1227,0.0,1.1516,1.1586,0.0,0.0,0.9012,0.7734,0.5925,0.3458,0.3351,0.2721,0.0636,0.0152,0.0,0.0,0.0,0.0,0.0,0.0,0.0,0.0,0.0,0.0,0.0,0.0,0.0,0.0,0.0,0.0,0.0,0.0,0.0,0.0,0.0,0.0,0.0,0.0,0.0,0.0,0.0,0.0,0.0,0.0,0.0,0.0,0.0,0.0,0.0,2.0024,2.0187,2.0388,2.0659,2.0815,2.0962,2.1096,2.1256,2.1448,2.1569,2.1729,2.1943,2.2205,2.2552,2.2913,2.3265,2.33,2.3287,2.3292,2.3052,2.2905,2.2905,2.292,2.292,2.2905,2.2645,2.2385,2.2058,2.1924,2.1697,2.1395,2.1529,2.1582,2.1582,2.1716,2.1863,2.2017,2.2485,2.2786,2.2974,2.3848,2.4235,2.4369,2.5288,2.573,2.5852,2.5972,2.5919,2.5551,2.3846,2.2636,2.1381,1.8721,1.6619,1.4923,1.3901,1.2889,1.2084,1.1979,1.205,1.207,1.1948,1.1843,1.1721,1.1374,1.1348,1.1341,1.1301,0.0,0.0,0.0,0.0,0.0,0.0,0.6432,0.4878,0.1738,0.129,0.0992,0.0116,0.0,0.0,0.0,0.0,0.0,0.0,0.0,0.0,0.0,0.0,0.0,0.0,0.0,0.0,0.0,0.0,0.0,0.0,0.0,0.0,0.0,0.0,0.0,0.0,0.0,0.0,0.0,0.0,0.0,0.0,0.0,0.0,0.0,0.0,0.0,0.0,2.0424,2.0588,2.0726,2.0806,2.0962,2.1109,2.1109,2.1395,2.1609,2.1689,2.2024,2.2365,2.2752,2.3439,2.3986,2.4226,2.4596,2.4623,2.4195,2.3825,2.3585,2.346,2.3268,2.318,2.3292,2.302,2.2706,2.2298,2.2298,2.2084,2.1703,2.1703,2.1783,2.1943,2.1943,2.2104,2.2392,2.2934,2.3241,2.3407,2.4142,2.4716,2.517,2.5784,2.6172,2.6386,2.6386,2.5885,2.4905,2.3045,2.1528,2.0088,1.8005,1.6057,1.4546,1.4303,1.3289,1.222,1.222,1.222,1.22,1.2118,1.1934,1.1708,1.1586,1.1416,1.1356,1.143,1.1279,0.0,0.0,0.0,0.9385,0.6166,0.0,0.3765,0.0453,0.0,0.0,0.0,0.0,0.0,0.0,0.0,0.0,0.0,0.0,0.0,0.0,0.0,0.0,0.0,0.0,0.0,0.0,0.0,0.0,0.0,0.0,0.0,0.0,0.0,0.0,0.0,0.0,0.0,0.0,0.0,0.0,0.0,0.0,0.0,0.0,0.0,0.0,0.0,2.1029,2.0869,2.0762,2.1042,2.1096,2.1109,2.1109,2.1395,2.1689,2.1937,2.2505,2.3094,2.3696,2.4756,2.5785,2.66,2.6466,2.6306,2.6293,2.5224,2.4342,2.3817,2.3777,2.3607,2.3305,2.302,2.2612,2.2004,2.2004,2.1991,2.201,2.201,0.0,0.0,2.2853,2.2993,2.3265,2.3607,2.4062,2.4572,2.493,2.5571,2.6306,2.6091,2.6172,2.6386,2.6386,2.4999,2.3133,2.2795,1.9961,1.6501,1.6007,1.4454,1.2763,1.2606,1.2526,1.2488,1.2488,1.2488,1.242,1.2173,1.2091,1.1968,1.1497,1.1504,1.1606,1.1577,1.1678,1.1766,1.178,1.0392,0.0,0.0,0.0,0.0,0.0,0.0,0.0,0.0,0.0,0.0,0.0,0.0,0.0,0.0,0.0,0.0,0.0,0.0,0.0,0.0,0.0,0.0,0.0,0.0,0.0,0.0,0.0,0.0,0.0,0.0,0.0,0.0,0.0,0.0,0.0,0.0,0.0,0.0,0.0,0.0,0.0,0.0,0.0,0.0,2.1096,2.1029,2.0989,2.1096,2.1109,2.1176,2.1408,2.1689,2.2398,2.3848,2.4369,2.5211,2.68,2.7495,2.7921,2.8228,2.8161,2.7816,2.7014,2.6226,0.0,2.5275,2.4649,2.4382,0.0,2.3843,2.3201,2.2599,2.2365,2.2178,2.1991,2.2178,0.0,0.0,2.3322,2.3562,2.3661,2.4379,2.4636,2.4653,2.5384,2.6066,2.6667,2.656,2.6466,2.6255,2.4974,2.3937,2.2636,1.9685,1.7643,1.6118,1.4567,1.3549,1.2854,1.2698,1.2725,1.2779,1.2684,1.2725,1.2771,1.2427,1.2284,1.2121,1.1762,1.1685,1.1719,1.1719,1.1877,1.1986,1.1986,1.0369,0.0,0.0,0.0,0.0,0.0,0.0,0.0,0.0,0.0,0.0,0.0,0.0,0.0,0.0,0.0,0.0,0.0,0.0,0.0,0.0,0.0,0.0,0.0,0.0,0.0,0.0,0.0,0.0,0.0,0.0,0.0,0.0,0.0,0.0,0.0,0.0,0.0,0.0,0.0,0.0,0.0,0.0,0.0,0.0,2.1109,2.1109,2.1109,2.1109,2.1203,2.1368,2.1555,2.2465,2.3567,2.4903,2.5972,2.7161,2.8604,2.9299,2.9615,2.9615,2.986,2.9339,2.7843,2.7589,0.0,2.6185,2.5758,2.5464,0.0,0.0,0.0,0.0,2.3046,2.2899,2.2653,2.2806,0.0,0.0,2.3736,2.391,2.387,2.474,2.5024,2.4949,2.5024,2.4809,2.4446,2.46,2.4982,2.5137,2.3092,2.1679,2.0382,1.7538,1.6049,1.5064,1.3635,1.3152,1.305,1.2854,1.2881,1.2982,1.284,1.2888,1.2941,1.2644,1.2515,1.2379,1.2128,1.207,1.191,1.1096,1.1087,1.0956,1.0171,0.8926,0.0,0.0,0.0,0.0,0.0,0.0,0.0,0.0,0.0,0.0,0.0,0.0,0.0,0.0,0.0,0.0,0.0,0.0,0.0,0.0,0.0,0.0,0.0,0.0,0.0,0.0,0.0,0.0,0.0,0.0,0.0,0.0,0.0,0.0,0.0,0.0,0.0,0.0,0.0,0.0,0.0,0.0,0.0,0.0,2.1109,2.1122,2.1136,2.1136,2.1395,2.1596,2.1649,2.3629,2.5117,2.5275,2.7281,2.8871,2.9175,3.0261,3.0942,3.0942,3.1423,3.0902,2.8938,2.9285,0.0,0.0,2.7108,2.68,2.5665,0.0,0.0,0.0,0.0,2.4102,2.387,2.3857,0.0,0.0,2.4142,2.4115,2.391,2.4807,2.5228,2.524,2.3812,2.1995,2.0177,2.0505,2.1714,2.3033,2.0755,1.8518,1.6591,1.6508,1.5085,1.339,1.3241,1.3234,1.3207,1.3064,1.303,1.303,1.3023,1.3023,1.2989,1.28,1.2713,1.2665,1.24,1.2435,1.1893,0.9669,0.9357,0.8802,0.668,0.624,0.5494,0.0,0.0,0.0,0.0283,0.0,0.0,0.0,0.0,0.0,0.0,0.0,0.0,0.0,0.0,0.0,0.0,0.0,0.0,0.0,0.0,0.0,0.0,0.0,0.0,0.0,0.0,0.0,0.0,0.0,0.0,0.0,0.0,0.0,0.0,0.0,0.0,0.0,0.0,0.0,0.0,0.0,0.0,0.0,2.1109,2.1283,2.1475,2.1475,2.1529,2.181,2.2465,2.4017,2.5718,2.7468,2.9366,3.0996,3.2158,3.2772,3.3093,3.3093,3.2812,3.238,3.1631,0.0,0.0,2.9423,2.8644,2.8016,2.7523,2.6613,2.5879,2.5315,0.0,2.4823,2.478,2.4516,2.4372,0.0,2.5184,2.5104,2.4489,2.5585,2.5087,2.3389,2.1534,2.0735,2.042,1.8691,1.8454,1.9,1.8363,1.7646,1.6734,1.5063,1.407,1.3524,1.3526,1.3512,1.3485,1.3336,1.337,1.3431,1.3315,1.3288,1.3275,1.3241,1.3064,1.2489,1.0759,1.03,0.9588,0.7326,0.7088,0.7131,0.6551,0.5164,0.3925,0.3398,0.0,0.0,0.0071,0.0,0.0,0.0,0.0,0.0,0.0,0.0,0.0,0.0,0.0,0.0,0.0,0.0,0.0,0.0,0.0,0.0,0.0,0.0,0.0,0.0,0.0,0.0,0.0,0.0,0.0,0.0,0.0,0.0,0.0,0.0,0.0,0.0,0.0,0.0,0.0,0.0,0.0,0.0,2.1328,2.1643,2.201,2.2131,2.2693,2.3295,2.379,2.4793,2.6266,2.8511,3.0327,3.173,3.2559,3.3507,3.4028,3.3895,3.3574,3.3129,3.2447,3.2131,0.0,3.0453,2.9847,2.9179,2.8406,2.7349,0.0,2.6185,0.0,2.5331,2.5489,2.5024,2.4719,2.4626,2.5424,2.5411,2.4815,2.4906,2.3189,2.0272,1.9129,1.8349,0.0,1.6399,1.5986,1.6115,1.6115,1.5909,1.5488,1.4223,1.3747,1.368,1.368,1.368,1.366,1.362,1.3612,1.366,1.362,1.3551,1.3551,1.3551,1.2708,1.1464,1.0211,0.9049,0.7599,0.5336,0.4994,0.4824,0.3848,0.2662,0.1861,0.1897,0.0826,0.0,0.0,0.0,0.0,0.0,0.0,0.0,0.0,0.0,0.0,0.0,0.0,0.0,0.0,0.0,0.0,0.0,0.0,0.0,0.0,0.0,0.0,0.0,0.0,0.0,0.0,0.0,0.0,0.0,0.0,0.0,0.0,0.0,0.0,-0.0084,-0.1093,-0.2107,-0.3,-0.3,-0.173,0.0,2.1689,2.2138,2.2619,2.2907,2.4218,2.5277,2.5504,2.6145,2.7215,2.9095,3.0915,3.2024,3.2024,3.3427,3.4255,3.3975,3.3908,3.344,3.2398,3.2772,3.2332,3.0814,3.0835,3.0261,2.8871,2.7923,2.7148,0.0,0.0,2.5812,2.6091,2.5462,2.5024,2.4799,2.5344,2.5272,2.4732,2.3245,2.0467,1.6977,1.6757,1.563,1.4159,1.4224,1.4285,1.4299,1.4299,1.4129,1.3856,1.3856,1.3842,1.3829,1.3829,1.3829,1.3829,1.3829,1.3829,1.3829,1.3829,1.3594,1.3366,1.3343,1.1595,0.9774,0.9482,0.7773,0.5651,0.3407,0.2954,0.233,0.0356,0.0,0.0,0.0,0.0,0.0,0.0,0.0,0.0,0.0,0.0,0.0,0.0,0.0,0.0,0.0,0.0,0.0,0.0,0.0,0.0,0.0,0.0,0.0,0.0,0.0,0.0,0.0,0.0,0.0,0.0,0.0,0.0,0.0,0.0,-0.0167,-0.0421,-0.0421,-0.0631,-0.1093,-0.3065,-0.5106,-0.689,-0.688,-0.4362,-0.0929,2.2218,2.2752,2.3145,2.3233,2.4663,2.6332,2.7762,2.8898,3.0025,3.1062,3.2759,3.3855,3.3855,3.4349,3.4563,3.4269,3.4028,3.3801,3.3587,3.3427,3.3093,3.2594,3.1925,3.1062,3.0119,2.8951,2.8083,0.0,0.0,2.6613,2.6653,2.5825,2.5545,2.577,2.5877,2.4933,2.3144,2.1043,1.8727,1.6402,1.486,1.4242,1.4251,1.415,1.419,1.4299,1.4299,1.4265,1.4217,1.4217,1.4136,1.4034,1.4034,1.4034,1.4034,1.4034,1.4034,1.4034,1.4034,1.2496,1.0961,1.1058,0.9186,0.6899,0.5168,0.4368,0.3319,0.1054,0.0584,0.0493,0.008,0.0,0.0,0.0,0.0,0.0,0.0,0.0,0.0,0.0,0.0,0.0,0.0,0.0,0.0,0.0,0.0,0.0,0.0,0.0,0.0,0.0,0.0,0.0,0.0,0.0,0.0,0.0,0.0,0.0,0.0,0.0,0.0,0.0,0.0,-0.1049,-0.2729,-0.2771,-0.386,-0.5574,-0.5951,-0.645,-0.6884,-0.6783,-0.6365,-0.5845,2.306,2.3474,2.3576,2.2992,2.5372,2.7438,2.7661,3.0002,3.1751,3.1724,3.2412,3.2946,3.2946,3.3895,3.4416,3.4122,3.3961,3.3881,3.3881,3.3587,3.328,3.2986,3.2278,3.1476,3.0654,2.9285,2.8457,2.8177,0.0,2.668,2.676,2.5919,2.5504,2.5504,2.4508,2.3057,2.1217,1.8934,1.6874,1.4959,1.4083,1.3923,1.4292,1.4217,1.4238,1.4299,1.4299,1.4299,1.4299,1.4299,1.4251,1.419,1.419,1.419,1.3964,1.2721,1.232,1.2056,1.0812,0.958,0.8671,0.8717,0.6892,0.4809,0.3815,0.259,0.1343,0.0215,0.0,0.0,0.0,0.0,0.0,0.0,0.0,0.0,0.0,0.0,0.0,0.0,0.0,0.0,0.0,0.0,0.0,0.0,0.0,0.0,0.0,0.0,0.0,0.0,0.0,0.0,0.0,0.0,0.0,0.0,0.0,0.0,0.0,0.0,0.0,-0.0084,-0.122,-0.2352,-0.3441,-0.4612,-0.6411,-0.8415,-0.8415,-0.9258,-1.0449,-1.034,-1.0487,-1.0345,2.3518,2.3732,2.3517,2.229,2.5501,2.7725,2.6271,3.0049,3.2853,3.2273,3.2193,3.2206,3.2273,3.348,3.4202,3.3908,3.3881,3.3855,3.3788,3.3547,3.3307,3.308,3.2505,3.1784,3.0902,2.9513,2.8671,0.0,0.0,2.66,2.6627,2.5932,2.5182,2.4386,2.2961,2.1146,1.899,1.7266,1.5456,1.3754,1.3788,1.3984,1.4299,1.4299,1.4299,1.4299,1.4299,1.4299,1.4299,1.4299,1.4299,1.4299,1.4299,1.3938,1.3179,1.125,1.0357,0.9513,0.764,0.6745,0.6344,0.6344,0.4561,0.2821,0.2821,0.1378,0.0,0.0,0.0,0.0,0.0,0.0,0.0,0.0,0.0,0.0,0.0,0.0,0.0,0.0,0.0,0.0,0.0,0.0,0.0,0.0,0.0,0.0,0.0,0.0,0.0,0.0,0.0,0.0,0.0,0.0,0.0,0.0,0.0,0.0,0.0,0.0,0.0,-0.0084,-0.186,-0.3169,-0.4349,-0.7084,-0.923,-1.0791,-1.0791,-1.2071,-1.3829,-1.3687,-1.3865,-1.3576,2.2859,2.286,2.2501,2.0883,2.4162,2.6189,2.356,2.8969,3.344,3.3654,3.3681,3.3788,3.4042,3.4215,3.4202,3.3908,3.3881,3.3761,3.3467,3.3427,3.34,3.3374,3.2862,3.2139,3.1162,3.002,2.8871,0.0,0.0,2.6827,2.6078,2.5998,2.4624,2.2293,2.2416,2.0256,1.6554,1.6478,1.5352,1.3619,1.3747,1.3984,1.4299,1.4299,1.4299,1.4299,1.4299,1.4299,1.4299,1.4299,1.4299,1.4299,1.4299,1.2819,1.0984,1.0762,0.9153,0.7372,0.7146,0.5544,0.3938,0.3938,0.2106,0.0359,0.0359,0.0178,0.0,0.0,0.0,0.0,0.0,0.0,0.0,0.0,0.0,0.0,0.0,0.0,0.0,0.0,0.0,0.0,0.0,0.0,0.0,0.0,0.0,0.0,0.0,0.0,0.0,0.0,0.0,0.0,0.0,0.0,0.0,0.0,0.0,0.0,0.0,0.0,0.0,0.0,-0.0216,-0.268,-0.6901,-1.1336,-1.3278,-1.3455,-1.3455,-1.3684,-1.4034,-1.3835,-1.3971,-1.4187,2.1442,2.1357,2.0988,1.9742,2.2244,2.3806,2.1946,2.5525,2.8529,2.8683,3.0095,3.1794,3.3559,3.2277,3.1921,3.3463,3.3601,3.3547,3.3414,3.3414,3.3414,3.3414,3.2902,3.234,3.1757,2.9144,2.8144,0.0,0.0,0.0,2.6466,2.4864,2.2633,1.993,1.8795,1.7449,1.5875,1.4903,1.4126,1.3605,1.3885,1.4109,1.4299,1.4299,1.4299,1.4299,1.4299,1.4299,1.4299,1.4299,1.4299,1.4033,1.2597,1.1477,1.0135,0.7283,0.5767,0.4695,0.3224,0.215,0.1434,0.1434,0.0718,0.0,0.0,0.0,0.0,0.0,0.0,0.0,0.0,0.0,0.0,0.0,0.0,0.0,0.0,0.0,0.0,0.0,0.0,0.0,0.0,0.0,0.0,0.0,0.0,0.0,0.0,0.0,0.0,0.0,0.0,0.0,0.0,0.0,0.0,0.0,0.0,0.0,0.0,0.0,-0.151,-0.422,-0.5658,-0.8086,-1.1197,-1.306,-1.3795,-1.3795,-1.3795,-1.3933,-1.4098,-1.3856,-1.398,-1.4136,2.013,2.0036,1.9607,1.8391,2.0425,2.167,1.9914,2.282,2.4906,2.4084,2.5676,2.7935,3.0685,2.9256,2.8901,3.0849,3.1,3.1,3.1,3.1,3.1,3.1,3.0553,3.0486,3.0873,2.7404,2.6497,2.8357,2.5145,0.0,2.4662,2.2672,2.0341,1.7769,1.6332,1.5464,1.5035,1.3805,1.3485,1.3777,1.3987,1.4163,1.4299,1.4299,1.4299,1.4299,1.4299,1.385,1.3224,1.3224,1.2774,1.2015,1.1028,0.9735,0.7951,0.4606,0.3089,0.215,0.0449,0.0,0.0,0.0,0.0,0.0,0.0,0.0,0.0,0.0,0.0,0.0,0.0,0.0,0.0,0.0,0.0,0.0,0.0,0.0,0.0,0.0,0.0,0.0,0.0,0.0,0.0,0.0,0.0,0.0,0.0,0.0,0.0,0.0,0.0,0.0,0.0,0.0,0.0,0.0,0.0,0.0,-0.0044,-0.0742,-0.2837,-0.6115,-0.9209,-1.1438,-1.2922,-1.3671,-1.393,-1.393,-1.393,-1.4041,-1.4129,-1.4014,-1.4041,-1.4122,1.9187,1.8942,1.8398,1.6807,1.8962,1.9995,1.7155,2.1543,2.4238,2.1518,2.1155,2.2235,2.5009,2.5266,2.5266,2.5317,2.5317,2.5317,2.5317,2.5317,2.5317,2.5317,2.5033,2.585,2.801,2.4753,2.3889,2.5642,0.0,2.086,1.9765,1.9273,1.7965,1.605,1.6123,1.5145,1.3445,1.3559,1.3797,1.4112,1.4112,1.4163,1.4299,1.4299,1.4299,1.4299,1.4299,1.2774,1.0762,1.0762,0.9153,0.7595,0.9957,0.7458,0.3669,0.3625,0.1926,0.0045,0.0,0.0,0.0,0.0,0.0,0.0,0.0,0.0,0.0,0.0,0.0,0.0,0.0,0.0,0.0,0.0,0.0,0.0,0.0,0.0,0.0,0.0,0.0,0.0,0.0,0.0,0.0,0.0,0.0,0.0,0.0,0.0,0.0,0.0,0.0,0.0,0.0,0.0,0.0,0.0,0.0,0.0,-0.0088,-0.2468,-0.3588,-0.3891,-0.8659,-1.0712,-1.0934,-1.3306,-1.4292,-1.4292,-1.4292,-1.4292,-1.4299,-1.4292,-1.4299,-1.4299,1.693,1.7024,1.6971,1.6571,1.7359,1.7752,1.7047,1.844,1.9305,1.8424,1.8327,1.8634,1.9514,2.1259,2.3165,2.5061,2.5215,2.5215,2.5215,2.5215,2.5215,2.5215,2.4931,2.5081,2.5589,2.2564,2.183,2.3712,2.0788,1.8902,1.8064,1.7722,1.6351,1.423,1.4356,1.409,1.3531,1.3824,1.3987,1.4125,1.4183,1.4258,1.4299,1.4299,1.4299,1.4299,1.4299,1.273,1.0717,1.0717,0.804,0.4829,0.5633,0.4829,0.3268,0.1614,0.0583,0.0,0.0,0.0,0.0,0.0,0.0,0.0,0.0,0.0,0.0,0.0,0.0,0.0,0.0,0.0,0.0,0.0,0.0,0.0,0.0,0.0,0.0,0.0,0.0,0.0,0.0,0.0,0.0,0.0,0.0,0.0,0.0,0.0,0.0,0.0,0.0,0.0,0.0,0.0,0.0,0.0,0.0,-0.0845,-0.2585,-0.6624,-0.8457,-0.8619,-1.1788,-1.3135,-1.3224,-1.3989,-1.4299,-1.4299,-1.4299,-1.4299,-1.4299,-1.4299,-1.4299,-1.4299,1.6178,1.6341,1.6503,1.654,1.6635,1.6709,1.6802,1.6809,1.6829,1.689,1.6842,1.6849,1.6971,1.8477,2.0155,2.1976,2.2131,2.2131,2.2131,2.2131,2.2131,2.2131,2.1955,2.222,2.2945,2.0099,1.9532,2.1479,1.8384,1.6625,1.6188,1.5859,1.4947,1.3573,1.3729,1.3797,1.381,1.4055,1.42,1.4163,1.4265,1.4299,1.4299,1.4299,1.4333,1.4247,1.3299,1.1453,0.9299,0.8355,0.5473,0.224,0.224,0.224,0.1971,0.0449,0.0,0.0,0.0,0.0,0.0,0.0,0.0,0.0,0.0,0.0,0.0,0.0,0.0,0.0,0.0,0.0,0.0,0.0,0.0,0.0,0.0,0.0,0.0,0.0,0.0,0.0,0.0,0.0,0.0,0.0,0.0,0.0,0.0,0.0,0.0,0.0,0.0,0.0,0.0,0.0,-0.0436,-0.1368,-0.2228,-0.3446,-0.5053,-0.893,-1.0717,-1.0851,-1.3268,-1.4299,-1.4299,-1.4299,-1.4299,-1.4299,-1.4299,-1.4299,-1.4299,-1.4299,-1.4299,-1.4299,1.6655,1.6689,1.6696,1.6682,1.6702,1.6662,1.6558,1.6486,1.6533,1.6675,1.6574,1.6639,1.6917,1.6836,1.677,1.6951,1.6978,1.6978,1.6978,1.6978,1.6978,1.6978,1.6971,1.7951,2.0098,1.7632,1.7181,1.9047,1.5903,1.4333,1.4306,1.3971,1.3829,1.3835,1.4021,1.4132,1.4139,1.4238,1.4299,1.4299,1.4299,1.4299,1.4299,1.4312,1.426,1.3925,1.1573,0.9174,0.677,0.4412,0.1992,0.0,0.0,0.0,0.0,0.0,0.0,0.0,0.0,0.0,0.0,0.0,0.0,0.0,0.0,0.0,0.0,0.0,0.0,0.0,0.0,0.0,0.0,0.0,0.0,0.0,0.0,0.0,0.0,0.0,0.0,0.0,0.0,0.0,0.0,0.0,0.0,0.0,0.0,0.0,0.0,0.0,0.0,-0.0083,-0.0253,-0.0261,-0.1457,-0.3879,-0.6228,-0.7369,-0.7413,-0.9869,-1.0939,-1.1072,-1.3312,-1.4299,-1.4299,-1.4299,-1.4299,-1.4299,-1.4299,-1.4299,-1.4299,-1.4299,-1.4299,-1.4299,1.652,1.6615,1.6662,1.6598,1.6768,1.6876,1.6669,1.6642,1.6655,1.6696,1.6669,1.6628,1.6632,1.6809,1.6897,1.6757,1.691,1.6978,1.6978,1.6978,1.6978,1.6978,1.687,1.6972,1.7429,1.6685,1.6305,1.6302,1.5329,1.4692,1.4455,1.4278,1.419,1.419,1.4231,1.4245,1.4251,1.4285,1.4299,1.4299,1.4299,1.4299,1.4312,1.4421,1.3259,1.1527,1.1023,0.8121,0.4414,0.3818,0.1977,0.0,0.0,0.0,0.0,0.0,0.0,0.0,0.0,0.0,0.0,0.0,0.0,0.0,0.0,0.0,0.0,0.0,0.0,0.0,0.0,0.0,0.0,0.0,0.0,0.0,0.0,0.0,0.0,0.0,0.0,0.0,0.0,0.0,0.0,0.0,0.0,0.0,0.0,0.0,0.0,0.0,0.0,-0.0899,-0.2746,-0.2766,-0.3935,-0.6323,-0.8696,-0.9869,-0.9913,-1.237,-1.3445,-1.3489,-1.4033,-1.4299,-1.4299,-1.4299,-1.4299,-1.4299,-1.4299,-1.4299,-1.4299,-1.4299,-1.4299,-1.4299,1.6734,1.6795,1.6809,1.6601,1.6707,1.672,1.652,1.649,1.6469,1.6486,1.6439,1.6463,1.6466,1.6673,1.6734,1.6601,1.6849,1.6978,1.6978,1.6917,1.6904,1.6978,1.6836,1.6628,1.6524,1.6442,1.6117,1.5465,1.5215,1.495,1.4719,1.457,1.4502,1.4496,1.4428,1.4394,1.4394,1.4326,1.434,1.4394,1.4394,1.4394,1.4274,1.3237,1.2006,1.0518,0.8362,0.5894,0.3532,0.2326,0.1068,0.0,0.0,0.0,0.0,0.0,0.0,0.0,0.0,0.0,0.0,0.0,0.0,0.0,0.0,0.0,0.0,0.0,0.0,0.0,0.0,0.0,0.0,0.0,0.0,0.0,0.0,0.0,0.0,0.0,0.0,0.0,0.0,0.0,0.0,0.0,0.0,0.0,0.0,0.0,-0.0511,-0.1611,-0.1663,-0.2788,-0.5193,-0.6277,-0.7507,-0.8797,-1.1206,-1.237,-1.237,-1.3717,-1.4299,-1.4299,-1.4299,-1.4299,-1.4299,-1.4299,-1.4299,-1.4299,-1.4299,-1.4299,-1.4299,-1.4299,-1.4299,-1.4299,1.6978,1.6978,1.6931,1.6723,1.6608,1.6544,1.6395,1.6246,1.6191,1.6327,1.6212,1.6205,1.6429,1.6497,1.651,1.649,1.6768,1.6944,1.6944,1.6842,1.6842,1.6978,1.6809,1.6601,1.6524,1.6476,1.6134,1.5593,1.5357,1.5133,1.5017,1.4814,1.4694,1.4687,1.4559,1.455,1.4536,1.4421,1.4434,1.455,1.455,1.4318,1.3739,1.1719,1.0473,0.9241,0.5097,0.3475,0.2913,0.0707,0.0,0.0,0.0,0.0,0.0,0.0,0.0,0.0,0.0,0.0,0.0,0.0,0.0,0.0,0.0,0.0,0.0,0.0,0.0,0.0,0.0,0.0,0.0,0.0,0.0,0.0,0.0,0.0,0.0,0.0,0.0,0.0,0.0,0.0,0.0,0.0,0.0,0.0,0.0,-0.0343,-0.164,-0.406,-0.3784,-0.4897,-0.7622,-1.0047,-1.125,-1.125,-1.3312,-1.4299,-1.4299,-1.4299,-1.4299,-1.4299,-1.4299,-1.4299,-1.4299,-1.4299,-1.4299,-1.4299,-1.4299,-1.4299,-1.4299,-1.4299,-1.4299,-1.4299,1.6978,1.6978,1.6931,1.6723,1.6836,1.6856,1.6655,1.65,1.6463,1.6483,1.6361,1.6246,1.6157,1.6374,1.6476,1.6354,1.6612,1.6736,1.6736,1.6883,1.6958,1.6978,1.6707,1.6493,1.6524,1.6279,1.5981,1.5593,1.5459,1.5235,1.5017,1.4814,1.4694,1.4694,1.4667,1.466,1.466,1.4633,1.464,1.466,1.466,1.3366,1.1445,1.1238,0.849,0.4632,0.4017,0.2422,0.0524,0.0144,0.0,0.0,0.0,0.0,0.0,0.0,0.0,0.0,0.0,0.0,0.0,0.0,0.0,0.0,0.0,0.0,0.0,0.0,0.0,0.0,0.0,0.0,0.0,0.0,0.0,0.0,0.0,0.0,0.0,0.0,0.0,0.0,0.0,0.0,0.0,0.0,0.0,0.0,0.0,-0.1921,-0.4122,-0.646,-0.4651,-0.5709,-1.0111,-1.2541,-1.3761,-1.3761,-1.4122,-1.4299,-1.4299,-1.4299,-1.4299,-1.4299,-1.4299,-1.4299,-1.4299,-1.4299,-1.4299,-1.4299,-1.4299,-1.4299,-1.4299,-1.4299,-1.4299,-1.4299,1.6978,1.6978,1.6931,1.6723,1.6741,1.6686,1.6537,1.6381,1.6286,1.6286,1.63,1.6252,1.6096,1.6347,1.6463,1.632,1.6527,1.6662,1.6581,1.6693,1.6768,1.6856,1.6639,1.6524,1.6524,1.6313,1.6056,1.5757,1.5608,1.5466,1.5323,1.5086,1.5025,1.5046,1.4936,1.4862,1.4862,1.4728,1.4789,1.497,1.4896,1.3367,1.101,0.9749,0.6917,0.3455,0.2212,0.1016,0.0,0.0,0.0,0.0,0.0,0.0,0.0,0.0,0.0,0.0,0.0,0.0,0.0,0.0,0.0,0.0,0.0,0.0,0.0,0.0,0.0,0.0,0.0,0.0,0.0,0.0,0.0,0.0,0.0,0.0,0.0,0.0,0.0,0.0,0.0,0.0,0.0,0.0,0.0,0.0,0.0,-0.2286,-0.4677,-0.7007,-0.8554,-1.0407,-1.2642,-1.3761,-1.4299,-1.4299,-1.4299,-1.4299,-1.4299,-1.4299,-1.4299,-1.4299,-1.4299,-1.4299,-1.4299,-1.4299,-1.4299,-1.4299,-1.4299,-1.4299,-1.4299,-1.4299,-1.3489,-1.237,1.6978,1.6978,1.6944,1.6822,1.6655,1.6592,1.6483,1.6334,1.6239,1.6239,1.6279,1.6266,1.6151,1.6334,1.6415,1.6273,1.6473,1.6567,1.6429,1.6456,1.6486,1.6635,1.6551,1.6469,1.6469,1.6334,1.611,1.5854,1.5689,1.5553,1.5479,1.5296,1.5262,1.5398,1.5174,1.5092,1.512,1.4951,1.5079,1.5228,1.4503,1.2763,1.0278,0.7711,0.5055,0.2544,0.0683,0.0,0.0,0.0,0.0,0.0,0.0,0.0,0.0,0.0,0.0,0.0,0.0,0.0,0.0,0.0,0.0,0.0,0.0,0.0,0.0,0.0,0.0,0.0,0.0,0.0,0.0,0.0,0.0,0.0,0.0,0.0,0.0,0.0,0.0,0.0,0.0,0.0,0.0,0.0,0.0,-0.0266,-0.0798,-0.3095,-0.5762,-0.8659,-1.237,-1.4299,-1.4299,-1.4299,-1.4299,-1.4299,-1.4299,-1.4299,-1.4299,-1.4299,-1.4299,-1.4299,-1.4299,-1.4299,-1.4299,-1.4299,-1.3982,-1.3445,-1.3445,-1.3135,-1.2642,-1.2642,-1.1433,-0.9869,1.6978,1.6978,1.6978,1.6965,1.6951,1.6944,1.6931,1.6802,1.6648,1.6648,1.6469,1.6307,1.6293,1.6313,1.6266,1.611,1.6368,1.6415,1.613,1.6246,1.6388,1.653,1.6402,1.6327,1.6327,1.6178,1.5954,1.5607,1.5593,1.5493,1.5215,1.5194,1.5262,1.5411,1.5391,1.5459,1.5539,1.5526,1.5539,1.536,1.2853,1.032,0.7796,0.508,0.2494,0.0245,0.0049,0.0,0.0,0.0,0.0,0.0,0.0,0.0,0.0,0.0,0.0,0.0,0.0,0.0,0.0,0.0,0.0,0.0,0.0,0.0,0.0,0.0,0.0,0.0,0.0,0.0,0.0,0.0,0.0,0.0,0.0,0.0,0.0,0.0,0.0,0.0,0.0,0.0,0.0,0.0,0.0,-0.0985,-0.3219,-0.558,-0.8966,-1.3622,-1.4122,-1.4299,-1.4299,-1.4299,-1.4299,-1.4299,-1.4299,-1.4299,-1.4299,-1.4299,-1.4299,-1.4299,-1.4299,-1.4299,-1.4299,-1.4299,-1.2996,-1.0984,-1.0984,-0.9602,-0.764,-0.764,-0.7506,-0.7369,1.6978,1.6978,1.6924,1.6727,1.6693,1.6632,1.6449,1.6374,1.6334,1.6334,1.632,1.6307,1.6307,1.6307,1.632,1.6354,1.6374,1.6341,1.6232,1.6361,1.6429,1.6388,1.6517,1.6446,1.6313,1.6252,1.6123,1.5913,1.5681,1.5676,1.5737,1.5452,1.5452,1.5683,1.5594,1.5539,1.5593,1.5593,1.4705,1.3151,1.2039,0.9115,0.5328,0.4198,0.2225,0.0,0.0,0.0,0.0,0.0,0.0,0.0,0.0,0.0,0.0,0.0,0.0,0.0,0.0,0.0,0.0,0.0,0.0,0.0,0.0,0.0,0.0,0.0,0.0,0.0,0.0,0.0,0.0,0.0,0.0,0.0,0.0,0.0,0.0,0.0,0.0,0.0,0.0,0.0,0.0,0.0,0.0,-0.1076,-0.349,-0.7235,-1.0851,-1.421,-1.4299,-1.4299,-1.4299,-1.4299,-1.4299,-1.4299,-1.4299,-1.4299,-1.4299,-1.4299,-1.4299,-1.421,-1.273,-1.2059,-1.1971,-1.0446,-0.9286,-0.8486,-0.8486,-0.7907,-0.7102,-0.7102,-0.6168,-0.4919,1.6978,1.6978,1.6917,1.67,1.6666,1.6598,1.6395,1.6361,1.6361,1.6361,1.6415,1.6449,1.6449,1.6402,1.6395,1.6449,1.6368,1.6286,1.6239,1.6374,1.6429,1.6381,1.6483,1.6469,1.6313,1.6259,1.6164,1.6058,1.5805,1.5791,1.5934,1.5628,1.5615,1.5901,1.575,1.573,1.568,1.4837,1.3502,1.1733,0.9928,0.7126,0.3891,0.2945,0.1499,0.0,0.0,0.0,0.0,0.0,0.0,0.0,0.0,0.0,0.0,0.0,0.0,0.0,0.0,0.0,0.0,0.0,0.0,0.0,0.0,0.0,0.0,0.0,0.0,0.0,0.0,0.0,0.0,0.0,0.0,0.0,0.0,0.0,0.0,0.0,0.0,0.0,0.0,0.0,0.0,0.0,0.0,-0.139,-0.4517,-0.9242,-1.2597,-1.4255,-1.4299,-1.4299,-1.4299,-1.4299,-1.4299,-1.4299,-1.4299,-1.4299,-1.4255,-1.354,-1.3179,-1.3046,-1.0629,-0.9553,-0.942,-0.777,-0.6656,-0.5987,-0.5987,-0.5544,-0.4874,-0.4874,-0.3848,-0.2463,1.6978,1.6978,1.6978,1.6978,1.6978,1.6978,1.6978,1.6978,1.6978,1.6978,1.6842,1.6696,1.6696,1.656,1.6463,1.6327,1.6307,1.6246,1.6096,1.6225,1.6374,1.6517,1.6239,1.6151,1.6307,1.6157,1.6008,1.5901,1.5901,1.5784,1.5593,1.5593,1.5716,1.5901,1.5901,1.594,1.5877,1.3206,1.2048,1.1544,0.6182,0.3976,0.3674,0.1009,0.0,0.0,0.0,0.0,0.0,0.0,0.0,0.0,0.0,0.0,0.0,0.0,0.0,0.0,0.0,0.0,0.0,0.0,0.0,0.0,0.0,0.0,0.0,0.0,0.0,0.0,0.0,0.0,0.0,0.0,0.0,0.0,0.0,0.0,0.0,0.0,0.0,0.0,0.0,0.0,0.0,0.0,-0.0045,-0.2106,-0.6834,-1.1699,-1.4299,-1.4299,-1.4299,-1.4299,-1.4299,-1.4299,-1.4299,-1.4299,-1.4299,-1.4255,-1.421,-1.1788,-1.0673,-1.0535,-0.8129,-0.7057,-0.7057,-0.7057,-0.5678,-0.358,-0.358,-0.2106,0.0,0.0,0.0,0.0,1.6978,1.6978,1.6944,1.6784,1.677,1.6781,1.6673,1.6659,1.6659,1.6659,1.6619,1.6581,1.6682,1.6524,1.6395,1.6456,1.6273,1.6178,1.6239,1.6185,1.6218,1.6368,1.6286,1.6212,1.6151,1.6103,1.6056,1.6064,1.5956,1.5935,1.5947,1.5839,1.5872,1.5965,1.405,1.3272,1.3107,1.0395,0.8138,0.6283,0.4628,0.287,0.111,0.0303,0.0,0.0,0.0,0.0,0.0,0.0,0.0,0.0,0.0,0.0,0.0,0.0,0.0,0.0,0.0,0.0,0.0,0.0,0.0,0.0,0.0,0.0,0.0,0.0,0.0,0.0,0.0,0.0,0.0,0.0,0.0,0.0,0.0,0.0,0.0,0.0,0.0,0.0,0.0,0.0,0.0,0.0,-0.3089,-0.5588,-0.7012,-1.1699,-1.4299,-1.4299,-1.4299,-1.4299,-1.4299,-1.4299,-1.4299,-1.4299,-1.2597,-1.1788,-1.1699,-0.9286,-0.8174,-0.804,-0.5678,-0.4651,-0.4517,-0.2821,-0.1703,-0.1076,-0.1076,-0.0628,0.0,0.0,0.0,0.0,1.6978,1.6978,1.6951,1.6856,1.6842,1.6809,1.672,1.67,1.67,1.67,1.67,1.6714,1.6696,1.654,1.6469,1.6442,1.6218,1.6123,1.6212,1.613,1.6123,1.6218,1.6218,1.6178,1.6083,1.6083,1.6083,1.6083,1.6037,1.6037,1.6083,1.6037,1.5437,1.4464,1.2802,1.1494,1.0295,0.7587,0.5482,0.3926,0.2821,0.1465,0.0,0.0,0.0,0.0,0.0,0.0,0.0,0.0,0.0,0.0,0.0,0.0,0.0,0.0,0.0,0.0,0.0,0.0,0.0,0.0,0.0,0.0,0.0,0.0,0.0,0.0,0.0,0.0,0.0,0.0,0.0,0.0,0.0,0.0,0.0,0.0,0.0,0.0,0.0,0.0,0.0,0.0,-0.0404,-0.1345,-0.4963,-0.7506,-0.8486,-1.2192,-1.4299,-1.4299,-1.4299,-1.385,-1.2907,-1.2863,-1.2863,-1.2863,-1.0446,-0.9286,-0.9197,-0.6793,-0.5722,-0.5588,-0.3224,-0.2195,-0.2061,-0.0583,0.0,0.0,0.0,0.0,0.0,0.0,0.0,0.0,1.6978,1.6978,1.6978,1.6978,1.6978,1.6978,1.6978,1.6978,1.6978,1.6978,1.6978,1.6931,1.6736,1.6709,1.6588,1.6374,1.6212,1.5911,1.5392,1.5598,1.5641,1.5373,1.5373,1.5373,1.5373,1.5827,1.6083,1.6083,1.6083,1.6083,1.6083,1.5827,1.4464,1.2098,1.1594,0.999,0.7487,0.4779,0.3624,0.3423,0.0959,0.0,0.0,0.0,0.0,0.0,0.0,0.0,0.0,0.0,0.0,0.0,0.0,0.0,0.0,0.0,0.0,0.0,0.0,0.0,0.0,0.0,0.0,0.0,0.0,0.0,0.0,0.0,0.0,0.0,0.0,0.0,0.0,0.0,0.0,0.0,0.0,0.0,0.0,0.0,0.0,0.0,0.0,0.0,-0.0897,-0.3134,-0.546,-0.7736,-0.9957,-1.2559,-1.3863,-1.3673,-1.385,-1.2819,-1.0402,-1.018,-1.018,-1.0357,-0.7951,-0.679,-0.67,-0.434,-0.3268,-0.3134,-0.0942,0.0,0.0,0.0,0.0,0.0,0.0,0.0,0.0,0.0,0.0,0.0,1.6978,1.6978,1.6978,1.6978,1.6978,1.6978,1.6978,1.6978,1.6978,1.6978,1.6978,1.6971,1.6937,1.677,1.6669,1.6608,1.6517,1.453,1.0058,1.1878,1.2145,0.9849,0.9744,0.9744,0.9744,1.3916,1.6083,1.6083,1.6083,1.6083,1.6033,1.396,1.2652,1.1898,0.7634,0.5429,0.4678,0.2016,0.0858,0.0808,0.0254,0.0,0.0,0.0,0.0,0.0,0.0,0.0,0.0,0.0,0.0,0.0,0.0,0.0,0.0,0.0,0.0,0.0,0.0,0.0,0.0,0.0,0.0,0.0,0.0,0.0,0.0,0.0,0.0,0.0,0.0,0.0,0.0,0.0,0.0,0.0,0.0,0.0,0.0,0.0,0.0,0.0,0.0,0.0,-0.0224,-0.0762,-0.3023,-0.4602,-0.51,-0.9182,-1.0625,-0.8712,-1.0495,-1.0313,-0.7907,-0.6079,-0.6079,-0.7862,-0.5499,-0.4338,-0.4295,-0.1882,-0.0762,-0.0762,-0.0224,0.0,0.0,0.0,0.0,0.0,0.0,0.0,0.0,0.0,0.0,0.0,1.6978,1.6978,1.6978,1.6978,1.6978,1.6978,1.6978,1.6978,1.6499,1.5113,1.4949,1.4394,1.3017,1.2797,1.2771,1.2719,1.2548,1.1185,0.8204,0.9411,0.9593,0.8041,0.7991,0.7991,0.7991,1.0799,1.2253,1.2253,1.2253,1.2253,1.2203,1.0795,0.944,0.8135,0.5279,0.3273,0.2016,0.0606,0.0,0.0,0.0,0.0,0.0,0.0,0.0,0.0,0.0,0.0,0.0,0.0,0.0,0.0,0.0,0.0,0.0,0.0,0.0,0.0,0.0,0.0,0.0,0.0,0.0,0.0,0.0,0.0,0.0,0.0,0.0,0.0,0.0,0.0,0.0,0.0,0.0,0.0,0.0,0.0,0.0,0.0,0.0,0.0,0.0,0.0,-0.0494,-0.1614,-0.2881,-0.4095,-0.5189,-0.7635,-0.84,-0.7149,-0.8308,-0.7862,-0.5454,-0.4206,-0.3625,-0.3714,-0.2463,-0.1882,-0.1838,-0.0583,0.0,0.0,0.0,0.0,0.0,0.0,0.0,0.0,0.0,0.0,0.0,0.0,0.0,0.0,1.6978,1.6978,1.6978,1.6978,1.6978,1.6978,1.6978,1.6604,1.5428,1.3037,1.2295,1.1046,0.8608,0.8434,0.8269,0.7674,0.7916,0.7683,0.6707,0.7104,0.7151,0.6637,0.6637,0.6637,0.6637,0.6637,0.7089,0.7991,0.7991,0.7991,0.7991,0.754,0.6132,0.3976,0.3523,0.2067,0.0,0.0,0.0,0.0,0.0,0.0,0.0,0.0,0.0,0.0,0.0,0.0,0.0,0.0,0.0,0.0,0.0,0.0,0.0,0.0,0.0,0.0,0.0,0.0,0.0,0.0,0.0,0.0,0.0,0.0,0.0,0.0,0.0,0.0,0.0,0.0,0.0,0.0,0.0,0.0,0.0,0.0,0.0,0.0,0.0,0.0,0.0,0.0,-0.0852,-0.2821,-0.3004,-0.3855,-0.5767,-0.6267,-0.6311,-0.5901,-0.6299,-0.5365,-0.3,-0.3,-0.1971,0.0,0.0,0.0,0.0,0.0,0.0,0.0,0.0,0.0,0.0,0.0,0.0,0.0,0.0,0.0,0.0,0.0,0.0,0.0,1.6978,1.6978,1.6978,1.6978,1.6978,1.6978,1.6978,1.4896,1.3143,1.2769,1.0602,0.8904,0.8523,0.8465,0.7509,0.496,0.7014,0.6319,0.143,0.3364,0.3605,0.1211,0.1059,0.1059,0.1059,0.1059,0.3375,0.7991,0.7991,0.7991,0.7938,0.5633,0.4326,0.3875,0.1563,0.0353,0.0,0.0,0.0,0.0,0.0,0.0,0.0,0.0,0.0,0.0,0.0,0.0,0.0,0.0,0.0,0.0,0.0,0.0,0.0,0.0,0.0,0.0,0.0,0.0,0.0,0.0,0.0,0.0,0.0,0.0,0.0,0.0,0.0,0.0,0.0,0.0,0.0,0.0,0.0,0.0,0.0,0.0,0.0,0.0,0.0,0.0,0.0,0.0,-0.0135,-0.0449,-0.0498,-0.0634,-0.0942,-0.2935,-0.3119,-0.1032,-0.3,-0.291,-0.0494,-0.0494,-0.0314,0.0,0.0,0.0,0.0,0.0,0.0,0.0,0.0,0.0,0.0,0.0,0.0,0.0,0.0,0.0,0.0,0.0,0.0,0.0,1.6978,1.6978,1.6978,1.6978,1.6978,1.6446,1.4844,1.3517,1.1552,0.8382,0.6846,0.5523,0.3933,0.3744,0.3236,0.1957,0.3033,0.2663,0.0153,0.1168,0.1317,0.0051,0.0,0.0,0.0,0.0,0.116,0.3525,0.3525,0.3525,0.3525,0.2319,0.1764,0.1715,0.0505,0.0,0.0,0.0,0.0,0.0,0.0,0.0,0.0,0.0,0.0,0.0,0.0,0.0,0.0,0.0,0.0,0.0,0.0,0.0,0.0,0.0,0.0,0.0,0.0,0.0,0.0,0.0,0.0,0.0,0.0,0.0,0.0,0.0,0.0,0.0,0.0,0.0,0.0,0.0,0.0,0.0,0.0,0.0,0.0,0.0,0.0,0.0,0.0,0.0,0.0,0.0,0.0,0.0,0.0,-0.0991,-0.1081,-0.0045,-0.1031,-0.1076,0.0,0.0,0.0,0.0,0.0,0.0,0.0,0.0,0.0,0.0,0.0,0.0,0.0,0.0,0.0,0.0,0.0,0.0,0.0,0.0,0.0,0.0]},{"header":{"parameterUnit":"m.s-1","parameterCategory":1,"la1":30.6,"la2":28.766,"lo1":-90.7593,"lo2":-88.6598,"dy":0.0162,"dx":0.0183,"nx":116,"ny":114,"refTime":"2023-10-08T06:00:00:Z","depth":0,"parameterNumber":3,"parameterNumberName":"V-component_of_WINDS"},"data":[0.0,0.0,0.0,0.0,0.0,0.0,0.0,0.0,0.0,0.0,0.0,0.0,0.0,0.0,0.0,0.0,0.0,0.0,0.0,0.0,0.0,0.0,0.0,0.0,0.0,0.0,0.0,0.0,0.0,0.0,0.0,0.0,0.0,0.0,0.0,0.0,0.0,0.0,0.0,0.0,0.0,0.0,0.0,0.0,0.0,0.0,0.0,0.0,0.0,0.0,0.0,0.0,0.0,0.0,0.0,0.0,0.0,0.0,0.0,0.0,0.0,0.0,0.0,0.0,0.0,0.0,0.0,0.0,0.0,0.0,0.0,0.0,0.0,0.0,0.0,0.0,0.0,0.0,0.0,0.0,0.0,0.0,0.0,0.0,0.0,0.0,0.0,0.0,0.0,0.0,0.0,0.0,0.0,0.0,0.0,0.0,0.0,0.0,0.0,0.0,0.0,0.0,0.0,0.0,0.0,0.0,0.0,0.0,0.0,0.0,0.0,0.0,0.0,0.0,0.0,0.0,0.0,0.0,0.0,0.0,0.0,0.0,0.0,0.0,0.0,0.0,0.0,0.0,0.0,0.0,0.0,0.0,0.0,0.0,0.0,0.0,0.0,0.0,0.0,0.0,0.0,0.0,0.0,0.0,0.0,0.0,0.0,0.0,0.0,0.0,0.0,0.0,0.0,0.0,0.0,0.0,0.0,0.0,0.0,0.0,0.0,0.0,0.0,0.0,0.0,0.0,0.0,0.0,0.0,0.0,0.0,0.0,0.0,0.0,0.0,0.0,0.0,0.0,0.0,0.0,0.0,0.0,0.0,0.0,0.0,0.0,0.0,0.0,0.0,0.0,0.0,0.0,0.0,0.0,0.0,0.0,0.0,0.0,0.0,0.0,0.0,0.0,0.0,0.0,0.0,0.0,0.0,0.0,0.0,0.0,0.0,0.0,0.0,0.0,0.0,0.0,0.0,0.0,0.0,0.0,0.0,0.0,0.0,0.0,0.0,0.0,0.0,0.0,0.0,0.0,0.0,0.0,0.0,0.0,0.0,0.0,0.0,0.0,0.0,0.0,0.0,0.0,0.0,0.0,0.0,0.0,0.0,0.0,0.0,0.0,0.0,0.0,0.0,0.0,0.0,0.0,0.0,0.0,0.0,0.0,0.0,0.0,0.0,0.0,0.0,0.0,0.0,0.0,0.0,0.0,0.0,0.0,0.0,0.0,0.0,0.0,0.0,0.0,0.0,0.0,0.0,0.0,0.0,0.0,0.0,0.0,0.0,0.0,0.0,0.0,0.0,0.0,0.0,0.0,0.0,0.0,0.0,0.0,0.0,0.0,0.0,0.0,0.0,0.0,0.0,0.0,0.0,0.0,0.0,0.0,0.0,0.0,0.0,0.0,0.0,0.0,0.0,0.0,0.0,0.0,0.0,0.0,0.0,0.0,0.0,0.0,0.0,0.0,0.0,0.0,0.0,0.0,0.0,0.0,0.0,0.0,0.0,0.0,0.0,0.0,0.0,0.0,0.0,0.0,0.0,0.0,0.0,0.0,0.0,0.0,0.0,0.0,0.0,0.0,0.0,0.0,0.0,0.0,0.0,0.0,0.0,0.0,0.0,0.0,0.0,0.0,0.0,0.0,0.0,0.0,0.0,0.0,0.0,0.0,0.0,0.0,0.0,0.0,0.0,0.0,0.0,0.0,0.0,0.0,0.0,0.0,0.0,0.0,0.0,0.0,0.0,0.0,0.0,0.0,0.0,0.0,0.0,0.0,0.0,0.0,0.0,0.0,0.0,0.0,0.0,0.0,0.0,0.0,0.0,0.0,0.0,0.0,0.0,0.0,0.0,0.0,0.0,0.0,0.0,0.0,0.0,0.0,0.0,0.0,0.0,0.0,0.0,0.0,0.0,0.0,0.0,0.0,0.0,0.0,0.0,0.0,0.0,0.0,0.0,0.0,0.0,0.0,0.0,0.0,0.0,0.0,0.0,0.0,0.0,0.0,0.0,0.0,0.0,0.0,0.0,0.0,0.0,0.0,0.0,0.0,0.0,0.0,0.0,0.0,0.0,0.0,0.0,0.0,0.0,0.0,0.0,0.0,0.0,0.0,0.0,0.0,0.0,0.0,0.0,0.0,0.0,0.0,0.0,0.0,0.0,0.0,0.0,0.0,0.0,0.0,0.0,0.0,0.0,0.0,0.0,0.0,0.0,0.0,0.0,0.0,0.0,0.0,0.0,0.0,0.0,0.0,0.0,0.0,0.0,0.0,0.0,0.0,0.0,0.0,0.0,0.0,0.0,0.0,0.0,0.0,0.0,0.0,0.0,0.0,0.0,0.0,0.0,0.0,0.0,0.0,0.0,0.0,0.0,0.0,0.0,0.0,0.0,0.0,0.0,0.0,0.0,0.0,0.0,0.0,0.0,0.0,0.0,0.0,0.0,0.0,0.0,0.0,0.0,0.0,0.0,0.0,0.0,0.0,0.0,0.0,0.0,0.0,0.0,0.0,0.0,0.0,0.0,0.0,0.0,0.0,0.0,0.0,0.0,0.0,0.0,0.0,0.0,0.0,0.0,0.0,0.0,0.0,0.0,0.0,0.0,0.0,0.0,0.0,0.0,0.0,0.0,0.0,0.0,0.0,0.0,0.0,0.0,0.0,0.0,0.0,0.0,0.0,0.0,0.0,0.0,0.0,0.0,0.0,0.0,0.0,0.0,0.0,0.0,0.0,0.0,0.0,0.0,0.0,0.0,0.0,0.0,0.0,0.0,0.0,0.0,0.0,0.0,0.0,0.0,0.0,0.0,0.0,0.0,0.0,0.0,0.0,0.0,0.0,0.0,0.0,0.0,0.0,0.0,0.0,0.0,0.0,0.0,0.0,0.0,0.0,0.0,0.0,0.0,0.0,0.0,0.0,0.0,0.0,0.0,0.0,0.0,0.0,0.0,0.0,0.0,0.0,0.0,0.0,0.0,0.0,0.0,0.0,0.0,0.0,0.0,0.0,0.0,0.0,0.0,0.0,0.0,0.0,0.0,0.0,0.0,0.0,0.0,0.0,0.0,0.0,0.0,0.0,0.0,0.0,0.0,0.0,0.0,0.0,0.0,0.0,0.0,0.0,0.0,0.0,0.0,0.0,0.0,0.0,0.0,0.0,0.0,0.0,0.0,0.0,0.0,0.0,0.0,0.0,0.0,0.0,0.0,0.0,0.0,0.0,0.0,0.0,0.0,0.0,0.0,0.0,0.0,0.0,0.0,0.0,0.0,0.0,0.0,0.0,0.0,0.0,0.0,0.0,0.0,0.0,0.0,0.0,0.0,0.0,0.0,0.0,0.0,0.0,0.0,0.0,0.0,0.0,0.0,0.0,0.0,0.0,0.0,0.0,0.0,0.0,0.0,0.0,0.0,0.0,0.0,0.0,0.0,0.0,0.0,0.0,0.0,0.0,0.0,0.0,0.0,0.0,0.0,0.0,0.0,0.0,0.0,0.0,0.0,0.0,0.0,0.0,0.0,0.0,0.0,0.0,0.0,0.0,0.0,0.0,0.0,0.0,0.0,0.0,0.0,0.0,0.0,0.0,0.0,0.0,0.0,0.0,0.0,0.0,0.0,0.0,0.0,0.0,0.0,0.0,0.0,0.0,0.0,0.0,0.0,0.0,0.0,0.0,0.0,0.0,0.0,0.0,0.0,0.0,0.0,0.0,0.0,0.0,0.0,0.0,0.0,0.0,0.0,0.0,0.0,0.0,0.0,0.0,0.0,0.0,0.0,0.0,0.0,0.0,0.0,0.0,0.0,0.0,0.0,0.0,0.0,0.0,0.0,0.0,0.0,0.0,0.0,0.0,0.0,0.0,0.0,0.0,0.0,0.0,0.0,0.0,0.0,0.0,0.0,0.0,0.0,0.0,0.0,0.0,0.0,0.0,0.0,0.0,0.0,0.0,0.0,0.0,0.0,0.0,0.0,0.0,0.0,0.0,0.0,0.0,0.0,0.0,0.0,0.0,0.0,0.0,0.0,0.0,0.0,0.0,0.0,0.0,0.0,0.0,0.0,0.0,0.0,0.0,0.0,0.0,0.0,0.0,0.0,0.0,0.0,0.0,0.0,0.0,0.0,0.0,0.0,0.0,0.0,0.0,0.0,0.0,0.0,0.0,0.0,0.0,0.0,0.0,0.0,0.0,0.0,0.0,0.0,0.0,0.0,0.0,0.0,0.0,0.0,0.0,0.0,0.0,0.0,0.0,0.0,0.0,0.0,0.0,0.0,0.0,0.0,0.0,0.0,0.0,0.0,0.0,0.0,0.0,0.0,0.0,0.0,0.0,0.0,0.0,0.0,0.0,0.0,0.0,0.0,0.0,0.0,0.0,0.0,0.0,0.0,0.0,0.0,0.0,0.0,0.0,0.0,0.0,0.0,0.0,0.0,0.0,0.0,0.0,0.0,0.0,0.0,0.0,0.0,0.0,0.0,0.0,0.0,0.0,0.0,0.0,0.0,0.0,0.0,0.0,0.0,0.0,0.0,0.0,0.0,0.0,0.0,0.0,0.0,0.0,0.0,0.0,0.0,0.0,0.0,0.0,0.0,0.0,0.0,0.0,0.0,0.0,0.0,0.0,0.0,0.0,0.0,0.0,0.0,0.0,0.0,0.0,0.0,0.0,0.0,0.0,0.0,0.0,0.0,0.0,0.0,0.0,0.0,0.0,0.0,0.0,0.0,0.0,0.0,0.0,0.0,0.0,0.0,0.0,0.0,0.0,0.0,0.0,0.0,0.0,0.0,0.0,0.0,0.0,0.0,0.0,0.0,0.0,0.0,0.0,0.0,0.0,0.0,0.0,0.0,0.0,0.0,0.0,0.0,0.0,0.0,0.0,0.0,0.0,0.0,0.0,0.0,0.0,0.0,0.0,0.0,0.0,0.0,0.0,0.0,0.0,0.0,0.0,0.0,0.0,0.0,0.0,0.0,0.0,0.0,0.0,0.0,0.0,0.0,0.0,0.0,0.0,0.0,0.0,0.0,0.0,0.0,0.0,0.0,0.0,0.0,0.0,0.0,0.0,0.0,0.0,0.0,0.0,0.0,0.0,0.0,0.0,0.0,0.0,0.0,0.0,0.0,0.0,0.0,0.0,0.0,0.0,0.0,0.0,0.0,0.0,0.0,0.0,0.0,0.0,0.0,0.0,0.0,0.0,0.0,0.0,0.0,0.0,0.0,0.0,0.0,0.0,0.0,0.0,0.0,0.0,0.0,0.0,0.0,0.0,0.0,0.0,0.0,0.0,0.0,0.0,0.0,0.0,0.0,0.0,0.0,0.0,0.0,0.0,0.0,0.0,0.0,0.0,0.0,0.0,0.0,0.0,0.0,0.0,0.0,0.0,0.0,0.0,0.0,0.0,0.0,0.0,0.0,0.0,0.0,0.0,0.0,0.0,0.0,0.0,0.0,0.0,0.0,0.0,0.0,0.0,0.0,0.0,0.0,0.0,0.0,0.0,0.0,0.0,0.0,0.0,0.0,0.0,0.0,0.0,0.0,0.0,0.0,0.0,0.0,0.0,0.0,0.0,0.0,0.0,0.0,0.0,0.0,0.0,0.0,0.0,0.0,0.0,0.0,0.0,0.0,0.0,0.0,0.0,0.0,0.0,0.0,0.0,0.0,0.0,0.0,0.0,0.0,0.0,0.0,0.0,0.0,0.0,0.0,0.0,0.0,0.0,0.0,0.0,0.0,0.0,0.0,0.0,0.0,0.0,0.0,0.0,0.0,0.0,0.0,0.0,0.0,0.0,0.0,0.0,0.0,0.0,0.0,0.0,0.0,0.0,0.0,0.0,0.0,0.0,0.0,0.0,0.0,0.0,0.0,0.0,0.0,0.0,0.0,0.0,0.0,0.0,0.0,0.0,0.0,0.0,0.0,0.0,0.0,0.0,0.0,0.0,0.0,0.0,0.0,0.0,0.0,0.0,0.0,0.0,0.0,0.0,0.0,0.0,0.0,0.0,0.0,0.0,0.0,0.0,0.0,0.0,0.0,0.0,0.0,0.0,0.0,0.0,0.0,0.0,0.0,0.0,0.0,0.0,0.0,0.0,0.0,0.0,0.0,0.0,0.0,0.0,0.0,0.0,3.2713,3.2476,0.0,0.0,0.0,0.0,0.0,0.0,0.0,0.0,0.0,0.0,0.0,0.0,0.0,0.0,0.0,0.0,0.0,0.0,0.0,0.0,0.0,0.0,0.0,0.0,0.0,0.0,0.0,0.0,0.0,0.0,0.0,0.0,0.0,0.0,0.0,0.0,0.0,0.0,4.458,4.4401,4.4065,4.3441,4.2811,4.2249,0.0,0.0,0.0,0.0,0.0,0.0,0.0,0.0,0.0,0.0,0.0,0.0,0.0,0.0,0.0,0.0,0.0,0.0,0.0,0.0,0.0,0.0,0.0,0.0,0.0,0.0,0.0,0.0,0.0,0.0,0.0,0.0,0.0,0.0,0.0,0.0,0.0,0.0,0.0,0.0,0.0,0.0,0.0,0.0,0.0,0.0,0.0,0.0,0.0,0.0,0.0,0.0,0.0,0.0,0.0,0.0,0.0,0.0,0.0,0.0,0.0,0.0,0.0,0.0,0.0,0.0,0.0,0.0,0.0,0.0,3.5712,3.4258,0.0,0.0,0.0,0.0,0.0,0.0,0.0,0.0,0.0,0.0,0.0,0.0,0.0,0.0,0.0,0.0,0.0,0.0,0.0,0.0,0.0,0.0,0.0,0.0,0.0,0.0,0.0,0.0,0.0,0.0,0.0,0.0,0.0,0.0,0.0,4.4782,4.4394,4.399,4.436,4.4552,4.458,4.4718,4.4754,4.4718,4.3204,0.0,0.0,0.0,0.0,0.0,0.0,0.0,0.0,0.0,0.0,0.0,0.0,0.0,0.0,0.0,0.0,0.0,0.0,0.0,0.0,0.0,0.0,0.0,0.0,0.0,0.0,0.0,0.0,0.0,0.0,0.0,0.0,0.0,0.0,0.0,0.0,0.0,0.0,0.0,0.0,0.0,0.0,0.0,0.0,0.0,0.0,0.0,0.0,0.0,0.0,0.0,0.0,0.0,0.0,0.0,0.0,0.0,0.0,0.0,0.0,0.0,0.0,0.0,3.9817,4.073,4.1813,4.2557,4.3234,4.3558,3.9365,3.684,3.5667,3.5532,0.0,0.0,0.0,0.0,0.0,0.0,0.0,0.0,0.0,0.0,0.0,0.0,0.0,0.0,0.0,0.0,0.0,0.0,0.0,0.0,0.0,4.5594,4.5594,4.5594,4.5594,4.5594,0.0,0.0,0.0,0.0,0.0,0.0,4.5115,4.4782,4.4394,4.399,4.5818,4.7408,4.8802,4.9517,4.9848,4.9664,4.5305,4.4153,4.5405,0.0,0.0,0.0,0.0,0.0,0.0,0.0,0.0,0.0,0.0,0.0,0.0,0.0,0.0,0.0,0.0,0.0,0.0,0.0,0.0,0.0,0.0,0.0,0.0,0.0,0.0,0.0,0.0,0.0,0.0,0.0,0.0,0.0,0.0,0.0,0.0,0.0,0.0,0.0,0.0,0.0,3.6185,3.561,0.0,0.0,0.0,0.0,0.0,0.0,0.0,0.0,0.0,0.0,0.0,0.0,0.0,4.0988,4.2374,4.3693,4.4147,4.3721,4.4451,4.4587,4.4161,4.4925,4.5297,4.5384,4.5331,0.0,4.0257,3.9626,0.0,0.0,0.0,0.0,0.0,0.0,0.0,0.0,0.0,0.0,0.0,0.0,0.0,0.0,0.0,0.0,0.0,0.0,0.0,0.0,0.0,4.6249,4.6673,4.6673,4.8157,4.8388,4.6772,0.0,0.0,0.0,0.0,4.4495,4.4495,4.4132,4.4793,4.6426,4.9164,5.1122,5.2317,5.3115,5.3482,5.3382,5.0765,4.834,4.6126,4.5398,0.0,0.0,0.0,0.0,0.0,0.0,0.0,0.0,0.0,0.0,0.0,0.0,0.0,0.0,0.0,0.0,0.0,0.0,0.0,0.0,0.0,0.0,0.0,0.0,0.0,0.0,0.0,0.0,0.0,0.0,0.0,0.0,0.0,0.0,0.0,0.0,0.0,0.0,0.0,3.6718,3.7765,3.6997,3.7584,3.7562,0.0,0.0,0.0,0.0,0.0,0.0,0.0,0.0,0.0,4.3186,4.3978,4.4857,4.5925,4.7008,4.78,4.8308,4.8646,4.9086,4.9593,4.9932,5.0304,5.071,5.1048,4.9526,4.6568,4.3301,4.0447,3.8079,0.0,0.0,0.0,0.0,3.7572,3.8249,0.0,0.0,0.0,0.0,0.0,0.0,0.0,0.0,0.0,0.0,0.0,0.0,4.6354,4.7512,4.8473,4.8877,5.0492,5.0561,4.8415,4.8472,0.0,0.0,0.0,4.4102,4.399,4.4685,4.6801,5.0462,5.3544,5.5673,5.6895,5.7703,5.8081,5.8033,5.6994,5.3512,4.8329,4.7327,4.5476,4.3147,0.0,0.0,0.0,0.0,0.0,0.0,0.0,0.0,0.0,0.0,0.0,0.0,0.0,0.0,0.0,0.0,0.0,0.0,0.0,0.0,0.0,0.0,0.0,0.0,0.0,0.0,0.0,0.0,0.0,0.0,0.0,0.0,0.0,0.0,0.0,0.0,0.0,3.7877,3.914,3.8024,3.9208,3.9309,0.0,0.0,0.0,0.0,0.0,0.0,4.2557,4.3504,4.506,4.7327,4.8308,4.9255,5.0153,5.0913,5.1826,5.2892,5.2892,5.3518,5.4634,5.4431,5.4735,5.5429,5.5243,5.4093,5.1979,4.7109,4.3693,4.1461,4.073,4.0087,3.9749,4.0853,4.136,4.1766,0.0,0.0,0.0,0.0,0.0,0.0,0.0,0.0,0.0,0.0,0.0,4.6847,4.84,4.9662,5.108,5.2583,5.1463,5.062,5.0448,4.7941,4.6269,4.5775,4.5,4.438,4.3998,4.7398,5.1536,5.637,5.8841,6.1263,6.3625,6.4457,6.4811,6.4749,6.3044,5.9221,5.3831,5.0067,4.8045,4.6986,4.3173,0.0,0.0,0.0,0.0,0.0,0.0,0.0,0.0,0.0,0.0,0.0,0.0,0.0,0.0,0.0,0.0,0.0,0.0,0.0,0.0,0.0,0.0,0.0,0.0,0.0,0.0,0.0,0.0,0.0,0.0,0.0,0.0,0.0,0.0,0.0,0.0,0.0,0.0,3.8147,4.1022,0.0,0.0,0.0,0.0,4.1001,4.3044,4.4973,4.6428,4.7868,4.9695,5.1894,5.3416,5.4905,5.6359,5.707,5.7494,5.7561,5.7561,5.7595,5.7663,5.6934,5.7036,5.7697,5.7002,5.6224,5.5192,5.1352,4.8037,4.5365,4.4601,4.4296,4.4276,4.433,4.4838,4.5418,0.0,0.0,0.0,0.0,0.0,0.0,0.0,0.0,0.0,4.4931,4.6443,4.8136,4.9764,5.2457,5.4792,5.6405,5.6753,5.6129,5.4261,5.1532,4.9313,4.7855,4.6288,4.6621,4.9104,5.2463,5.6334,6.0664,6.415,6.6843,6.8752,6.9545,6.9608,6.892,6.7785,6.4975,6.0729,5.4431,5.0237,4.751,4.4137,4.2365,0.0,0.0,0.0,0.0,0.0,0.0,0.0,0.0,0.0,0.0,0.0,0.0,0.0,0.0,0.0,0.0,0.0,0.0,0.0,0.0,0.0,0.0,0.0,0.0,0.0,0.0,0.0,0.0,0.0,0.0,0.0,0.0,0.0,0.0,0.0,0.0,0.0,4.5012,4.7041,0.0,4.5249,4.5771,4.621,4.621,4.8274,5.0439,5.2435,5.3484,5.5277,5.8017,5.8626,5.937,6.0385,6.0182,6.008,6.008,5.9573,5.9302,5.9302,5.9032,5.9066,5.9268,5.8558,5.7814,5.6968,5.5141,5.2367,4.9172,4.8425,4.7579,4.6853,4.7782,4.8019,4.797,0.0,0.0,0.0,0.0,0.0,0.0,0.0,0.0,4.4402,4.4943,4.7251,4.9749,5.2182,5.5755,5.8839,6.0998,6.0696,5.9483,5.7312,5.3498,5.0443,4.8379,4.7297,4.8893,5.3518,5.7031,6.0921,6.5251,6.8788,7.1197,7.2518,7.3068,7.2784,7.1752,7.0648,6.8734,6.595,5.9857,5.4493,4.9882,4.6602,4.4993,4.4256,0.0,0.0,0.0,0.0,0.0,0.0,0.0,0.0,0.0,0.0,0.0,0.0,0.0,0.0,0.0,0.0,0.0,0.0,0.0,0.0,0.0,0.0,0.0,0.0,0.0,0.0,0.0,0.0,0.0,0.0,0.0,0.0,0.0,0.0,4.6022,4.9135,5.0371,5.2486,5.3162,5.1454,5.1961,5.2351,5.2351,5.4431,5.6494,5.8235,5.9032,6.0452,6.2719,6.2313,6.2415,6.3145,6.2144,6.167,6.167,6.1129,6.0892,6.0858,6.0622,6.0655,6.0825,5.981,5.9099,5.8592,5.7848,5.5953,5.3382,5.2367,5.1082,4.995,5.115,5.115,5.0676,0.0,0.0,0.0,0.0,0.0,0.0,0.0,4.4304,4.483,4.567,4.8333,5.1723,5.5723,5.9547,6.3062,6.6292,6.2879,6.0187,5.9306,5.3551,4.9305,4.7352,4.8113,5.1269,5.6957,6.0994,6.5398,7.0257,7.2606,7.4184,7.4977,7.5014,7.4447,7.3396,7.1783,7.0485,6.9298,6.6112,6.0994,5.4668,5.0777,4.9187,4.8612,0.0,0.0,0.0,0.0,0.0,0.0,0.0,0.0,0.0,0.0,0.0,0.0,0.0,0.0,0.0,0.0,0.0,0.0,0.0,0.0,0.0,0.0,0.0,0.0,0.0,0.0,0.0,0.0,0.0,0.0,0.0,0.0,0.0,4.4939,4.9338,5.2925,5.3721,5.7018,5.8371,5.6206,5.7931,5.9216,5.9216,6.1264,6.2854,6.3579,6.4309,6.5019,6.5751,6.4377,6.3951,6.4647,6.3193,6.2468,6.2468,6.2434,6.24,6.24,6.167,6.1704,6.2333,6.0791,6.0114,6.0047,5.9284,5.8558,5.773,5.6274,5.4853,5.3653,5.4329,5.4126,5.3518,0.0,0.0,0.0,0.0,0.0,0.0,0.0,4.3726,4.4087,4.4885,4.9298,5.366,5.7122,6.2598,6.6623,6.8128,6.5632,6.2829,6.0224,5.4664,5.1484,5.1526,5.3959,5.7997,6.3723,6.6623,6.9889,7.3582,7.4845,7.5836,7.6665,7.7304,7.6601,7.486,7.499,7.3737,7.145,6.948,6.6948,6.3632,5.6646,5.2858,5.098,0.0,0.0,0.0,0.0,0.0,0.0,0.0,0.0,0.0,0.0,0.0,0.0,0.0,0.0,0.0,0.0,0.0,0.0,0.0,0.0,0.0,0.0,0.0,0.0,0.0,0.0,0.0,0.0,0.0,0.0,0.0,4.8206,5.1082,5.0304,5.4668,5.866,6.0535,6.2584,6.3599,6.299,6.3497,6.3869,6.3869,6.4918,6.5933,6.6643,6.688,6.7083,6.7286,6.6914,6.6542,6.6203,6.4749,6.4005,6.3971,6.2888,6.24,6.2381,6.2178,6.2212,6.2367,6.14,6.0655,6.0047,5.9284,5.8254,5.707,5.6664,5.5902,5.5056,5.4702,5.4126,5.3518,0.0,0.0,0.0,0.0,0.0,0.0,0.0,4.38,4.4415,4.5581,5.0682,5.5574,5.9098,6.4396,6.8031,6.8825,6.6059,6.2719,5.9123,5.4583,5.3115,5.56,5.8462,6.2511,6.7871,7.0367,7.2863,7.538,7.6203,7.7032,7.7839,7.8369,7.7826,7.6411,7.691,7.5854,7.3713,7.2868,7.1819,7.0229,6.4525,6.0129,5.6544,5.2503,5.0439,4.9338,4.6563,4.5466,4.4776,4.1474,0.0,0.0,0.0,0.0,0.0,0.0,0.0,0.0,0.0,0.0,0.0,0.0,0.0,0.0,0.0,0.0,0.0,0.0,0.0,0.0,0.0,0.0,0.0,0.0,5.3382,5.7036,5.7814,6.052,6.3294,6.5595,6.688,6.7692,6.803,6.803,6.803,6.803,6.8415,6.8854,6.9316,6.9011,6.8842,6.8842,6.7929,6.7231,6.6791,6.5358,6.4613,6.458,6.3734,6.3159,6.2854,6.2854,6.2685,6.2367,6.1603,6.1028,6.052,5.9419,5.8472,5.7694,0.0,0.0,0.0,0.0,5.3856,5.3518,0.0,0.0,0.0,0.0,0.0,0.0,0.0,4.4195,4.5287,4.6892,5.205,5.7017,6.0798,6.502,6.7847,6.8568,6.5068,6.1141,5.7178,5.4252,5.484,5.9673,6.2389,6.5912,7.055,7.2899,7.4845,7.6387,7.7105,7.7949,7.8883,7.8956,7.8679,7.8094,7.8235,7.7505,7.6082,7.6082,7.5676,7.4796,7.2766,6.8719,6.3511,5.9201,5.7408,5.6596,5.2266,4.9999,4.8428,4.4485,0.0,0.0,0.0,0.0,0.0,0.0,0.0,0.0,0.0,0.0,0.0,0.0,0.0,0.0,0.0,0.0,0.0,0.0,0.0,0.0,0.0,0.0,0.0,0.0,5.8558,6.2922,6.5818,6.636,6.7206,6.9113,6.9992,7.0703,7.1357,7.1424,7.1391,7.1289,7.1289,7.1289,7.1289,7.0669,0.0,0.0,0.0,6.7096,6.6927,6.5561,6.4816,6.4715,6.4647,6.4275,6.3612,6.3612,6.3226,6.2482,6.1839,6.1467,6.1197,5.9825,5.9223,5.9078,5.8139,5.6478,5.4499,5.3856,5.3619,5.3635,0.0,0.0,0.0,0.0,0.0,0.0,0.0,4.4195,4.5287,4.6892,5.205,5.6393,5.8474,6.3503,6.6769,6.6953,6.4407,6.1361,5.7997,5.7189,5.9024,6.3894,6.7674,7.1013,7.3913,7.5711,7.7105,7.8112,7.8259,7.9103,8.0571,8.1195,8.0819,7.9701,8.096,8.0362,7.845,7.845,7.801,7.7232,7.6217,7.2293,6.6677,6.3463,6.1061,5.9032,5.5767,5.5209,5.5209,5.0252,4.9289,4.9458,4.5452,4.2929,0.0,0.0,0.0,0.0,0.0,0.0,0.0,0.0,0.0,0.0,0.0,0.0,0.0,0.0,0.0,0.0,0.0,0.0,0.0,5.8084,6.2719,6.6576,6.8977,7.0331,7.1041,7.0883,7.1515,7.2022,7.2191,7.2191,7.1954,7.1323,7.1289,7.1289,7.1289,7.1176,7.0804,7.0217,6.9755,6.8944,6.7692,6.6812,6.6068,6.548,6.4884,0.0,6.4377,6.4377,6.4005,6.3274,6.3139,6.2395,6.1298,6.0994,6.0548,5.984,5.7815,5.6021,5.4583,5.4448,5.4393,5.4372,0.0,0.0,0.0,0.0,0.0,0.0,0.0,4.4782,4.5874,4.7489,5.161,5.5023,5.6613,6.0052,6.1924,6.1129,5.8437,5.7152,5.796,5.9134,6.2695,6.9229,7.2202,7.4845,7.7304,7.8537,7.9344,7.98,8.0204,8.1232,8.281,8.3214,8.339,8.3323,8.3498,8.2849,8.1611,8.0994,8.0547,8.0141,7.9397,7.686,7.3138,6.9789,6.688,6.4309,6.2057,6.0791,5.9524,5.5396,5.3754,5.2875,4.9526,4.6921,4.4654,0.0,0.0,0.0,0.0,0.0,0.0,0.0,0.0,0.0,0.0,0.0,0.0,0.0,0.0,4.7665,5.071,0.0,5.9167,6.2854,6.6588,6.9586,7.1075,7.2259,7.2665,7.1954,7.2191,7.2394,7.2394,7.209,7.1718,7.1323,7.1289,7.1289,7.1289,7.1289,7.0973,7.0217,7.0716,7.0399,6.9255,6.8991,6.8871,6.891,6.7707,6.7153,6.7191,6.679,6.6201,6.5438,6.502,6.443,6.3686,6.2905,6.2196,6.1396,5.9831,5.8035,5.6286,5.592,5.551,5.5144,0.0,0.0,0.0,0.0,0.0,0.0,0.0,0.0,4.6434,4.7893,5.0939,5.3408,5.4557,5.6088,5.6418,5.4814,5.3004,5.3885,5.84,6.1263,6.6195,7.3817,7.5726,7.7671,8.0,8.0681,8.1158,8.1489,8.226,8.3471,8.5086,8.5233,8.5826,8.6702,8.5635,8.4846,8.4322,8.327,8.2746,8.2543,8.1799,8.0615,7.8957,7.5473,7.2394,6.9688,6.7726,6.5121,6.2178,5.9321,5.6867,5.4702,5.2858,5.066,4.8191,4.5148,4.3761,0.0,0.0,0.0,0.0,0.0,0.0,0.0,0.0,4.349,4.4823,4.8409,5.0811,5.3416,5.7205,6.096,6.4343,6.7049,6.9835,7.1954,7.2529,7.3105,7.3297,7.2665,7.2597,7.2597,7.2597,7.1954,7.1424,7.1289,7.1289,7.1289,7.1289,7.1289,7.1041,7.0432,7.1208,7.1277,7.0524,7.0663,7.1031,7.1507,7.0229,6.9669,6.9723,6.9088,6.8396,6.7598,6.6643,6.6201,6.6095,6.4536,6.3637,6.3135,6.2215,6.0689,5.8888,5.776,5.688,5.6162,0.0,0.0,0.0,0.0,0.0,0.0,0.0,0.0,0.0,4.7113,5.0105,5.194,5.1389,5.2774,5.3104,5.1463,5.4278,5.7593,6.097,6.4837,6.9646,7.5579,7.7414,7.9103,8.0828,8.0938,8.1709,8.3124,8.3948,8.5159,8.6775,8.7472,8.7706,8.7552,8.6988,8.6145,8.5163,8.4573,8.3998,8.3321,8.2577,8.1393,7.9803,7.7435,7.5067,7.2552,6.9045,6.5899,6.3004,6.0655,5.8389,5.6528,5.6258,5.4194,5.1301,4.8259,4.506,4.2049,4.0312,4.002,4.0811,4.3362,4.4025,4.5819,0.0,5.3518,5.3957,5.7018,5.893,6.0385,6.1535,6.4783,6.7827,6.9519,7.1751,7.3297,7.3364,7.3466,7.3466,7.3398,7.3398,7.3398,7.3398,7.2699,7.2022,7.1357,7.1289,7.1289,7.1289,7.1289,7.1255,7.1176,7.1288,7.1004,7.0246,7.0253,6.9977,6.9454,6.9414,6.9454,6.9459,6.9524,6.9176,6.8361,6.6839,6.6201,6.6095,6.4536,6.4258,6.4683,6.3243,6.2495,6.1998,5.9824,5.8524,5.7831,0.0,0.0,0.0,0.0,0.0,0.0,0.0,0.0,0.0,0.0,4.8994,4.9738,4.9361,4.9104,4.8489,4.7342,5.0939,5.5464,6.0566,6.5595,7.1541,7.8626,8.0057,8.1452,8.3067,8.3544,8.4132,8.4792,8.6077,8.7288,8.8409,8.9234,8.9752,9.0038,8.9153,8.8081,8.6954,8.6039,8.507,8.4133,8.3802,8.2543,8.0581,7.8382,7.4796,7.0567,6.7658,6.4715,0.0,0.0,5.7645,5.624,5.6664,5.4465,5.1217,4.8665,4.6481,4.479,4.4181,4.3978,4.4601,4.7173,4.9135,5.1572,5.5987,5.707,5.8118,6.1569,6.3802,6.5628,6.7286,6.9891,7.2078,7.2909,7.4162,7.5082,7.5275,7.5269,7.4893,7.3962,7.4302,7.4149,7.2971,7.2191,7.165,7.1323,7.183,7.215,7.215,7.2728,7.3044,7.3044,7.3631,7.3787,7.3454,7.3594,7.3707,7.3868,7.2522,7.2171,7.2566,7.1721,7.092,7.0087,6.898,6.8205,6.7698,6.6554,6.6308,6.6504,6.5387,6.4672,6.394,6.1518,6.0147,5.943,0.0,0.0,0.0,0.0,0.0,0.0,0.0,0.0,0.0,0.0,0.0,4.8113,4.7682,4.6397,4.5259,4.4443,4.8122,5.3004,5.9013,6.4958,7.1747,7.9638,8.1195,8.281,8.4903,8.549,8.5894,8.6114,8.7509,8.861,8.9436,9.0207,9.1033,9.1767,9.0559,8.9348,8.8111,8.6913,8.5607,8.4242,8.3836,8.2374,8.0031,7.6782,7.2225,6.7286,6.5222,6.2042,0.0,5.6445,5.4769,5.3704,5.4668,5.2942,5.0254,4.8428,4.694,4.6007,4.6631,4.724,4.8443,5.1504,5.4516,5.746,6.0065,6.1569,6.3342,6.6677,6.847,6.9958,7.1616,7.3255,7.449,7.4713,7.5595,7.6279,7.6545,7.5987,7.5025,7.3607,7.3451,7.2984,7.1704,7.1928,7.212,7.212,7.2797,7.3212,7.3212,7.3889,7.4291,7.4291,7.4994,7.5405,7.5405,7.5551,7.5899,7.6445,7.4754,7.4132,7.4424,7.3127,7.2202,7.16,7.077,6.9963,6.9192,6.8348,6.7921,6.7627,6.6806,6.5999,6.5068,6.3025,6.163,6.075,0.0,0.0,0.0,0.0,0.0,0.0,0.0,0.0,0.0,0.0,0.0,0.0,0.0,4.5214,4.4406,4.3616,4.7297,5.1693,5.659,6.2989,6.9816,7.7105,7.9748,8.2517,8.569,8.5783,8.6187,8.6941,8.7802,8.861,8.9436,9.0207,9.1033,9.1767,9.0559,8.9348,8.8111,8.6913,8.5298,8.3422,8.1994,8.0073,7.7459,7.1582,6.7015,6.3477,6.1975,0.0,5.2418,5.0861,4.9357,4.8394,4.983,4.9729,4.8901,4.8124,4.5824,4.3998,4.621,4.8357,5.1233,5.6377,5.993,6.3125,6.6779,6.9316,7.156,7.3826,7.3781,7.3364,7.3432,7.3709,7.3912,7.3919,7.5378,7.6494,7.6478,7.455,7.2816,7.1947,6.9864,6.8822,6.951,7.239,7.4196,7.4196,7.4234,7.4234,7.4234,7.4272,7.4291,7.4291,7.4329,7.4329,7.4329,7.4367,7.4385,7.4385,7.4491,7.4163,7.3402,7.2787,7.2496,7.2422,7.16,7.0793,7.0,6.9192,6.8385,6.7627,6.6806,6.5999,6.5178,6.4347,6.3001,6.1557,0.0,0.0,0.0,0.0,0.0,0.0,0.0,0.0,0.0,0.0,0.0,0.0,0.0,0.0,0.0,0.0,4.6214,4.9764,5.4132,6.1006,6.743,7.3068,7.7745,8.1195,8.3361,8.3948,8.4866,8.6187,8.6481,8.7288,8.861,8.8867,8.9711,9.0978,9.0575,8.9721,8.856,8.7607,8.5345,8.227,8.0252,7.7383,7.368,6.8199,6.2888,5.7796,0.0,0.0,4.8357,4.6346,4.5317,4.5181,4.6718,4.6312,4.535,4.5635,4.5669,4.6481,5.0236,5.3585,5.7137,6.1873,6.4986,6.7692,7.0872,7.1819,7.2259,7.3003,7.1348,6.9775,6.9775,7.0793,7.1836,7.2564,7.4975,7.7021,7.7775,7.6735,7.4978,7.2552,7.2495,7.2169,7.0811,7.144,7.236,7.3423,7.4618,7.5316,7.5316,7.5925,7.628,7.628,7.628,7.628,7.628,7.628,7.628,7.628,7.53,7.4092,7.2778,7.2585,7.2496,7.2459,7.1637,7.116,7.0793,6.9435,6.8752,6.8421,6.7614,6.6806,6.5999,6.5191,6.42,6.3185,0.0,0.0,0.0,0.0,0.0,0.0,0.0,0.0,0.0,0.0,0.0,0.0,0.0,0.0,0.0,0.0,0.0,4.7709,5.1232,5.6932,6.2365,6.7197,7.1468,7.4625,7.6533,7.6827,7.7708,7.9339,7.9926,8.1305,8.3471,8.4352,8.5637,8.7178,8.7472,8.7104,8.6138,8.4749,8.184,7.7928,7.5345,7.1518,6.6921,6.2205,5.7398,0.0,0.0,4.5706,4.4443,4.2773,4.2219,4.2388,4.3369,4.3741,4.4045,4.5074,4.7206,5.0304,5.531,5.9201,6.2888,6.7375,6.9958,7.1887,7.351,7.3798,7.3366,7.2243,7.0072,6.815,6.726,6.7603,6.835,6.9381,7.1621,7.3936,7.6127,7.5197,7.3949,7.3046,7.3083,7.2775,7.1821,7.1499,7.2124,7.4041,7.5542,7.633,7.633,7.6956,7.7289,7.7289,7.7289,7.7289,7.7289,7.7289,7.7289,7.7289,7.5674,7.4353,7.334,7.2753,7.2496,7.2459,7.1931,7.138,7.0793,6.9779,6.9009,6.8421,6.7921,6.7223,6.6439,6.5925,6.5228,6.4347,0.0,0.0,0.0,0.0,0.0,0.0,0.0,0.0,0.0,0.0,0.0,0.0,0.0,0.0,0.0,0.0,0.0,0.0,4.7966,5.1232,5.5122,5.9758,6.1655,6.3747,6.6145,6.5485,6.5888,6.7517,6.9022,7.1321,7.4463,7.679,7.8736,8.0277,8.1048,8.1195,8.0658,7.8333,7.4851,7.0609,6.748,6.306,5.7868,5.4087,0.0,0.0,4.4976,4.2602,4.0792,4.035,4.0273,4.035,4.0383,4.2448,4.5142,4.6766,5.0439,5.5243,6.1129,6.4918,6.8233,7.2597,7.4661,7.5496,7.4833,7.5161,7.4766,7.1657,6.9818,6.8011,6.5618,6.4302,6.3876,6.4857,6.6069,6.8238,7.2202,7.077,7.044,7.3413,7.1725,7.0917,7.2422,7.2606,7.3597,7.5909,7.6812,7.7252,7.7289,7.7289,7.7289,7.7289,7.7289,7.7289,7.7289,7.7289,7.7252,7.7179,7.5637,7.4867,7.4793,7.3215,7.2532,7.2569,7.2532,7.1615,7.0146,7.011,6.9169,6.7774,6.7737,6.7223,6.6549,6.6512,6.6035,6.5105,0.0,0.0,0.0,0.0,0.0,0.0,0.0,0.0,0.0,0.0,0.0,0.0,0.0,0.0,0.0,0.0,0.0,0.0,4.5544,4.9251,5.2234,5.4069,5.7985,6.0701,6.1924,6.2328,6.3368,6.502,6.4787,6.5729,6.7747,6.776,6.8641,7.022,7.0403,7.0446,7.0289,6.9069,6.675,6.3673,0.0,5.8178,5.4808,0.0,0.0,0.0,4.3447,4.1607,4.0446,4.1288,4.2433,4.3552,4.4079,4.594,4.8612,5.2317,5.6596,6.1197,6.6068,6.9958,7.3172,7.5473,7.5439,7.5007,7.5525,7.315,7.0202,6.7747,6.4207,6.0816,5.8467,6.0295,6.2816,6.4875,6.8944,7.2863,7.5674,7.5564,7.5014,7.4647,7.4059,7.3597,7.3413,7.3927,7.4793,7.6019,7.6276,7.6665,7.7289,7.7289,7.7289,7.7289,7.7289,7.7289,7.7289,7.7289,7.6702,7.5527,7.5087,7.4588,7.3964,7.2973,7.2826,7.334,7.2753,7.1945,7.094,7.033,6.9522,6.8531,6.7921,6.759,6.7333,6.6733,6.6366,6.5962,0.0,0.0,0.0,0.0,0.0,0.0,0.0,0.0,0.0,0.0,0.0,0.0,0.0,0.0,0.0,0.0,0.0,0.0,0.0,4.6324,4.7976,4.8746,5.1059,5.2711,5.3471,5.3592,5.4447,5.6099,5.6334,5.7471,5.9465,6.0101,6.1043,6.2254,6.2622,6.2952,6.3209,6.1667,0.0,0.0,0.0,0.0,0.0,0.0,0.0,4.4385,4.317,4.2773,4.3056,4.4601,4.5744,4.6766,4.8173,5.0574,5.3788,5.8287,6.255,6.6779,7.1312,7.4728,7.713,7.7333,7.6564,7.5151,7.2888,7.0275,6.706,6.2675,5.9757,5.7251,5.4858,5.7217,6.0309,6.2756,6.6696,7.0807,7.4647,7.4903,7.4977,7.5858,7.5637,7.5395,7.5285,7.5359,7.5747,7.6555,7.6628,7.6812,7.7289,7.7289,7.7289,7.7289,7.7289,7.7289,7.7289,7.7289,7.6848,7.5968,7.5601,7.5212,7.4698,7.356,7.3266,7.367,7.2863,7.2041,7.1233,7.044,6.9633,6.8811,6.8031,6.77,6.7664,6.7187,6.7026,6.6856,0.0,0.0,0.0,0.0,0.0,0.0,0.0,0.0,0.0,0.0,0.0,0.0,0.0,0.0,0.0,0.0,0.0,0.0,0.0,0.0,0.0,4.4516,4.3864,4.3828,4.4516,4.3873,4.4167,4.559,4.6985,4.8746,5.0922,5.3015,5.4373,5.506,0.0,0.0,0.0,0.0,0.0,0.0,0.0,0.0,0.0,0.0,0.0,0.0,4.3303,4.4345,4.6117,4.868,4.9773,5.0473,5.2976,5.6292,6.0133,6.4613,6.8368,7.2022,7.6318,7.8979,8.0189,7.8695,7.7582,7.5236,6.9392,6.7093,6.4306,5.7594,5.6261,5.56,5.3324,5.5122,5.7838,6.0591,6.3135,6.6696,7.2349,7.2445,7.3289,7.6885,7.6665,7.6518,7.7252,7.6775,7.6665,7.7252,7.7399,7.7436,7.7326,7.7289,7.7289,7.7289,7.7289,7.7289,7.7289,7.7289,7.7252,7.7142,7.6423,7.6093,7.6056,7.4441,7.3758,7.3817,7.2899,7.2041,7.1233,7.055,6.9779,6.8972,6.8178,6.7847,6.7847,6.7737,6.7627,6.7457,0.0,0.0,0.0,0.0,0.0,0.0,0.0,0.0,0.0,0.0,4.603,4.581,0.0,0.0,0.0,0.0,0.0,0.0,0.0,0.0,0.0,0.0,4.3579,4.3579,4.3726,4.3579,4.3653,4.391,4.4204,4.4534,4.4975,4.5415,4.5672,4.5819,4.5966,0.0,0.0,0.0,0.0,0.0,0.0,0.0,0.0,0.0,0.0,0.0,4.2266,4.2414,4.3823,5.0302,5.3796,5.6156,6.0264,6.37,6.7049,7.1548,7.4221,7.642,7.9634,8.1483,8.2121,8.0567,7.7371,7.3687,7.011,6.4665,5.9286,5.5541,5.4254,5.3287,5.1526,5.484,5.9245,6.371,6.6512,7.0036,7.5674,7.5747,7.5763,7.7142,7.7179,7.7142,7.7289,7.7855,7.7928,7.7362,7.7949,7.8075,7.7362,7.7289,7.7289,7.7289,7.7289,7.7289,7.7289,7.7289,7.6959,7.6313,7.6166,7.6093,7.6056,7.4441,7.4074,7.461,7.3156,7.2041,7.1307,7.116,7.0624,6.9816,6.9009,6.8678,6.8605,6.7958,6.7297,6.6751,0.0,0.0,0.0,0.0,0.0,0.0,0.0,4.5369,4.5883,4.5883,4.5883,4.559,4.4773,4.4342,4.3901,0.0,0.0,0.0,0.0,0.0,0.0,0.0,0.0,0.0,4.3506,4.3506,4.3506,4.3506,0.0,4.3506,4.3506,4.3506,4.3506,4.3506,4.3506,4.3506,4.3506,4.3506,4.3506,4.3506,4.3506,4.3506,0.0,0.0,0.0,0.0,0.0,4.3052,4.48,4.9333,5.3709,5.8264,6.397,6.7861,7.0906,7.4221,7.6705,7.9057,8.2017,8.3354,8.3416,8.1445,7.7267,7.2172,6.6556,6.1384,5.6552,5.215,5.161,5.172,5.0949,5.4399,5.8547,6.2169,6.4407,6.7857,7.3949,7.4096,7.45,7.7032,7.7693,7.7803,7.7362,7.8112,7.8259,7.7362,7.7693,7.7729,7.7326,7.7289,7.7289,7.7289,7.7289,7.7289,7.7289,7.7289,7.7105,7.6702,7.6702,7.6702,7.6665,7.5506,7.5175,7.5432,7.3817,7.2899,7.2459,7.1211,7.044,7.0004,6.9041,6.8702,6.8666,6.8577,6.8285,6.7996,0.0,0.0,0.0,0.0,0.0,0.0,0.0,4.5654,4.6287,4.6663,4.6544,4.6104,4.5287,4.4342,4.369,0.0,0.0,0.0,0.0,0.0,0.0,0.0,0.0,0.0,0.0,0.0,0.0,4.3506,4.3506,0.0,0.0,0.0,0.0,0.0,4.3506,4.3506,4.3506,4.3506,4.3506,0.0,0.0,4.3506,0.0,0.0,0.0,0.0,0.0,4.3914,4.566,4.8198,5.2225,5.7357,6.3869,6.8774,7.2541,7.4489,7.7423,8.0614,8.33,8.4418,8.4221,8.1734,7.6786,7.0577,6.3054,5.8469,5.4352,4.9324,4.9517,5.0582,5.0765,5.3665,5.6994,5.993,6.1471,6.4664,7.1541,7.1821,7.2812,7.6812,7.806,7.8332,7.7656,7.8369,7.8516,7.7656,7.7399,7.7289,7.7289,7.7289,7.7289,7.7289,7.7289,7.7289,7.7289,7.7289,7.7289,7.7289,7.7289,7.7289,7.7289,7.646,7.6019,7.5763,7.447,7.3805,7.3488,7.1736,7.0991,7.0859,6.9678,6.9206,6.9225,6.9261,6.9199,6.9069,0.0,0.0,0.0,0.0,0.0,0.0,0.0,4.6461,4.7526,4.905,4.8563,4.7783,4.6966,4.5507,4.4305,0.0,0.0,0.0,0.0,0.0,0.0,0.0,0.0,0.0,0.0,0.0,0.0,4.3506,4.3506,0.0,0.0,0.0,0.0,0.0,0.0,4.3506,4.3506,4.3506,0.0,0.0,0.0,0.0,0.0,0.0,0.0,0.0,0.0,4.3224,4.3732,4.8591,5.0741,5.2299,5.7755,6.4958,7.1615,7.275,7.6682,8.1121,8.2967,8.4308,8.4397,8.1282,7.5409,6.8848,6.2912,5.685,5.1646,4.8857,4.904,4.9931,5.0655,5.2297,5.5049,5.9636,6.0517,6.3392,7.1394,7.1821,7.2812,7.6812,7.806,7.8552,7.8479,7.9213,7.9339,7.8552,7.7766,7.7289,7.7289,7.7289,7.7289,7.7289,7.7289,7.7289,7.7289,7.7289,7.7289,7.7289,7.7289,7.7289,7.7289,7.646,7.5689,7.4985,7.467,7.4108,7.3465,7.3799,7.3913,7.3762,7.2133,7.1513,7.1325,6.9858,6.8832,6.8393,0.0,0.0,0.0,0.0,0.0,0.0,4.5883,4.6571,4.7709,4.938,4.882,4.8186,4.7856,4.6388,4.4892,4.3616,0.0,0.0,0.0,0.0,0.0,0.0,0.0,0.0,0.0,0.0,4.3506,4.3506,4.3506,0.0,0.0,0.0,0.0,0.0,0.0,4.3506,4.3506,4.3506,0.0,0.0,0.0,0.0,0.0,0.0,0.0,0.0,0.0,0.0,4.3442,4.5178,4.7015,4.8697,4.9549,5.5277,6.2849,6.893,7.4056,7.8646,8.2731,8.4669,8.4898,8.2183,7.5034,6.7407,6.2671,5.6235,5.0729,4.87,4.937,5.0398,5.0729,5.2113,5.3985,5.6418,5.6785,5.8914,6.5081,6.5668,6.7871,7.4368,7.5873,7.7157,7.9119,8.0057,7.9984,7.8699,7.8295,7.7839,7.7326,7.7289,7.7289,7.7289,7.7289,7.7289,7.7289,7.7289,7.7289,7.7289,7.7289,7.751,7.7852,7.7023,7.6665,7.6654,7.5605,7.4974,7.4596,7.3829,7.3511,7.343,7.2594,7.1997,7.1531,7.1167,7.0512,6.9856,0.0,0.0,0.0,0.0,0.0,4.6278,4.5957,4.6571,4.7672,4.9344,4.904,4.86,4.8333,4.6874,4.5333,4.3983,4.3653,0.0,0.0,0.0,0.0,0.0,0.0,0.0,0.0,0.0,4.3506,4.3506,4.3506,4.3506,0.0,0.0,4.3506,4.3506,0.0,0.0,0.0,0.0,0.0,0.0,0.0,0.0,0.0,0.0,0.0,0.0,0.0,0.0,0.0,0.0,0.0,4.5833,4.4574,4.801,5.4215,6.2774,6.9611,7.5352,7.9806,8.2671,8.3728,8.1048,7.3634,6.5925,6.1814,5.5464,5.0031,4.86,4.9444,5.0508,5.0765,5.194,5.3188,5.4216,5.4583,5.6345,6.0933,6.1814,6.442,7.1152,7.2642,7.45,7.8002,7.9947,8.0351,7.8736,7.8589,7.8222,7.7362,7.7289,7.7289,7.7289,7.7289,7.7289,7.7289,7.7289,7.7411,7.7614,7.7614,7.7946,7.8551,7.7652,7.7379,7.7489,7.6258,7.5586,7.5305,7.4312,7.3887,7.3811,7.3119,7.2672,7.2322,7.196,7.1591,7.1245,0.0,0.0,0.0,0.0,0.0,0.0,4.5773,4.6571,4.7672,4.9297,4.9564,4.927,4.837,4.6874,4.5553,4.4773,4.3975,0.0,0.0,0.0,0.0,0.0,0.0,0.0,0.0,0.0,4.3506,4.3506,4.3506,4.3506,4.3506,4.3506,4.3506,4.3506,0.0,0.0,0.0,0.0,0.0,0.0,0.0,0.0,0.0,0.0,0.0,0.0,0.0,0.0,0.0,0.0,0.0,0.0,0.0,4.5269,4.7292,5.3977,6.312,7.144,7.3302,7.7341,8.0277,7.6974,7.0697,6.4261,6.015,5.4252,4.9344,4.8489,4.9003,4.9858,5.0655,5.1463,5.2538,5.4142,5.5071,5.7017,6.1019,6.2291,6.4016,6.737,6.8458,7.0536,7.4573,7.861,8.0351,7.8736,7.8589,7.8222,7.7362,7.7289,7.7289,7.7289,7.7289,7.7289,7.7289,7.7289,7.7622,7.8295,7.8295,7.8589,7.916,7.8296,7.7466,7.6693,7.6396,7.5826,7.5165,7.5725,7.5962,7.5808,7.4154,7.3962,7.4353,7.186,7.1437,7.2059,0.0,0.0,0.0,0.0,0.0,0.0,0.0,4.5764,4.6874,4.8489,4.8223,4.8003,4.826,4.6351,4.4993,4.4737,4.3975,0.0,0.0,0.0,0.0,0.0,0.0,0.0,0.0,0.0,4.3506,4.3506,4.3506,4.3506,4.3506,4.3506,4.3506,4.3506,4.3506,4.3506,0.0,0.0,0.0,0.0,0.0,0.0,0.0,0.0,0.0,0.0,0.0,0.0,0.0,0.0,0.0,0.0,0.0,0.0,0.0,4.8274,5.5648,6.368,6.7019,6.9889,7.1248,6.8568,6.3649,5.8866,5.6492,5.2197,4.8636,4.837,4.9444,5.0508,5.0765,5.1893,5.3188,5.4216,5.5071,5.6246,5.807,6.0921,6.4444,6.8825,7.4441,7.8479,7.9764,8.0571,8.0571,7.9522,7.8919,7.8222,7.7362,7.7289,7.7289,7.7289,7.7289,7.7289,7.7289,7.7753,7.8114,7.8309,7.8716,7.8931,7.8952,7.8106,7.7465,7.7075,7.6405,7.5932,7.5718,7.5924,7.6015,7.5938,7.5438,7.4661,7.3776,7.2969,7.2091,7.1283,0.0,0.0,0.0,0.0,0.0,0.0,0.0,4.5773,4.6361,4.7672,4.7159,4.6828,4.7352,4.5764,4.47,4.47,4.3975,0.0,0.0,0.0,0.0,0.0,0.0,0.0,0.0,4.3506,4.3506,4.3506,4.3791,4.38,4.3506,4.38,4.38,4.3506,4.3506,4.3506,0.0,0.0,0.0,0.0,0.0,0.0,4.3506,0.0,0.0,0.0,0.0,0.0,0.0,0.0,0.0,0.0,0.0,0.0,0.0,0.0,4.9581,5.5269,6.0272,6.3686,6.5338,6.3209,5.9501,5.5941,5.4326,5.1012,4.8296,4.8296,4.9618,5.0802,5.0802,5.2113,5.3361,5.3885,5.4876,5.5879,5.6712,6.026,6.4481,6.9082,7.5726,7.991,7.991,8.0828,8.1122,8.0314,7.9507,7.8662,7.7839,7.7724,7.7666,7.7666,7.7666,7.7666,7.7666,7.8312,7.8754,7.8962,7.9358,7.9449,7.9218,7.8329,7.7725,7.7253,7.6361,7.6015,0.0,7.6015,7.6015,7.5938,7.5284,7.4584,7.3853,7.2853,7.2052,7.1321,0.0,0.0,0.0,0.0,0.0,0.0,0.0,4.6425,4.6241,4.7003,4.6388,4.5883,4.5883,4.5177,4.4663,4.4626,0.0,0.0,0.0,0.0,0.0,0.0,0.0,0.0,0.0,4.3506,4.3506,4.3506,4.4268,4.4268,4.3616,4.4305,4.4268,4.3579,4.3543,4.3506,0.0,0.0,0.0,0.0,4.3506,4.3506,0.0,0.0,0.0,0.0,0.0,0.0,0.0,0.0,0.0,0.0,0.0,0.0,0.0,0.0,0.0,0.0,0.0,5.818,6.1325,5.982,5.7226,5.463,5.3177,5.0498,0.0,4.8296,4.9618,5.0802,5.0802,5.2113,5.3214,5.3287,5.4583,5.5879,5.6712,6.0517,6.4738,6.8848,7.356,7.635,7.613,7.969,8.1705,8.0945,8.0152,7.9375,7.8686,7.8452,7.8339,7.8339,7.8392,7.8392,7.8339,7.8912,7.947,8.0001,8.0001,7.9878,7.9585,7.8784,7.7984,7.7176,7.6361,7.6015,7.6015,7.6015,7.6015,7.5822,7.4199,7.4007,7.4315,7.1898,7.1475,7.1982,0.0,0.0,0.0,0.0,0.0,0.0,0.0,0.0,0.0,0.0,4.6388,4.5883,4.5883,4.5177,4.4443,0.0,0.0,0.0,0.0,0.0,0.0,0.0,0.0,0.0,0.0,4.3506,4.3506,4.3506,4.369,4.4011,4.4406,4.3975,4.4011,4.4378,4.3763,4.3506,0.0,0.0,0.0,0.0,4.3506,4.3506,0.0,0.0,0.0,0.0,4.3506,4.3506,0.0,0.0,0.0,0.0,0.0,0.0,0.0,0.0,4.4342,4.5324,4.6828,0.0,5.0708,5.0315,4.9654,4.9177,0.0,4.8847,4.8296,4.8296,4.9618,5.0802,5.0802,5.2113,5.3398,5.4032,5.4961,5.5879,5.6712,6.2939,6.8958,7.2995,7.7268,7.8846,7.635,7.8699,8.0213,7.9885,7.9126,7.878,7.9054,7.9002,7.8986,7.8986,7.9436,7.9447,7.8986,7.8971,7.9045,7.9171,7.8969,7.8538,7.7861,7.7676,7.7138,7.6284,7.6092,7.6015,7.6015,7.6015,7.6015,7.5899,7.4815,7.4161,7.3623,7.236,7.1591,7.1168,0.0,0.0,0.0,0.0,0.0,0.0,0.0,0.0,0.0,0.0,0.0,0.0,0.0,0.0,0.0,0.0,0.0,0.0,0.0,0.0,0.0,0.0,0.0,4.3506,4.3506,4.3506,4.3506,4.3506,4.424,4.4635,4.47,4.4635,4.4635,4.4663,4.3873,4.3506,0.0,0.0,0.0,4.3506,4.3506,0.0,0.0,0.0,0.0,0.0,4.3506,4.3506,0.0,4.3506,4.3506,4.3506,0.0,0.0,0.0,0.0,4.38,4.4158,4.4158,4.5581,4.7113,4.7113,4.7369,4.7746,4.8186,4.8296,4.8416,4.882,4.9921,5.0912,5.1279,5.2512,5.3699,5.4295,5.5238,5.6948,6.0048,6.472,6.9669,7.4662,7.734,7.8516,7.7855,7.9258,8.0148,8.0079,7.9559,7.9417,7.9729,7.9647,7.961,7.961,8.024,8.0077,7.9079,7.9228,7.9126,7.8705,7.8569,7.8099,7.7292,7.7292,7.6823,7.6015,7.6015,7.5784,7.5399,7.5399,7.5207,7.4784,7.3899,7.3283,7.2783,7.1937,7.1283,7.0898,0.0,0.0,0.0,0.0,0.0,0.0,0.0,0.0,0.0,0.0,0.0,0.0,0.0,0.0,0.0,0.0,0.0,0.0,0.0,0.0,0.0,0.0,0.0,4.3543,4.369,4.369,4.3726,4.3873,4.5223,4.5626,4.5067,4.5626,4.548,4.4663,4.3873,4.3506,0.0,0.0,4.3506,4.3506,4.3506,0.0,0.0,0.0,0.0,0.0,0.0,0.0,0.0,4.3506,4.3506,4.3506,4.3506,0.0,0.0,0.0,0.0,0.0,4.38,4.5544,4.7223,4.6966,4.7526,4.815,4.826,4.8416,4.871,4.9463,5.0335,5.1206,5.1877,5.305,5.4012,5.4327,5.5886,5.9096,6.4988,6.6714,6.9396,7.4772,7.613,7.7244,7.8863,8.0025,8.0634,8.0592,8.0466,8.0405,8.0496,8.0367,8.023,8.023,8.0783,8.0455,7.9065,7.9525,7.9285,7.833,7.833,7.7907,7.7099,7.7099,7.6707,7.6015,7.6015,7.5515,7.47,7.47,7.4238,7.3392,7.2552,7.2213,7.2098,7.1206,7.0898,7.0898,0.0,0.0,0.0,0.0,0.0,0.0,0.0,0.0,0.0,0.0,0.0,0.0,0.0,0.0,0.0,0.0,0.0,0.0,0.0,0.0,0.0,4.5562,4.424,4.3836,4.4516,4.4516,4.4856,4.5516,4.5773,4.6177,4.6709,4.6177,4.548,4.4663,4.3873,4.3506,4.3506,4.3506,4.3506,4.3506,4.3506,0.0,0.0,0.0,0.0,0.0,0.0,0.0,0.0,4.3506,4.3506,4.3506,4.3506,0.0,0.0,0.0,0.0,0.0,4.5158,4.6801,4.7783,4.6434,4.6682,4.7443,4.815,4.8857,4.9454,4.9574,5.0775,5.184,5.1987,5.3261,5.4312,5.4373,5.8003,6.3015,6.9402,7.1047,7.2157,7.3815,7.6935,7.8034,7.5631,7.8479,8.0365,8.0203,8.0165,8.0373,8.0941,8.0957,8.0959,8.0959,8.1061,8.0638,7.9683,7.9746,7.9015,7.7484,7.7484,7.7022,7.6207,7.6207,7.613,7.6015,7.6015,7.5515,7.47,7.47,7.4238,7.3392,7.2552,7.2213,7.2098,7.1206,7.0898,7.0898,0.0,0.0,0.0,0.0,0.0,0.0,0.0,0.0,0.0,0.0,0.0,0.0,0.0,0.0,0.0,0.0,0.0,0.0,0.0,0.0,0.0,4.592,4.5195,4.4966,4.5333,4.5369,4.5727,4.6535,4.6975,4.7379,4.7709,4.6471,4.548,4.4663,4.3873,4.3506,4.3506,4.3506,4.3506,4.3506,0.0,0.0,0.0,0.0,0.0,0.0,0.0,0.0,0.0,0.0,4.3506,4.3506,4.3506,0.0,0.0,0.0,0.0,0.0,4.4929,4.6104,4.7131,4.7765,4.882,4.9627,4.9123,4.9637,5.0518,5.1353,5.2123,5.2894,5.3786,5.5823,5.8063,6.027,6.3002,6.6165,6.9869,7.0463,7.1577,7.4296,7.5988,7.6951,7.7065,7.8995,8.0186,8.0096,8.0445,8.0767,8.1085,8.1093,8.1093,8.1093,8.1093,8.0669,7.9815,7.9815,7.8977,7.7292,7.7292,7.6823,7.6015,7.6015,7.6015,7.5976,7.5515,7.4815,7.4007,7.3553,7.286,7.2052,7.1668,7.1514,7.1437,7.1052,7.0898,7.0898,0.0,0.0,0.0,0.0,0.0,0.0,0.0,0.0,0.0,0.0,0.0,0.0,0.0,0.0,0.0,0.0,0.0,0.0,0.0,0.0,4.7122,4.6507,4.6471,4.6471,4.6471,4.6471,4.6938,4.7966,4.859,4.8783,4.8563,4.6764,4.5553,4.4957,4.3938,4.3506,4.3506,4.3506,4.3506,4.3506,0.0,0.0,0.0,0.0,0.0,0.0,0.0,0.0,0.0,0.0,0.0,0.0,0.0,0.0,0.0,4.3506,4.3616,4.402,4.4993,4.6131,4.7498,4.9417,5.0665,5.1363,5.1079,5.1473,5.238,5.3985,5.4462,5.4866,5.5721,5.8308,6.1549,6.5394,6.7596,6.9369,7.0915,7.1125,7.2323,7.5664,7.6013,7.6858,7.918,7.9959,8.0333,8.0333,8.0822,8.1093,8.1093,8.1093,8.1093,8.1093,8.1093,8.0785,8.0123,7.9892,7.8977,7.7292,7.7292,7.6823,7.6015,7.6015,7.6015,7.5938,7.5084,7.4238,7.343,7.2552,7.1675,7.0898,7.0898,7.0898,7.0898,7.0898,7.0898,7.0898,0.0,0.0,0.0,0.0,0.0,0.0,0.0,0.0,0.0,0.0,0.0,0.0,0.0,0.0,0.0,0.0,0.0,0.0,0.0,0.0,4.8186,4.8113,4.8113,4.8113,4.8113,4.8113,4.893,5.0535,5.0572,5.0251,4.9463,4.7031,4.5883,4.5736,4.4204,4.3506,4.3506,4.3506,4.3506,4.3506,4.3506,0.0,0.0,0.0,0.0,0.0,0.0,0.0,0.0,0.0,0.0,0.0,0.0,0.0,4.3506,4.3506,4.4011,4.4957,4.6526,4.8663,5.0508,5.0655,5.0225,5.0712,5.4337,5.5218,5.5695,5.7299,5.8242,5.8352,5.6957,5.9316,6.2573,6.5917,6.966,7.2951,7.5308,7.6787,7.7747,7.8064,7.9048,7.9798,8.0018,8.0626,8.1045,8.1045,8.1077,8.1093,8.1093,8.1093,8.1093,8.1093,8.1093,8.1054,8.1016,8.0208,7.8977,7.7292,7.7292,7.6823,7.6015,7.6015,7.6015,7.5938,7.5084,7.4238,7.343,7.2552,7.1675,7.0898,7.0898,7.0898,7.0898,7.0898,7.0898,7.0898,0.0,0.0,0.0,0.0,0.0,0.0,0.0,0.0,0.0,0.0,0.0,0.0,0.0,0.0,0.0,0.0,0.0,0.0,0.0,4.8296,4.8296,4.8296,4.8296,4.8563,4.9087,4.9123,4.9894,5.1536,5.1059,5.0655,5.0288,4.7819,4.6645,4.6608,4.548,4.5011,4.5011,4.5011,4.5011,4.5011,4.5011,4.5011,0.0,0.0,0.0,0.0,0.0,0.0,0.0,0.0,4.3506,4.3506,4.3506,4.3836,4.4268,4.4268,4.4819,4.57,4.6782,4.8563,5.0298,5.1279,5.205,5.3235,5.5757,5.7116,5.8143,5.9281,6.1361,6.2793,6.2205,6.3906,6.6292,6.9032,7.2459,7.5389,7.7194,7.7946,7.8588,7.9324,7.9837,8.0239,8.066,8.0959,8.1093,8.1093,8.1093,8.1093,8.1093,8.1093,8.1093,8.1093,8.1093,8.1093,8.1093,7.9708,7.8669,7.8023,7.7561,7.6823,7.6015,7.6015,7.6015,7.5938,7.4546,7.3776,7.3392,7.1975,7.1206,7.0898,7.0898,7.0898,7.0898,7.0898,7.0898,7.0898,0.0,0.0,0.0,0.0,0.0,0.0,0.0,0.0,0.0,0.0,0.0,0.0,0.0,0.0,0.0,0.0,0.0,0.0,4.8296,4.8296,4.8296,4.8296,4.8296,4.871,4.9574,4.9858,5.0629,5.1987,5.1206,5.0655,5.0362,4.815,4.7113,4.7076,4.625,4.5883,4.5883,4.5883,4.5883,4.5883,4.5883,4.5883,0.0,0.0,0.0,0.0,0.0,0.0,0.0,0.0,4.3864,4.3864,4.3864,4.4268,4.4737,4.4993,4.5654,4.6388,4.6966,4.8526,5.0298,5.1657,5.3408,5.5537,5.8437,5.9979,6.1251,6.3099,6.4237,6.5081,6.5595,6.6769,6.8398,7.0573,7.4218,7.7131,7.8167,7.8615,7.9163,7.9989,8.0296,8.0599,8.1061,8.1093,8.1093,8.1093,8.1093,8.1093,8.1093,8.1093,8.1093,8.1093,8.1093,8.1093,8.1093,7.9369,7.8484,7.8484,7.7407,7.6592,7.5976,7.5707,7.5592,7.5515,7.3822,7.3084,7.2976,7.1514,7.0898,7.0898,7.0898,7.0898,7.0898,7.0898,7.0898,7.086,0.0,0.0,0.0,0.0,0.0,0.0,0.0,0.0,0.0,0.0,0.0,0.0,0.0,0.0,0.0,0.0,0.0,0.0,4.8296,4.8296,4.8296,4.8296,4.8296,4.871,4.9574,5.0372,5.1206,5.1987,5.1206,5.0398,4.9574,4.7893,4.7113,4.7076,4.6287,4.5957,4.592,4.592,4.592,4.592,4.592,4.592,4.592,0.0,0.0,0.0,0.0,0.0,0.0,0.0,4.47,4.47,4.47,4.4737,4.4883,4.5663,4.6498,4.7113,4.7113,4.892,5.1022,5.184,5.3859,5.7127,6.2818,6.4103,6.5241,6.9265,6.6916,6.4653,6.6256,6.721,6.8288,6.9867,7.4704,7.8309,7.8322,7.9335,8.0115,8.0125,8.0707,8.1093,8.1093,8.1093,8.1093,8.1093,8.1093,8.1093,8.1093,8.1093,8.1093,8.1093,8.1093,8.1093,8.1093,7.9369,7.8484,7.8484,7.6784,7.6015,7.5976,7.513,7.47,7.4623,7.2937,7.2213,7.2136,7.1245,7.0898,7.0898,7.0898,7.0898,7.0905,7.0905,7.0905,7.0796,0.0,0.0,0.0,0.0,0.0,0.0,0.0,0.0,0.0,0.0,0.0,0.0,0.0,0.0,0.0,0.0,0.0,0.0,4.8296,4.8296,4.8296,4.8296,4.8296,4.8406,4.8673,4.9527,5.0629,5.1987,5.1206,5.0398,4.961,4.9087,4.8866,4.8866,4.9187,4.904,4.8499,4.8499,4.8169,4.7609,4.7609,4.7609,4.7609,0.0,0.0,0.0,0.0,0.0,0.0,0.0,0.0,0.0,4.5553,4.6324,4.7159,4.6828,4.7755,4.8866,4.8866,5.0225,5.1977,5.3335,5.6345,6.0162,6.4751,6.4457,6.4664,6.9876,6.9068,6.7981,6.9582,7.055,7.137,7.2277,7.5237,7.7966,7.9371,7.9878,8.0287,8.075,8.0975,8.1093,8.1093,8.1093,8.1093,8.1093,8.1093,8.1093,8.1093,8.1093,8.1093,8.1093,8.0516,8.0208,8.0208,7.8515,7.7676,7.7638,7.6515,7.6015,7.5976,7.5745,7.5284,7.4623,7.3584,7.2783,7.2098,7.0667,7.0052,7.0052,7.0052,7.0471,7.1092,7.1092,7.1216,7.1296,0.0,0.0,0.0,0.0,0.0,0.0,0.0,0.0,0.0,0.0,0.0,0.0,0.0,0.0,0.0,0.0,0.0,0.0,0.0,4.8489,4.8296,4.8296,4.8636,4.9114,4.9774,4.9968,5.0555,5.1499,5.0729,4.9894,4.9087,4.9454,4.961,4.9647,5.0435,5.0372,4.961,4.961,4.9307,4.882,4.882,4.882,4.882,0.0,0.0,0.0,0.0,0.0,0.0,0.0,0.0,0.0,4.6388,4.7049,4.7783,4.7636,4.8526,4.961,4.961,5.0996,5.3004,5.528,5.8621,6.2426,6.6512,6.7797,6.9142,7.2922,7.1894,7.083,7.2445,7.2788,7.3195,7.4235,7.6604,7.8712,7.9912,8.0333,8.0643,8.1061,8.1093,8.1093,8.1093,8.1093,8.1093,8.1093,8.1093,8.1093,8.1093,8.0785,8.0592,8.0592,7.9746,7.9285,7.9285,7.7938,7.7292,7.7292,7.6053,7.5476,7.5476,7.5168,7.47,7.4161,7.2969,7.2168,7.1566,7.0304,6.9776,6.9749,6.9485,6.975,7.0308,7.0308,7.0592,7.0933,0.0,0.0,0.0,0.0,0.0,0.0,0.0,0.0,0.0,0.0,4.6124,0.0,0.0,0.0,0.0,0.0,0.0,0.0,0.0,0.0,4.8333,4.8406,4.9233,5.0372,5.1877,5.1169,5.0802,5.0802,5.0004,4.9197,4.8453,4.9307,4.9757,4.9858,5.0655,5.0508,4.9711,4.9711,4.9684,4.961,4.961,4.9647,4.9721,4.9647,0.0,0.0,0.0,0.0,0.0,0.0,0.0,0.0,4.7223,4.7259,4.7489,4.8186,4.905,4.9747,4.9904,5.1646,5.4205,5.7519,6.1043,6.4701,6.8678,7.301,7.635,7.6775,7.4757,7.3391,7.4934,7.4472,7.4387,7.6019,7.8419,8.0134,8.0182,8.0724,8.1093,8.1093,8.1093,8.1093,8.1093,8.1093,8.1093,8.1093,8.1016,8.0977,8.0977,8.0239,7.9738,7.9669,7.89,7.8446,7.8407,7.7599,7.7138,7.7061,7.5476,7.4661,7.4584,7.3815,7.349,7.3332,7.1672,7.0921,7.0786,7.017,6.9919,6.9866,6.9255,6.9023,6.9036,6.9036,6.9516,7.0002,0.0,0.0,0.0,0.0,0.0,0.0,0.0,0.0,0.0,0.0,0.0,0.0,0.0,0.0,0.0,0.0,0.0,0.0,0.0,0.0,4.86,4.927,5.0105,5.0692,5.1059,5.0875,5.0802,5.0802,5.0004,4.95,4.9344,5.0151,5.0886,5.151,5.2333,5.1903,5.0545,5.0545,5.0188,4.961,4.961,4.9968,5.0472,4.9821,4.95,0.0,0.0,0.0,0.0,0.0,0.0,0.0,4.8039,4.8526,4.9087,4.927,4.9894,5.0839,5.2087,5.3739,5.6025,5.9869,6.5668,7.1138,7.3927,7.5821,7.6371,7.4023,7.4977,7.653,7.7409,7.7395,7.7666,7.8999,7.971,8.0296,8.083,8.0999,8.1093,8.1093,8.1093,8.1093,8.1093,8.1093,8.1093,8.1093,8.0477,8.0092,8.0092,7.9892,7.9477,7.8792,7.86,7.8215,7.7561,7.6707,7.5938,7.5238,7.4892,7.4353,7.3738,7.3584,7.3202,7.2645,7.1774,7.0968,7.0359,7.0207,7.0148,7.0113,6.9996,7.0008,7.0171,7.0171,6.9907,6.9557,0.0,0.0,0.0,0.0,0.0,0.0,0.0,0.0,0.0,0.0,0.0,0.0,0.0,0.0,0.0,0.0,0.0,0.0,0.0,0.0,4.9884,5.0702,5.1143,5.1536,5.193,5.1573,5.1353,5.1353,5.0592,5.0188,5.0188,5.0986,5.161,5.2024,5.2847,5.2297,5.0802,5.0802,5.0545,5.0188,5.0188,5.0665,5.1279,5.0482,4.9931,4.9537,4.9087,0.0,0.0,0.0,0.0,0.0,0.0,0.0,5.0188,5.0188,5.1022,5.2113,5.2957,5.5233,5.875,6.4645,7.066,7.5576,7.7202,7.7896,7.7747,7.6061,7.6806,7.7988,7.8602,7.8988,7.9358,7.9989,8.0361,8.0716,8.1061,8.1093,8.1093,8.1093,8.1093,8.1093,8.1093,8.1093,8.0939,8.0516,8.0046,7.9631,7.9208,7.8823,7.84,7.7946,7.7522,7.7099,7.6669,7.6245,7.5553,7.4707,7.3941,7.3011,7.1948,7.2663,7.2656,7.1983,7.1198,7.0622,7.0129,6.9387,6.9338,6.9697,6.9364,6.9564,7.0021,6.9981,6.9994,7.0039,0.0,0.0,0.0,0.0,0.0,0.0,0.0,0.0,0.0,0.0,0.0,0.0,0.0,0.0,0.0,0.0,0.0,0.0,0.0,0.0,0.0,5.1987,5.2123,5.2527,5.3177,5.2564,5.2197,5.2197,5.1536,5.1279,5.1426,5.184,5.206,5.2234,5.2884,5.237,5.1022,5.1022,5.1022,5.1022,5.1022,5.1499,5.2123,5.1316,5.0582,5.0014,4.9867,4.9344,4.8857,4.9564,0.0,0.0,0.0,0.0,5.0839,5.0986,5.2122,5.335,5.3393,5.6717,6.1927,6.9115,7.4356,7.8002,7.8783,7.9085,7.9233,7.9335,7.889,7.8628,7.9244,7.9747,8.0144,8.0239,8.0741,8.1093,8.1093,8.1093,8.1093,8.1093,8.1093,8.1093,8.1093,8.0977,8.0592,7.9854,7.9508,7.9054,7.833,7.7676,7.7215,7.7092,7.6515,7.613,7.6015,7.588,7.5376,7.449,7.2988,7.1547,7.0308,7.1585,7.1839,7.1294,7.0578,7.0275,7.0208,6.8905,6.882,6.9412,6.8864,6.8984,6.9492,6.9609,7.0,7.0469,0.0,0.0,0.0,0.0,0.0,0.0,0.0,0.0,0.0,0.0,4.5635,0.0,0.0,0.0,0.0,0.0,0.0,0.0,5.1987,0.0,0.0,5.1987,5.2674,5.3104,5.3214,5.3104,5.3031,5.3031,5.292,5.3251,5.3885,5.2601,5.238,5.3031,5.3141,5.2711,5.184,5.184,5.184,5.184,5.184,5.2307,5.2957,5.216,5.1767,5.1583,5.0875,5.0545,5.0462,5.0618,5.0655,0.0,0.0,0.0,5.0949,5.1646,5.2782,5.3859,5.417,5.9083,6.5184,6.9493,7.3753,7.7074,7.7892,7.8658,7.9347,7.9878,7.9502,7.9267,7.9878,8.0066,8.0306,8.0871,8.1053,8.1093,8.1093,8.1093,8.1093,8.1093,8.1093,8.1093,8.1093,8.0439,7.9931,7.9815,7.8438,7.7592,7.7484,7.7369,7.6938,7.6207,7.6784,7.6746,7.6015,7.542,7.4701,7.3828,7.2345,7.1222,7.0458,7.0678,7.0717,7.062,7.0645,7.062,7.062,7.0427,7.0389,7.0507,7.039,6.9961,6.9492,7.0234,7.0117,6.957,0.0,0.0,0.0,0.0,0.0,0.0,0.0,0.0,0.0,0.0,0.0,4.6794,0.0,0.0,0.0,5.1442,5.2197,5.2674,5.2674,5.2674,5.2674,5.2674,5.2994,5.3214,5.3214,5.3214,5.3214,5.3214,5.3654,5.4069,5.4399,5.4153,5.4226,5.4546,5.4546,5.3849,5.2674,5.2674,5.2417,5.1987,5.1987,5.2491,5.3104,5.2307,5.1987,5.195,5.161,5.1169,5.0875,5.1316,5.1463,5.1463,5.1463,0.0,0.0,0.0,5.3903,5.5827,5.8534,6.2456,6.6701,7.0678,7.4362,7.7386,7.8675,7.9638,8.0362,8.0608,8.0445,8.0362,8.0608,8.0643,8.075,8.1061,8.1093,8.1093,8.1093,8.1093,8.1093,8.1093,8.1093,8.1093,8.1093,8.0323,7.9815,7.9815,7.8246,7.7292,7.7292,7.6823,7.6399,7.6015,7.6487,7.6308,7.5446,7.5245,7.4031,7.1842,7.1697,7.1012,6.9869,6.9869,6.9869,6.9871,6.9452,6.9297,6.9258,6.8789,6.8867,6.9336,6.9805,7.0039,7.0156,7.0547,7.0781,7.0781,0.0,0.0,0.0,0.0,0.0,0.0,0.0,0.0,0.0,0.0,0.0,0.0,0.0,0.0,0.0,0.0,5.2747,5.3214,5.3214,5.3398,5.3508,5.3508,5.3691,5.3812,5.3812,5.3812,5.3812,5.3812,5.4399,5.4803,5.5023,5.5611,5.6124,5.6492,5.5879,5.506,5.4095,5.3691,5.3298,5.2905,5.2685,5.2968,5.3434,5.2821,5.2611,5.2574,5.238,5.1903,5.1499,5.2087,5.2428,5.2611,5.2611,5.3151,0.0,0.0,0.0,5.734,6.1431,6.4125,6.6674,7.029,7.396,7.7015,7.8515,7.9823,8.0785,8.0785,8.0785,8.0823,8.1054,8.1093,8.1093,8.1093,8.1093,8.1093,8.1093,8.09,8.0785,8.0785,8.0785,8.0669,8.0477,8.0054,7.9631,7.9208,7.8015,7.7215,7.6984,7.6361,7.602,7.6079,7.6207,7.589,7.5095,7.4635,7.3051,7.0462,7.0936,7.0531,6.9414,6.9414,6.9414,6.9375,6.8555,6.8203,6.8164,6.75,6.7617,6.8281,6.9101,6.9805,7.0469,7.0859,7.1445,7.1914,0.0,0.0,0.0,0.0,0.0,0.0,0.0,0.0,0.0,0.0,0.0,0.0,4.8576,5.0607,5.1956,5.1987,5.2747,5.3214,5.3214,5.3911,5.4326,5.4326,5.5071,0.0,5.5475,5.5475,5.5475,5.5475,5.5511,5.5941,5.6664,5.6701,5.7545,5.8902,5.6602,5.5978,5.6517,5.4987,5.473,5.5365,5.4583,5.4289,5.4326,5.4289,5.4289,5.4179,5.3398,5.3104,5.3067,5.3104,5.3618,5.4289,5.4289,5.484,5.5547,0.0,0.0,0.0,6.0188,6.2493,6.4648,6.6844,7.1154,7.5084,7.5976,7.8092,7.9854,7.9854,7.9854,8.0123,8.0939,8.1093,8.1093,8.1093,8.1093,8.1093,8.1093,8.04,7.9854,7.9854,7.9854,7.9554,7.8715,7.9323,7.9131,7.7561,7.7369,7.6945,7.6092,7.6015,7.6106,7.6267,7.6284,7.5983,7.5269,7.3018,7.1484,7.0664,6.9961,6.9531,6.9414,6.9453,6.9492,6.9453,6.8594,6.8203,6.8203,6.8164,6.8164,6.8281,6.9101,6.9453,6.9765,7.1367,7.1953,7.1992,0.0,0.0,0.0,0.0,0.0,0.0,0.0,0.0,0.0,0.0,0.0,0.0,0.0,5.1282,5.2265,5.2716,5.3518,5.4179,5.4693,5.4997,5.5181,5.5181,5.5438,5.5585,5.5585,5.5585,5.5585,5.5585,5.6124,5.6528,5.6811,5.7875,5.8646,5.9159,5.7776,5.7299,5.7483,5.6418,5.5794,5.5585,5.5291,5.5181,5.5181,5.5181,5.5181,5.5144,5.484,5.473,5.473,5.473,5.4913,5.5181,5.5181,5.5365,5.5854,5.7127,5.7845,5.8718,6.1025,6.2554,6.4256,6.7211,7.0129,7.2783,7.4707,7.6746,7.8207,7.8207,7.8592,7.9054,7.9369,7.99,8.0285,8.0285,8.0746,8.0708,7.96,7.9631,7.9592,7.9015,7.8977,7.8823,7.8523,7.8323,7.8169,7.8099,7.7053,7.6623,7.7003,7.6506,7.6267,7.6501,7.6091,7.5247,7.4023,7.26,7.148,7.0703,7.0976,7.0508,6.9414,6.9453,6.918,6.8633,6.7734,6.7695,6.8164,6.7617,6.7383,6.7461,6.8281,6.8945,6.9492,7.0117,7.1055,7.1914,0.0,0.0,0.0,0.0,0.0,0.0,0.0,0.0,0.0,4.7973,0.0,0.0,0.0,0.0,5.2801,5.3549,5.4326,5.5034,5.5585,5.5842,5.5978,5.5978,5.6246,5.6393,5.6393,5.6136,5.6136,5.6393,5.6675,5.6921,5.7226,5.8279,5.8939,5.9148,5.8364,5.8437,5.9171,5.8364,5.7556,5.6785,5.6503,5.6393,5.6429,5.6712,5.6638,5.6393,5.6393,5.6062,5.5585,5.5585,5.5768,5.5978,5.5978,5.6305,5.6916,5.8236,5.8933,5.9637,6.1241,6.2287,6.3666,6.6782,6.859,7.0283,7.286,7.4784,7.6092,7.6361,7.7099,7.783,7.8407,7.8746,7.9169,7.97,8.0285,8.0246,7.9092,7.8938,7.8746,7.8176,7.8099,7.7984,7.7676,7.7747,7.7785,7.774,7.7042,7.6813,7.7229,7.674,7.6346,7.6274,7.5315,7.4321,7.332,7.1875,7.0859,7.0312,7.0273,6.9844,6.9023,6.9336,6.914,6.8594,6.8008,6.7773,6.7734,6.7148,6.6914,6.6992,6.8164,6.8945,6.9453,7.0078,7.1015,7.1914,0.0,0.0,0.0,0.0,0.0,0.0,0.0,0.0,0.0,4.88,0.0,0.0,0.0,0.0,0.0,5.4399,5.5181,5.5658,5.5658,5.6418,5.6847,5.6847,5.7593,5.7997,5.7997,5.7226,5.7226,5.7997,5.7226,5.7226,5.7997,5.8033,5.8437,5.9159,5.8437,5.9391,6.152,6.0676,5.993,5.9196,5.8327,5.8033,5.818,5.8902,5.8719,5.807,5.8107,5.709,5.5732,5.5732,5.6271,5.6884,5.6884,5.7719,5.8806,5.9257,5.976,6.021,0.0,0.0,0.0,6.5211,6.6442,6.7673,7.0206,7.2122,7.3584,7.443,7.5284,7.6438,7.8061,7.7792,7.7823,7.9431,7.9738,7.9738,7.97,7.8323,7.7292,7.7215,7.726,7.6922,7.6029,7.7627,7.8037,7.6378,7.7157,7.7357,7.6628,7.6558,7.6247,7.5588,7.4053,7.3242,7.3203,7.0742,6.9492,6.9492,6.7773,6.7383,6.8242,6.9023,6.9375,6.9414,6.9453,6.8476,6.6914,6.6914,6.6914,6.707,6.8672,6.9375,6.9609,7.1289,7.1953,7.1992,0.0,0.0,0.0,0.0,0.0,0.0,4.9689,5.0117,5.066,0.0,0.0,0.0,5.3665,5.4436,5.5244,5.6088,5.6345,5.6712,5.7299,5.7556,5.7666,5.7666,5.7886,5.7997,5.7997,5.7776,5.7776,5.7997,5.7776,5.7776,5.7997,5.8609,5.8976,5.9233,6.0199,6.0639,6.0639,5.9245,5.9538,6.075,5.8804,5.9061,6.0493,5.9563,5.9416,5.9795,6.0382,5.9942,5.9061,5.9061,5.9208,5.9306,5.8719,5.8836,5.9221,5.9354,5.9962,6.0634,6.0763,0.0,0.0,0.0,0.0,0.0,6.7712,6.9013,7.0199,7.1668,7.3161,7.4315,7.4822,7.6207,7.7246,7.7092,7.8054,7.8438,7.7207,7.7207,7.6823,7.5553,7.6096,7.6002,7.4494,7.5527,7.6095,7.559,7.5253,7.5307,7.5852,7.542,7.5062,7.4876,7.3241,7.207,7.1445,7.0078,6.9414,6.9414,6.8945,6.8515,6.8203,6.8437,6.8203,6.7656,6.8281,6.793,6.6914,6.6914,6.6914,6.6953,6.7422,6.8359,6.9531,6.9961,7.0937,7.1992,0.0,0.0,0.0,0.0,0.0,5.2087,5.1389,5.1867,5.2454,0.0,0.0,0.0,5.4803,5.5611,5.6308,5.6737,5.7116,5.7483,5.796,5.7997,5.7997,5.7997,5.7997,5.7997,5.7997,5.7666,5.7666,5.7997,5.7666,5.7666,5.7997,5.8474,5.8682,5.8756,5.9685,6.0015,5.982,5.8547,5.9208,6.108,6.0676,6.1386,6.2622,6.2365,6.2316,6.2511,6.2989,6.2181,6.0896,6.0896,6.0676,6.0187,5.9049,5.9107,5.9572,5.945,5.9924,6.0533,6.0746,6.1172,6.1826,6.3006,0.0,0.0,6.5667,6.6436,6.7199,6.8552,7.0167,7.1468,7.1853,7.3707,7.513,7.4976,7.5784,7.6438,7.6515,7.6419,7.5967,7.4957,7.5116,7.4935,7.3926,7.4477,7.5048,7.5399,7.4711,7.4535,7.5168,7.4489,7.4062,7.4062,7.2734,7.1562,7.0703,7.0195,6.9765,6.9453,6.9062,6.8633,6.8203,6.8203,6.7734,6.6953,6.7812,6.7695,6.6914,6.7305,6.7226,6.6953,6.7305,6.8281,6.9531,6.9844,7.082,7.1992,0.0,0.0,5.2994,5.238,5.3445,5.3959,5.2611,5.3592,5.4509,0.0,5.462,5.495,5.5768,5.6492,5.6921,5.6921,5.7593,5.7997,5.7997,5.807,5.8143,5.8143,5.8217,5.8217,5.8143,5.7446,5.7361,5.7997,5.7299,5.7299,5.7997,5.8107,5.8107,5.7997,5.8107,5.8474,5.9049,5.851,5.9098,6.0603,6.2805,6.3919,6.4396,6.5815,6.5925,6.5325,6.5508,6.4016,6.1998,6.19,6.1263,6.0284,5.8934,5.9238,6.0078,5.9705,6.0013,6.0512,6.0863,6.1018,6.1396,6.2814,6.2781,0.0,6.4012,6.4551,6.4974,6.5743,6.7321,6.8776,6.9552,7.1206,7.2668,7.3238,7.3507,7.4452,7.6727,7.5799,7.4818,7.4761,7.433,7.395,7.3755,7.4019,7.4511,7.5292,7.4796,7.4453,7.4453,7.3633,7.3164,7.3164,7.2305,7.1406,7.043,7.0508,7.0156,6.9336,6.8672,6.8359,6.832,6.8359,6.793,6.7226,6.8008,6.789,6.7226,6.8008,6.7812,6.7148,6.8008,6.8867,6.9726,7.043,7.125,7.1992,0.0,5.3214,5.3361,5.3849,5.4179,5.4509,5.4851,5.5144,5.5365,5.5365,5.5941,5.6638,5.7446,5.7666,5.7776,5.7776,5.7923,5.7997,5.7997,5.8621,5.8976,5.8976,5.96,5.9648,5.8976,5.8829,5.8499,5.7997,5.785,5.785,5.7997,5.8646,5.8609,5.8033,5.8682,5.8682,5.8327,5.9465,6.0126,6.0456,6.0933,6.2732,6.5105,6.5398,6.5435,6.5472,6.6769,6.6072,6.4481,6.3833,6.2622,6.1397,6.15,6.1511,6.1457,6.1101,6.1802,6.2548,6.2,6.232,6.2743,6.2403,6.3249,0.0,6.2826,6.4172,6.5705,6.5865,6.7782,6.9513,6.9667,7.2168,7.3822,7.2629,7.3591,7.469,7.5345,7.458,7.3767,7.3219,7.3795,7.3686,7.2281,7.2984,7.3552,7.3747,7.3632,7.3555,7.3555,7.2734,7.2265,7.2265,7.1406,7.0234,6.8711,6.9336,6.9258,6.8476,6.8984,6.9219,6.918,6.9219,6.914,6.8984,6.918,6.9101,6.8945,6.9101,6.8672,6.8047,6.8906,6.9765,7.0469,7.0625,7.125,7.1992,5.3214,5.3508,5.3922,5.4326,5.506,5.5721,5.6124,5.6198,5.6345,5.676,5.7152,5.7556,5.796,5.8364,5.8609,5.8609,5.8988,5.9208,5.9208,5.9563,5.9783,5.9783,6.0187,6.0224,5.982,5.9783,5.96,5.9208,5.9208,5.8988,5.8621,5.9013,5.8756,5.8033,5.8437,5.84,5.807,5.9269,6.004,6.0566,6.2622,6.4677,6.6586,6.7393,6.7931,6.8334,6.8752,6.7871,6.6256,6.4653,6.3796,6.3198,6.1828,6.2176,6.2917,6.1932,6.244,6.3198,6.282,6.2974,6.3314,6.332,6.3364,0.0,0.0,6.3051,6.348,6.3903,6.5019,6.6167,6.7013,6.8552,7.0112,7.149,7.0988,7.1407,7.4235,7.3483,7.252,7.2234,7.2047,7.1544,7.0647,7.1442,7.2187,7.2617,7.3047,7.3125,7.2656,7.2226,7.1992,7.1992,7.1562,7.0742,6.9453,7.0273,7.0273,6.9453,6.9883,7.0078,7.0039,6.9687,6.9492,6.9453,6.9453,6.9453,6.9492,6.9883,6.9805,6.9453,6.9453,6.9961,7.0703,7.0703,7.125,7.207,5.3434,5.3959,5.4509,5.4803,5.593,5.6847,5.6994,5.7031,5.7336,5.8143,5.8217,5.829,5.8437,5.9049,5.9636,6.0114,6.0297,6.0603,6.108,6.0823,6.0639,6.0639,6.0786,6.0786,6.0639,6.0493,6.0309,6.015,6.0015,5.96,5.8976,5.9123,5.8866,5.8253,5.84,5.8474,5.851,5.9306,6.0114,6.119,6.4971,6.6806,6.7444,6.9192,7.0257,7.0756,7.0293,6.9279,6.7811,6.5571,6.5281,6.5408,6.2519,6.3141,6.4679,6.33,6.3557,6.4237,6.4083,6.416,6.4352,6.4743,6.4095,6.3288,0.0,0.0,0.0,6.2249,6.2595,6.3249,6.4589,6.5254,6.658,6.9492,6.8389,6.8525,7.252,7.203,7.146,7.1969,7.0225,6.9258,6.9844,7.039,7.0937,7.1445,7.2461,7.2656,7.1797,7.1758,7.1758,7.1758,7.1758,7.125,7.0234,7.1406,7.1484,7.0469,7.0781,7.0937,7.0937,7.0273,6.9961,6.9883,6.9726,6.9765,7.0039,7.0508,7.0781,7.0898,7.0195,7.0312,7.0937,7.0937,7.1406,7.2109,5.4252,5.4326,5.484,5.6271,5.6664,5.7031,5.774,5.785,5.8143,5.8976,5.9049,5.9343,6.0052,6.0199,6.1153,6.3356,6.163,6.1337,6.3552,6.2304,6.1459,6.1459,6.2132,6.2169,6.1484,6.075,6.004,5.9343,5.8621,5.8217,5.8143,5.8866,5.9159,5.9086,5.982,6.0126,6.0199,6.097,6.1777,6.2756,6.5448,6.6145,6.5852,6.8151,6.9068,6.9252,6.9889,6.9963,6.9559,6.7847,6.7664,6.7903,6.6489,6.6597,6.7136,6.665,6.7146,6.766,6.6859,6.7244,6.7507,6.609,6.6744,6.6744,6.3057,0.0,6.4897,6.3468,0.0,6.5519,6.5705,0.0,0.0,6.5949,6.8549,7.0376,6.8858,6.9763,7.1237,7.2927,6.9609,6.8398,7.1406,7.1094,7.043,6.9765,7.1211,7.1758,7.0898,7.0859,7.0859,7.0859,7.0859,7.0078,6.8515,7.082,7.1172,6.957,7.1094,7.1836,7.1836,7.1758,7.1719,7.164,7.0898,7.1015,7.164,7.0976,7.1172,7.1836,7.1758,7.1758,7.1836,7.1836,7.1914,7.2109,5.5108,5.5464,5.6014,5.6664,5.7189,5.7593,5.796,5.84,5.8829,5.9159,5.96,6.0187,6.1006,6.1961,6.2952,6.4029,6.4016,6.398,6.4103,6.3442,6.3038,6.3038,6.2866,6.2866,6.3038,6.2218,6.1398,6.0603,6.0236,5.9612,5.8682,5.9049,5.9196,5.9196,5.9563,5.9967,6.0493,6.1777,6.2499,6.3013,6.5521,6.6586,6.6953,6.9362,7.0573,7.1027,7.1358,7.1211,7.068,6.9871,6.941,6.8989,6.7936,6.7918,6.8191,6.7569,6.7889,6.8314,6.7936,6.8122,6.8237,6.7545,6.7167,6.6474,6.4711,6.4359,6.432,6.4089,0.0,0.0,0.0,0.0,0.0,0.0,6.68,6.7637,6.9275,6.7566,6.7375,7.0664,6.9023,6.8008,6.8945,6.918,6.8906,6.8008,7.0,7.0664,6.9336,6.9687,7.0195,7.0664,7.0703,7.0625,7.039,7.1484,7.164,7.0937,7.164,7.1992,7.1992,7.1992,7.1992,7.1992,7.1601,7.164,7.1953,7.1601,7.168,7.2031,7.2578,7.2734,7.2734,7.2734,7.3086,7.3633,5.6209,5.6565,5.6847,5.7068,5.7593,5.7997,5.7997,5.8682,5.9269,5.949,6.0407,6.1447,6.2511,6.4506,6.6012,6.6673,6.7577,6.765,6.6476,6.5571,6.491,6.4457,6.382,6.3686,6.4103,6.3246,6.2279,6.1263,6.1263,6.0676,5.9526,5.9526,5.9747,6.0187,6.0187,6.0627,6.152,6.2903,6.3747,6.431,6.6329,6.7907,6.9155,7.072,7.1784,7.2496,7.2496,7.222,7.182,7.1454,7.1109,7.0636,6.9462,6.9377,6.955,6.8762,6.8767,6.9084,6.9084,6.9084,6.8968,6.8507,6.7468,6.6397,6.5705,6.4743,6.4199,6.482,6.4172,0.0,0.0,0.0,6.4477,6.6315,0.0,6.6299,6.9256,6.664,6.5742,6.9336,6.9258,6.8476,6.7344,6.8242,6.832,6.6992,6.9062,6.9648,6.793,6.8398,6.9336,7.0664,7.0469,7.0664,7.1328,7.1758,7.1758,7.1289,7.1758,7.1992,7.1992,7.1992,7.1992,7.1992,7.1992,7.1992,7.1992,7.1992,7.2148,7.2422,7.3047,7.3594,7.3984,7.375,7.4062,7.4726,5.7776,5.7336,5.7042,5.7813,5.796,5.7997,5.7997,5.8682,5.949,6.0272,6.1728,6.3343,6.4995,6.8017,7.0844,7.3208,7.2716,7.2275,7.2239,6.9302,6.688,6.5325,6.5215,6.4861,6.4139,6.3246,6.2022,6.0456,6.0456,6.0419,6.037,6.037,0.0,0.0,6.2683,6.3172,6.4029,6.4861,6.6109,6.7627,6.8495,7.0257,7.2275,7.1564,7.1784,7.2496,7.2496,7.2862,7.323,7.2435,7.2902,7.3482,7.1832,7.1642,7.1923,7.1038,7.0815,7.0821,7.0821,7.0821,7.0437,6.8814,6.8353,6.766,6.5205,6.5243,6.582,6.5865,6.6442,6.6942,6.7019,6.7762,0.0,0.0,0.0,0.0,0.0,6.7617,6.8672,7.0469,7.0625,6.9961,6.832,6.9648,6.9609,6.7109,6.8555,6.8789,6.7031,6.6953,6.8125,7.0625,6.9883,6.9492,6.957,7.1172,7.1133,6.9492,7.1172,7.1992,7.1992,7.1992,7.1992,7.1992,7.1992,7.1992,7.1992,7.1992,7.25,7.3242,7.3281,7.4336,7.5703,7.4883,7.457,7.4726,5.796,5.7776,5.7666,5.796,5.7997,5.818,5.8719,5.949,6.1435,6.5521,6.6953,6.9265,7.3634,7.5542,7.6842,7.7687,7.7503,7.6423,7.4221,7.2055,0.0,6.9325,6.7724,6.699,0.0,6.5398,6.3637,6.1985,6.1447,6.0933,6.0419,6.0933,0.0,0.0,6.3967,6.4628,6.5007,6.6866,6.7687,6.7847,6.9743,7.1615,7.3266,7.2973,7.2716,7.2627,7.3572,7.367,7.3467,7.3948,7.402,7.3847,7.3651,7.3329,7.2899,7.2014,7.2168,7.2476,7.1937,7.2168,7.2199,7.0475,6.9667,6.8744,6.6705,6.6481,6.6673,6.6673,6.7359,6.7975,6.7975,6.8359,0.0,0.0,0.0,0.0,0.0,6.6172,6.6055,6.7187,6.7305,6.7578,6.8125,6.8203,6.7344,6.5312,6.625,6.6172,6.4414,6.539,6.6719,6.8125,6.8984,6.9414,6.9492,7.1172,7.1406,7.0273,7.1445,7.1992,7.1992,7.1992,7.1992,7.2031,7.2617,7.2851,7.289,7.3476,7.3906,7.4219,7.4805,7.539,7.5859,7.5586,7.582,7.6367,5.7997,5.7997,5.7997,5.7997,5.8253,5.8609,5.9123,6.1618,6.4751,6.8421,7.1358,7.4625,7.8589,8.0498,8.1505,8.1505,8.2039,8.0608,7.6497,7.5799,0.0,7.1821,7.077,6.9963,0.0,0.0,0.0,0.0,6.3319,6.2915,6.2132,6.2658,0.0,0.0,6.5105,6.5582,6.5472,6.7857,6.8752,6.8779,7.1406,7.3216,7.4407,7.5014,7.4394,7.3393,7.4511,7.4528,7.4124,7.4848,7.4901,7.4667,7.4703,7.4353,7.3776,7.2899,7.3053,7.3392,7.2822,7.3091,7.3161,7.1706,7.0975,7.0206,6.8783,6.8674,6.886,6.8601,6.9512,7.0165,6.9612,6.9862,0.0,0.0,0.0,0.0,0.0,6.5273,6.5078,6.5976,6.6328,6.6953,6.8086,6.8242,6.7148,6.4492,6.5117,6.4844,6.3086,6.4375,6.5664,6.6875,6.8515,6.9297,6.9023,7.1015,7.1406,7.0273,7.1445,7.1992,7.1992,7.1992,7.2187,7.25,7.3047,7.3476,7.3828,7.4375,7.4765,7.5117,7.5664,7.6094,7.6367,7.6367,7.6719,7.7187,5.7997,5.8033,5.807,5.807,5.8682,5.9233,5.938,6.4811,6.9009,6.9325,7.4955,7.9323,8.0293,8.3141,8.5013,8.5013,8.6334,8.4903,7.9507,8.0461,0.0,0.0,7.4353,7.3634,7.0513,0.0,0.0,0.0,0.0,6.6219,6.5472,6.5435,0.0,0.0,6.6329,6.6256,6.5582,6.8041,6.955,7.0542,7.3423,7.5005,7.5798,7.7368,7.6672,7.4898,7.5479,7.5496,7.5223,7.5241,7.5619,7.5938,7.5091,7.4815,7.4661,7.3853,7.3661,7.3661,7.3623,7.3623,7.343,7.2591,7.2329,7.2059,7.1233,7.1663,7.2032,7.134,7.2602,7.3341,7.1838,7.2231,7.2331,0.0,0.0,0.0,6.4804,6.5,6.582,6.6719,6.7539,6.8086,6.8281,6.9609,6.875,6.4687,6.5039,6.4726,6.3047,6.3828,6.5117,6.6719,6.8437,6.8984,6.8203,7.0664,7.1133,6.957,7.1211,7.2031,7.207,7.207,7.2539,7.3359,7.3398,7.3906,7.4687,7.4726,7.5234,7.5976,7.5976,7.6484,7.7187,7.7187,7.7187,7.7187,5.7997,5.8474,5.8902,5.8902,5.9049,5.982,6.1618,6.5875,7.066,7.5469,8.0681,8.5159,8.8353,9.0041,9.0922,9.0922,9.0152,8.8812,8.6757,0.0,0.0,8.0702,7.8699,7.6974,7.5491,7.312,7.1101,6.9435,0.0,6.8201,6.7967,6.7357,6.7076,0.0,6.9192,6.8972,6.7283,7.0293,7.1963,7.2656,7.3879,7.5566,7.739,7.7665,7.7802,7.7831,7.7984,7.7589,7.7071,7.7495,7.7324,7.6945,7.6707,7.663,7.6476,7.563,7.5822,7.6169,7.5515,7.5361,7.5284,7.5091,7.4091,7.316,7.3079,7.2711,7.2218,7.1579,7.278,7.364,7.2595,7.2707,7.2628,7.156,0.0,0.0,6.5469,6.4336,6.4219,6.5742,6.5547,6.6562,6.9765,6.8164,6.6445,6.5351,6.4258,6.3203,6.2109,6.4101,6.5156,6.4961,6.7265,6.8398,6.8203,7.0078,7.082,7.039,7.1484,7.2344,7.2969,7.2969,7.3437,7.4297,7.4961,7.5351,7.5625,7.6289,7.664,7.6875,7.6875,7.6992,7.7187,7.7187,7.7187,7.7187,5.8499,5.9465,6.037,6.0701,6.2242,6.3894,6.5251,6.8004,7.2165,7.8332,8.3324,8.7178,8.9454,9.206,9.3492,9.3125,9.2244,9.0868,8.8996,8.828,0.0,8.3528,8.2003,8.0167,7.7913,7.5014,0.0,7.1821,0.0,6.9596,6.9912,6.8752,6.8031,6.7774,6.9853,6.9816,6.8412,7.1571,7.3826,7.5328,7.5666,7.6984,0.0,7.9059,7.9462,7.9875,7.9875,7.9079,7.8088,7.8408,7.8215,7.783,7.783,7.783,7.7715,7.7246,7.7445,7.7715,7.7246,7.7099,7.7099,7.7099,7.6451,7.5857,7.5957,7.5396,7.4653,7.3987,7.4324,7.4218,7.2671,7.2803,7.2593,7.0951,6.8862,6.6914,6.5273,6.418,6.4062,6.543,6.5859,6.6953,6.9375,6.7187,6.5273,6.4531,6.4258,6.3437,6.1797,6.4531,6.5586,6.4336,6.793,6.9336,6.8203,7.1015,7.1836,7.0703,7.1953,7.2812,7.332,7.3672,7.4336,7.5195,7.5703,7.6133,7.6523,7.6992,7.7187,7.7187,7.7101,7.7237,7.7442,7.7442,7.7363,7.7187,5.949,6.0823,6.2144,6.2829,6.6426,6.9449,7.0073,7.1711,7.4771,8.0073,8.4939,8.7986,8.7986,9.184,9.4116,9.3345,9.3161,9.1877,8.9014,9.0041,8.883,8.4519,8.4719,8.3141,7.9323,7.6717,7.4588,0.0,0.0,7.0917,7.1564,6.9839,6.8752,6.8251,6.9633,6.9908,6.9479,7.221,7.491,7.7378,7.7586,7.8578,8.0046,8.0669,8.1016,8.1093,8.1093,8.0131,7.883,7.883,7.8754,7.8677,7.8677,7.8677,7.8677,7.8677,7.8677,7.8677,7.8677,7.8599,7.8558,7.8681,7.876,7.8889,7.9003,7.8483,7.7764,7.7073,7.6232,7.4925,7.2616,7.25,7.2031,6.9765,6.8633,6.7187,6.4805,6.4453,6.4844,6.582,6.7187,0.0,6.8515,6.6953,6.5156,6.332,6.457,6.4336,6.1836,6.4883,6.5976,6.4336,6.8984,7.0586,6.8711,7.2265,7.3164,7.1406,7.2695,7.3437,7.3672,7.4414,7.5234,7.6055,7.6055,7.6484,7.7147,7.7147,7.7146,7.7101,7.6931,7.7253,7.7781,7.7664,7.7573,7.7416,6.1043,6.2511,6.3699,6.3833,6.776,7.2224,7.6276,7.9396,8.2353,8.5343,9.0005,9.3015,9.3015,9.4373,9.496,9.4153,9.3492,9.2868,9.2281,9.184,9.0922,8.94,8.7565,8.5343,8.261,7.9543,7.7157,0.0,0.0,7.312,7.323,7.0954,7.0183,7.0683,7.0977,7.1272,7.1627,7.2638,7.4076,7.5744,7.6897,7.8762,8.0823,8.0246,8.0477,8.1093,8.1093,8.09,8.0631,8.0631,8.0169,7.9592,7.9592,7.9592,7.9592,7.9592,7.9592,7.9592,7.9592,7.9176,7.893,7.9626,7.9471,7.9349,8.0185,7.9215,7.7976,7.7297,7.6443,7.5272,7.3437,7.1445,6.9961,6.9531,6.8164,6.6719,6.5547,6.5351,6.5976,6.7578,6.7383,6.7969,7.0078,6.875,6.6719,6.4258,6.4375,6.3711,6.1797,6.4336,6.5351,6.4336,6.7265,6.9648,7.1328,7.1367,7.2617,7.4961,7.3828,7.4062,7.5469,7.5586,7.6133,7.6953,7.6953,7.6946,7.6944,7.6942,7.6856,7.6712,7.6683,7.7113,7.7703,7.7046,7.763,7.865,6.3356,6.4494,6.6118,6.8593,7.2402,7.6684,8.1488,8.5018,8.7088,8.7014,8.905,9.0519,9.0519,9.3125,9.4556,9.3749,9.3308,9.3088,9.3088,9.2281,9.1436,9.0629,8.8683,8.6481,8.4078,8.0461,7.8185,7.7414,0.0,7.3303,7.3648,7.1211,7.0073,7.0073,7.0304,7.1491,7.3238,7.3378,7.476,7.6958,7.7639,7.9215,8.1054,8.0631,8.0746,8.1093,8.1093,8.1093,8.1093,8.1093,8.0823,8.0477,8.0477,8.0477,8.0477,8.0604,8.0627,8.0666,8.0764,8.0565,8.0393,8.082,8.08,8.0794,8.1278,8.0466,7.9442,7.8671,7.7461,7.5898,7.3711,7.1914,7.0469,6.9648,6.8789,6.7617,6.5859,6.5586,6.5898,6.6758,6.6875,6.7383,6.8594,6.8398,6.7305,6.5156,6.539,6.4492,6.1836,6.5039,6.6133,6.4375,6.8125,7.0547,7.1328,7.2695,7.4023,7.5234,7.4844,7.5078,7.5937,7.6367,7.6797,7.7187,7.71,7.6995,7.6876,7.6775,7.6646,7.6452,7.6452,7.7142,7.8053,7.724,7.8009,7.9249,6.676,6.772,6.9653,7.4062,7.7761,8.1383,8.5263,8.868,9.0262,8.8519,8.8299,8.8335,8.8519,9.1987,9.3969,9.3161,9.3088,9.3015,9.2831,9.217,9.151,9.0886,8.9307,8.7325,8.4903,8.1085,7.8772,0.0,0.0,7.3083,7.3156,7.1248,6.9899,6.9104,6.9632,7.1387,7.3928,7.3868,7.5544,7.8253,7.8446,7.9561,8.1093,8.1093,8.1093,8.1093,8.1093,8.1093,8.1093,8.1093,8.1093,8.1093,8.1093,8.1116,8.1203,8.1335,8.1414,8.1517,8.1675,8.1714,8.1746,8.1746,8.1904,8.2061,8.2061,8.1512,8.0742,7.9883,7.8203,7.6289,7.4219,7.3008,7.1836,7.0508,7.0,6.8984,6.6719,6.6562,6.6562,6.6172,6.7383,6.7969,6.7265,6.8281,6.8125,6.6015,6.6172,6.5156,6.2383,6.5859,6.6992,6.4922,6.9492,7.1953,7.1797,7.414,7.5469,7.5703,7.582,7.6094,7.6484,7.7148,7.7461,7.7461,7.7478,7.7435,7.7339,7.7097,7.6909,7.6784,7.6784,7.7582,7.8677,7.7869,7.8631,7.9791,7.2087,7.3479,7.5059,7.8278,8.2227,8.5329,8.6416,8.949,9.1877,9.2464,9.2537,9.2831,9.3529,9.4006,9.3969,9.3161,9.3088,9.2758,9.195,9.184,9.1767,9.1693,9.0134,8.8152,8.5764,8.248,7.9323,0.0,0.0,7.3582,7.1527,7.1307,7.0636,6.9644,7.0425,7.1523,7.279,7.3568,7.5247,7.7484,7.8215,7.9561,8.1093,8.1093,8.1093,8.1093,8.1093,8.1093,8.1093,8.1093,8.1093,8.1093,8.1093,8.1221,8.1371,8.1401,8.1519,8.1699,8.168,8.1844,8.1976,8.1976,8.2121,8.2265,8.2265,8.1601,8.0742,7.9883,7.7734,7.5937,7.5703,7.4297,7.3125,7.2969,7.1601,7.0234,6.918,6.9726,6.9648,6.8125,7.0742,7.1484,6.8398,7.0234,7.0273,6.7031,6.539,6.4414,6.4062,6.5937,6.6914,6.664,7.0117,7.3086,7.539,7.418,7.5469,7.9219,7.6953,7.6719,7.8242,7.8359,7.8398,7.8437,7.914,7.9212,7.8878,7.8482,7.8296,7.8305,7.8305,7.8861,7.9592,7.8715,7.9485,8.0716,7.6667,7.7339,7.9018,8.3639,8.5433,8.7321,9.0542,9.2236,9.3314,9.3635,9.3314,9.2996,9.2831,9.3243,9.32,9.2409,9.2317,9.217,9.1803,9.1803,9.1803,9.1803,9.0244,8.8702,8.7252,8.449,8.1735,0.0,0.0,0.0,7.2716,7.2082,7.0971,6.9504,7.0143,7.0972,7.1981,7.3664,7.5526,7.7407,7.8746,8.0015,8.1093,8.1093,8.1093,8.1093,8.1093,8.1093,8.1093,8.1093,8.1093,8.1139,8.1256,8.1343,8.1442,8.1707,8.1828,8.1897,8.2046,8.212,8.2175,8.2175,8.2223,8.2304,8.2304,8.2031,8.1523,8.0664,7.8867,7.7148,7.6094,7.5312,7.4336,7.2773,7.1914,7.082,6.8945,6.8984,6.875,6.7578,6.8164,6.8359,6.75,6.8359,6.9219,6.9922,6.789,6.6406,6.5898,6.6523,6.7383,6.8437,6.9765,7.1953,7.5078,7.4961,7.625,7.8984,7.8437,7.8555,7.9219,7.9219,7.9087,7.8871,7.9055,7.9001,7.8739,7.857,7.8484,7.8484,7.8484,7.9015,7.97,7.883,7.9285,8.0169,8.1496,8.1881,8.347,8.8659,8.9135,9.0046,9.3688,9.4149,9.4184,9.4398,9.3977,9.3371,9.2545,9.2966,9.3077,9.2532,9.2481,9.2481,9.2481,9.2481,9.2481,9.2481,9.1148,8.981,8.8562,8.6259,8.3719,8.0917,7.9599,0.0,7.3842,7.2597,7.1377,7.0289,7.0917,7.1791,7.2879,7.4712,7.6476,7.813,7.9323,8.0323,8.1093,8.1093,8.1093,8.1093,8.1093,8.1131,8.1196,8.1196,8.1228,8.1304,8.1365,8.1491,8.1645,8.1902,8.2051,8.212,8.2264,8.2304,8.2304,8.2304,8.2304,8.2304,8.2304,8.2304,8.2031,8.1172,7.9687,7.8125,7.6875,7.6445,7.5664,7.3828,7.3086,7.2031,7.0,6.9492,6.8984,6.8125,6.793,6.7695,6.7305,6.7969,6.8984,7.039,6.9062,6.8164,6.8008,6.7539,6.7969,6.9453,7.0195,7.1953,7.4961,7.5859,7.7148,7.8867,7.9414,7.9844,8.0078,8.0035,7.9989,7.9922,7.9665,7.9494,7.9345,7.9299,7.9254,7.9254,7.9254,7.9631,8.0131,7.9477,7.9631,8.0092,8.6771,8.7704,8.8937,9.2945,9.3726,9.407,9.4867,9.4489,9.4358,9.5096,9.5177,9.4891,9.4157,9.4088,9.4088,9.4075,9.4075,9.4075,9.4075,9.4075,9.4075,9.4075,9.3221,9.1659,8.9345,8.7585,8.4703,8.0712,0.0,7.8365,7.425,7.2562,7.2052,7.2582,7.3486,7.4651,7.6007,7.6899,7.8246,7.9777,7.9777,8.0323,8.1093,8.1093,8.1093,8.1093,8.1093,8.1228,8.1401,8.1401,8.1519,8.1679,8.1464,8.1652,8.1988,8.199,8.2126,8.2304,8.2304,8.2304,8.2304,8.2304,8.2304,8.2304,8.2304,8.2304,8.2031,8.1172,7.9687,7.8476,7.8476,7.7773,7.7187,7.7148,7.5703,7.4258,7.3359,7.25,7.164,7.0742,7.2148,7.1875,6.8515,7.0469,7.0547,6.7226,6.7734,6.8906,7.0586,6.9062,6.8594,6.9453,7.1953,7.4101,7.5859,7.6758,7.8047,7.9687,7.9687,8.0156,8.0976,8.0782,8.1171,8.1939,8.1533,8.1368,8.1338,8.1143,8.1054,8.1054,8.1054,8.1054,8.1093,8.1054,8.1093,8.1093,8.891,9.0204,9.1565,9.3385,9.4235,9.4916,9.576,9.57,9.5689,9.5902,9.5961,9.5862,9.5647,9.5154,9.4668,9.4143,9.4102,9.4102,9.4102,9.4102,9.4102,9.4102,9.3248,9.2196,9.0921,8.9665,8.7352,8.3901,8.3184,8.0666,7.653,7.5446,7.4916,7.495,7.5841,7.6486,7.6984,7.84,7.9323,7.9854,8.0439,8.0862,8.1093,8.1093,8.1093,8.1093,8.1093,8.1235,8.1407,8.1407,8.1636,8.1889,8.1837,8.1889,8.2044,8.2171,8.2263,8.2304,8.2304,8.2304,8.2304,8.2304,8.2304,8.2304,8.2304,8.2304,8.2031,8.1172,8.0586,8.0039,7.9414,7.8633,7.789,7.7305,7.5742,7.3867,7.1836,7.0781,6.9687,6.8281,6.9101,6.9414,6.832,6.9961,7.1172,7.125,7.0976,7.0508,6.9922,6.8828,6.9414,7.1992,7.2305,7.4101,7.7656,7.7969,7.8945,8.0586,8.1172,8.1558,8.1678,8.1332,8.1319,8.1577,8.1298,8.121,8.1196,8.1147,8.1093,8.1093,8.1093,8.1093,8.1093,8.1093,8.1093,8.1093,9.1748,9.2672,9.3595,9.4104,9.4643,9.5066,9.5288,9.5326,9.5441,9.5788,9.5518,9.5557,9.6249,9.5614,9.5075,9.4951,9.4915,9.4915,9.4915,9.4915,9.4915,9.4915,9.4394,9.3449,9.2026,9.137,8.9255,8.5749,8.3788,8.1485,7.8903,7.7734,7.7119,7.6976,7.7861,7.8246,7.8323,7.9708,8.0277,8.0323,8.09,8.1093,8.1093,8.1093,8.1285,8.1578,8.1658,8.1819,8.2013,8.2076,8.2122,8.2118,8.2118,8.2118,8.2125,8.2264,8.2304,8.2304,8.2304,8.2304,8.2304,8.2304,8.2304,8.2304,8.2304,8.2304,8.2148,8.1601,8.1211,8.082,8.0273,7.9258,7.832,7.7773,7.5937,7.3906,7.1953,7.0351,6.9258,6.8867,6.9023,6.9258,6.9609,7.0859,7.1719,7.1836,7.1953,7.125,6.9531,6.957,7.0625,7.2734,7.3242,7.4922,7.7969,7.8945,7.992,8.0887,8.1688,8.1998,8.1875,8.1543,8.1407,8.1389,8.1188,8.1093,8.1093,8.1093,8.1093,8.1093,8.1093,8.1093,8.1093,8.1093,8.1093,8.1093,9.4758,9.4951,9.4989,9.4912,9.5027,9.4797,9.3903,9.3796,9.4066,9.4874,9.4296,9.4364,9.5942,9.548,9.5412,9.6134,9.6288,9.6288,9.6288,9.6288,9.6288,9.6288,9.6249,9.5118,9.281,9.2594,9.0493,8.6362,8.3022,8.1285,8.1131,7.9485,7.8677,7.8715,7.9515,7.9892,7.9931,8.0746,8.1093,8.1093,8.1093,8.1093,8.1093,8.117,8.1655,8.2386,8.267,8.2931,8.3123,8.3321,8.2984,8.2461,8.2461,8.2461,8.2461,8.2422,8.2383,8.2383,8.2461,8.2461,8.2461,8.2461,8.2422,8.2383,8.2304,8.2304,8.2304,8.2304,8.164,8.1094,8.1094,7.9765,7.8633,7.8594,7.6406,7.4336,7.3359,7.1055,7.0039,7.1562,7.1172,7.1094,7.1914,7.2773,7.2305,6.9922,7.125,7.1484,6.9844,7.1484,7.2383,7.2187,7.4726,7.6523,7.7421,7.9804,8.0924,8.0766,8.1403,8.166,8.1656,8.1475,8.1377,8.1359,8.1181,8.1093,8.1093,8.1093,8.1093,8.1093,8.1093,8.1093,8.1093,8.1093,8.1093,8.1093,9.3989,9.4527,9.4797,9.4134,9.5095,9.5711,9.4835,9.4681,9.4758,9.4989,9.4835,9.4604,9.4326,9.5326,9.5826,9.5335,9.5903,9.6288,9.6288,9.6288,9.6288,9.6288,9.5672,9.4742,9.3467,9.2848,9.0734,8.716,8.5035,8.3324,8.1977,8.0977,8.0477,8.0477,8.0708,8.0785,8.0823,8.1016,8.1093,8.1093,8.1093,8.1093,8.117,8.1785,8.2258,8.2677,8.3376,8.3865,8.422,8.4288,8.4273,8.4297,8.4297,8.4297,8.414,8.3476,8.3281,8.3437,8.4101,8.4297,8.4297,8.4297,8.3789,8.3125,8.2461,8.2304,8.2304,8.2304,8.2148,8.1992,8.1992,8.1133,8.0195,7.9531,7.7265,7.4805,7.2617,7.1211,7.0078,6.9219,7.0625,7.1758,7.1992,7.2773,7.332,7.3359,7.375,7.3789,7.3398,7.5664,7.6055,7.4062,7.6523,7.851,7.9875,8.046,8.0998,8.1474,8.1451,8.1475,8.1469,8.1251,8.1159,8.1152,8.1139,8.1093,8.1093,8.1093,8.1093,8.1093,8.1093,8.1093,8.1093,8.1093,8.1093,8.1093,9.4903,9.5249,9.5326,9.445,9.4749,9.4826,9.3989,9.3518,9.3403,9.3796,9.3527,9.3364,9.3681,9.4557,9.4903,9.445,9.5557,9.6288,9.6288,9.5942,9.5865,9.6288,9.548,9.4604,9.371,9.3249,9.1402,8.7987,8.6286,8.4786,8.3478,8.2631,8.2247,8.2208,8.1823,8.1631,8.1631,8.1246,8.1323,8.1631,8.1631,8.1631,8.1732,8.2697,8.3122,8.3402,8.443,8.4952,8.5161,8.5281,8.5149,8.4883,8.4883,8.4883,8.4883,8.4804,8.4492,8.4297,8.4765,8.4883,8.4804,8.4414,8.3633,8.289,8.2422,8.2304,8.2304,8.2304,8.2304,8.2304,8.2304,8.1601,8.0586,7.9336,7.7305,7.5,7.2383,7.125,7.0664,7.0547,7.1758,7.3047,7.4258,7.5156,7.5547,7.5234,7.5937,7.6015,7.5234,7.7656,7.8006,7.5725,7.8146,7.9834,8.0575,8.0889,8.1216,8.1558,8.1341,8.1251,8.1251,8.1153,8.1093,8.1093,8.1093,8.1093,8.1093,8.1093,8.1093,8.1093,8.1093,8.1093,8.1093,8.1093,8.1093,8.1093,9.6288,9.6288,9.6019,9.5143,9.4489,9.3826,9.2979,9.2133,9.1825,9.2595,9.1941,9.1902,9.3172,9.3557,9.3633,9.3518,9.5095,9.6095,9.6095,9.5518,9.5518,9.6288,9.5326,9.445,9.371,9.3441,9.1796,8.8718,8.7094,8.5824,8.4893,8.4016,8.3601,8.3563,8.2832,8.2516,8.2439,8.1785,8.1862,8.2516,8.2516,8.2517,8.2655,8.3715,8.4155,8.4378,8.563,8.6062,8.6122,8.6442,8.6094,8.5508,8.5625,8.5664,8.582,8.6562,8.625,8.5625,8.5351,8.5273,8.5039,8.4062,8.3242,8.2617,8.2344,8.2304,8.2304,8.2304,8.2304,8.2304,8.2304,8.1719,8.0703,7.914,7.7305,7.5234,7.2734,7.164,7.164,7.3125,7.3633,7.4805,7.7187,7.8086,7.793,7.6562,7.7734,7.789,7.6562,7.8632,7.9123,7.7472,7.9676,8.0789,8.0538,8.1099,8.1335,8.1335,8.1181,8.1093,8.1093,8.1093,8.1093,8.1093,8.1093,8.1093,8.1093,8.1093,8.1093,8.1093,8.1093,8.1093,8.1093,8.1093,8.1093,8.1093,9.6288,9.6288,9.6019,9.5143,9.548,9.5595,9.4758,9.3873,9.3364,9.348,9.2787,9.2133,9.1633,9.2864,9.3441,9.2749,9.421,9.522,9.522,9.5749,9.6172,9.6288,9.4749,9.3835,9.371,9.2326,9.0633,8.8718,8.7671,8.6401,8.4893,8.4016,8.3601,8.3601,8.3447,8.3409,8.3409,8.3255,8.3293,8.3409,8.3409,8.3507,8.3753,8.4648,8.5242,8.5695,8.6586,8.7036,8.7342,8.8086,8.8203,8.8242,8.8984,8.9219,8.9258,8.9375,8.9297,8.8906,8.7461,8.7109,8.6719,8.5117,8.4609,8.4101,8.2656,8.2304,8.2304,8.2304,8.2304,8.2304,8.2304,8.2187,8.1758,8.0781,7.8594,7.6328,7.4453,7.3437,7.3008,7.3281,7.5234,7.7031,7.8203,7.8437,7.8672,7.9062,7.8711,7.8672,7.9101,8.0016,8.0324,7.9856,8.1117,8.1636,8.1248,8.1185,8.1146,8.1146,8.1124,8.1093,8.1093,8.1093,8.1093,8.1093,8.1093,8.1093,8.1093,8.1093,8.1093,8.1093,8.1093,8.1093,8.1093,8.1093,8.1093,8.1093,9.6288,9.6288,9.6019,9.5143,9.4941,9.4634,9.3787,9.2903,9.2364,9.2364,9.2441,9.2172,9.1287,9.271,9.3364,9.2556,9.4027,9.4797,9.4335,9.4672,9.5095,9.5595,9.4364,9.371,9.371,9.2518,9.1056,8.9363,8.8517,8.7709,8.6901,8.5555,8.5209,8.5602,8.4709,8.4286,8.4286,8.3793,8.414,8.4901,8.4478,8.4694,8.5426,8.6405,8.6677,8.6728,8.8136,8.8744,8.8906,8.9297,8.9414,8.9453,8.9883,9.0,9.0,9.0,9.0,8.9726,8.8476,8.7812,8.707,8.5351,8.4531,8.3867,8.2578,8.2656,8.2851,8.2383,8.2656,8.2851,8.2383,8.2304,8.1875,8.0508,7.8555,7.6758,7.5469,7.4531,7.4531,7.5937,7.7539,7.9062,8.0429,8.0547,8.0508,8.039,8.0078,8.0,8.039,8.0592,8.0802,8.1104,8.1387,8.1447,8.1249,8.1146,8.1093,8.1093,8.1093,8.1093,8.1093,8.1093,8.1093,8.1093,8.1093,8.1093,8.1093,8.1093,8.1093,8.1093,8.1093,8.1093,8.1093,8.1093,8.1152,8.1251,9.6288,9.6288,9.6095,9.5403,9.4758,9.4095,9.348,9.2633,9.2095,9.2095,9.2326,9.2249,9.1595,9.2633,9.3095,9.2287,9.3719,9.4258,9.3172,9.3326,9.3796,9.4643,9.3864,9.3403,9.3403,9.2633,9.1364,8.9624,8.8979,8.8487,8.8064,8.6748,8.6555,8.7325,8.6055,8.5593,8.5747,8.5063,8.5517,8.664,8.6091,8.6367,8.7248,8.814,8.8175,8.7971,8.945,9.0,9.0039,9.0234,9.0312,9.0351,9.0547,9.0586,9.0586,9.0586,9.0586,9.0273,8.8828,8.7969,8.7148,8.5586,8.4687,8.3906,8.2851,8.3125,8.3359,8.2461,8.2812,8.3086,8.2422,8.2304,8.1797,8.0234,7.875,7.7461,7.6601,7.5937,7.6328,7.8515,7.9492,8.0625,8.2148,8.2304,8.2031,8.1367,8.1289,8.1288,8.1246,8.1034,8.1124,8.1533,8.1251,8.1093,8.1093,8.1093,8.1093,8.1093,8.1093,8.1093,8.1093,8.1093,8.1093,8.1093,8.1093,8.1093,8.1093,8.1093,8.1108,8.1159,8.1159,8.121,8.1249,8.1249,8.1349,8.1475,9.6288,9.6288,9.6288,9.6211,9.6134,9.6095,9.6019,9.5288,9.472,9.472,9.3403,9.2479,9.2402,9.2518,9.2249,9.1364,9.2826,9.3095,9.1479,9.2133,9.2941,9.3749,9.3018,9.2595,9.2595,9.1748,9.0479,8.8795,8.8718,8.7863,8.6286,8.617,8.6555,8.7401,8.7286,8.7671,8.841,8.8333,8.841,8.8521,8.8643,8.8856,8.9113,8.9465,8.9653,8.9804,8.9961,9.0,9.0117,9.0937,9.1211,9.1367,9.2148,9.2422,9.2422,9.2422,9.2422,9.1719,8.8476,8.7539,8.7265,8.6328,8.6054,8.5586,8.3906,8.3554,8.3359,8.2461,8.2344,8.2383,8.2304,8.2304,8.1992,8.1054,8.0117,7.9219,7.8437,7.8242,7.8555,7.9492,8.039,8.1289,8.2226,8.2304,8.2265,8.2226,8.2187,8.2103,8.1929,8.1724,8.1461,8.113,8.1124,8.1093,8.1093,8.1093,8.1093,8.1093,8.1093,8.1093,8.1093,8.1093,8.1093,8.1093,8.1093,8.1093,8.1093,8.1093,8.1193,8.1371,8.1371,8.1506,8.1675,8.1675,8.1687,8.166,9.6288,9.6288,9.598,9.4864,9.4672,9.4326,9.3287,9.2864,9.2633,9.2633,9.2556,9.2479,9.2479,9.2479,9.2556,9.2749,9.2864,9.2672,9.2056,9.2787,9.3172,9.2941,9.3672,9.3566,9.2518,9.2172,9.1441,9.0248,8.9218,8.8902,8.9248,8.7632,8.7632,8.894,8.844,8.841,8.8718,8.8718,8.9067,8.9666,8.9191,8.9537,9.0351,9.0488,9.0637,9.0898,9.1406,9.1601,9.164,9.1992,9.2109,9.2265,9.3125,9.3047,9.25,9.1953,9.1797,9.1406,8.9531,8.9453,8.9414,8.7461,8.6992,8.6679,8.5508,8.5195,8.4961,8.4101,8.3906,8.375,8.3203,8.2656,8.2187,8.1875,8.0625,7.9765,8.0039,7.9609,7.957,8.039,8.1289,8.1953,8.2265,8.2304,8.2304,8.2304,8.2304,8.2219,8.1996,8.1672,8.1389,8.1108,8.1093,8.1093,8.1093,8.1093,8.1093,8.1093,8.1093,8.1093,8.1093,8.1093,8.1093,8.1108,8.1235,8.1298,8.1311,8.1403,8.1504,8.1591,8.1591,8.1649,8.1684,8.1684,8.1799,8.1883,9.6288,9.6288,9.5942,9.4711,9.4518,9.4134,9.2979,9.2787,9.2787,9.2787,9.3095,9.3287,9.3287,9.3018,9.2979,9.3287,9.2826,9.2364,9.2095,9.2864,9.3172,9.2903,9.348,9.3403,9.2518,9.221,9.1672,9.0778,8.9633,8.9556,9.0364,8.8632,8.8556,8.9893,8.9325,8.921,8.9496,8.956,9.0008,9.065,9.0197,9.054,9.1401,9.1476,9.1589,9.1836,9.2695,9.3008,9.3047,9.332,9.3437,9.3476,9.3789,9.3476,9.2929,9.2617,9.2539,9.2265,9.1133,9.1445,9.1484,8.8945,8.8086,8.7656,8.6797,8.6406,8.5937,8.5078,8.4883,8.4648,8.375,8.3125,8.2539,8.1992,8.1133,8.0625,8.0937,8.0703,8.0742,8.1328,8.1953,8.2304,8.2304,8.2304,8.2304,8.2304,8.2304,8.2176,8.1907,8.1509,8.1256,8.11,8.1093,8.1093,8.1093,8.1093,8.1093,8.1093,8.1093,8.1093,8.11,8.1183,8.1203,8.1224,8.1418,8.1473,8.1488,8.1623,8.1721,8.1773,8.1773,8.1844,8.1886,8.1886,8.198,8.2072,9.6288,9.6288,9.6288,9.6288,9.6288,9.6288,9.6288,9.6288,9.6288,9.6288,9.5518,9.4989,9.4989,9.422,9.3364,9.2595,9.2479,9.2133,9.1287,9.2018,9.2864,9.3672,9.2095,9.1595,9.2479,9.1633,9.0787,8.9893,8.9893,8.9517,8.8718,8.8718,8.9133,8.9893,8.9893,9.0402,9.1206,9.1434,9.1515,9.154,9.2019,9.2219,9.2231,9.2494,9.2617,9.2695,9.3594,9.3906,9.4023,9.4922,9.5195,9.5039,9.4179,9.3906,9.4101,9.4961,9.5195,9.4804,9.3086,9.3242,9.3281,9.0664,8.9336,8.8515,8.7695,8.6836,8.5976,8.5117,8.4922,8.4648,8.3789,8.3594,8.3047,8.1328,8.1758,8.1992,8.1133,8.1758,8.2304,8.2304,8.2304,8.2304,8.2304,8.2304,8.2304,8.2304,8.2304,8.2121,8.1707,8.1311,8.1093,8.1093,8.1093,8.1093,8.1093,8.1093,8.1093,8.1093,8.1093,8.11,8.1108,8.1298,8.1413,8.1391,8.1627,8.1688,8.1688,8.1688,8.1834,8.1992,8.1992,8.2121,8.2304,8.2304,8.2304,8.2304,9.6288,9.6288,9.6095,9.5489,9.5412,9.5172,9.4557,9.448,9.448,9.448,9.4249,9.4335,9.4912,9.371,9.2979,9.3326,9.2287,9.1748,9.2095,9.1787,9.1979,9.2826,9.2364,9.1941,9.1595,9.1325,9.1056,9.0816,9.0201,9.0086,9.0441,8.9825,9.0017,9.0834,9.0952,9.1187,9.1448,9.1678,9.1867,9.2012,9.2149,9.2299,9.2493,9.2577,9.2617,9.2695,9.3594,9.3906,9.4023,9.4922,9.5195,9.5156,9.4883,9.5234,9.5664,9.5312,9.5195,9.4961,9.3828,9.3711,9.3437,9.1406,9.0273,8.9531,8.9297,8.8125,8.7031,8.6797,8.625,8.5742,8.5469,8.4922,8.4336,8.3828,8.3437,8.3125,8.2851,8.2539,8.2304,8.2304,8.2304,8.2304,8.2304,8.2304,8.2304,8.2304,8.2051,8.184,8.1692,8.1311,8.1093,8.1093,8.1093,8.1093,8.1093,8.1093,8.1093,8.1093,8.1256,8.1298,8.1311,8.1504,8.1623,8.1636,8.1834,8.1899,8.1907,8.2061,8.217,8.2219,8.2219,8.2263,8.2304,8.2304,8.2304,8.2304,9.6288,9.6288,9.6134,9.5595,9.5518,9.5326,9.4826,9.4711,9.4711,9.4711,9.4711,9.4788,9.4989,9.4104,9.3403,9.3249,9.1979,9.1441,9.1941,9.1479,9.1441,9.1979,9.1979,9.1748,9.121,9.121,9.121,9.121,9.0663,9.0663,9.121,9.0663,9.0727,9.1322,9.1452,9.1547,9.1689,9.1914,9.2102,9.2221,9.234,9.2644,9.3125,9.3125,9.332,9.375,9.4609,9.4922,9.5078,9.5898,9.5976,9.5781,9.6094,9.6328,9.6406,9.5859,9.5937,9.5937,9.4726,9.4414,9.4062,9.2695,9.1406,9.0508,9.0508,8.9219,8.7969,8.7969,8.7304,8.6601,8.625,8.5781,8.5312,8.4961,8.4453,8.4101,8.4101,8.3359,8.2812,8.2812,8.25,8.2304,8.2304,8.2304,8.2264,8.2176,8.1881,8.1687,8.1591,8.1278,8.1093,8.1093,8.1093,8.1131,8.1207,8.1214,8.1214,8.1214,8.1403,8.1504,8.1514,8.1749,8.1831,8.184,8.2046,8.2119,8.2122,8.2263,8.2304,8.2304,8.2304,8.2304,8.2304,8.2304,8.2304,8.2304,9.6288,9.6288,9.6288,9.6288,9.6288,9.6288,9.6288,9.6288,9.6288,9.6288,9.6288,9.6019,9.522,9.5066,9.4373,9.2864,9.1941,9.1399,9.1369,9.1373,9.1326,9.1253,9.1253,9.1253,9.1253,9.1215,9.121,9.121,9.121,9.121,9.121,9.1215,9.1322,9.1508,9.1534,9.1684,9.1922,9.2142,9.2233,9.2241,9.2573,9.3203,9.3906,9.3984,9.4492,9.5312,9.6172,9.6484,9.6601,9.7422,9.7226,9.6758,9.7461,9.7187,9.6601,9.6601,9.7148,9.7344,9.5742,9.5312,9.5078,9.414,9.2695,9.1484,9.1328,9.0,8.8789,8.8711,8.8125,8.7344,8.6484,8.6328,8.6054,8.5273,8.5078,8.5,8.4922,8.414,8.3554,8.3476,8.2773,8.2304,8.2304,8.2304,8.2221,8.2049,8.1927,8.1744,8.1464,8.1301,8.1208,8.1161,8.1131,8.1221,8.1408,8.1436,8.1436,8.1414,8.1645,8.171,8.1718,8.1955,8.2044,8.2049,8.2221,8.2304,8.2304,8.2304,8.2304,8.2304,8.2304,8.2304,8.2304,8.2304,8.2304,8.2304,9.6288,9.6288,9.6288,9.6288,9.6288,9.6288,9.6288,9.6288,9.6288,9.6288,9.6288,9.6249,9.6057,9.5412,9.4835,9.4489,9.3672,9.3052,9.2776,9.2561,9.2251,9.1778,9.1749,9.1749,9.1749,9.1408,9.121,9.121,9.121,9.121,9.1219,9.1361,9.1473,9.1534,9.1871,9.2066,9.2147,9.24,9.2496,9.2574,9.332,9.3711,9.3984,9.4648,9.5039,9.5312,9.6172,9.6484,9.6601,9.7422,9.7578,9.7461,9.7656,9.7578,9.7422,9.7422,9.7578,9.7461,9.6484,9.6211,9.5859,9.4297,9.3633,9.2969,9.1601,9.0469,8.9531,8.8828,8.8554,8.8203,8.7383,8.7226,8.7148,8.6953,8.6367,8.5664,8.5,8.414,8.3359,8.2656,8.2422,8.2304,8.2304,8.2304,8.2265,8.2223,8.2679,8.2645,8.1912,8.2184,8.2088,8.1606,8.1436,8.142,8.1649,8.1805,8.1805,8.1653,8.1847,8.1916,8.1958,8.2127,8.2223,8.2223,8.2265,8.2304,8.2304,8.2304,8.2304,8.2304,8.2304,8.2304,8.2304,8.2304,8.2304,8.2304,9.6288,9.6288,9.6288,9.6288,9.6288,9.6288,9.6288,9.6288,9.6331,9.644,9.6426,9.6313,9.6036,9.5592,9.5005,9.4223,9.3734,9.3198,9.2606,9.2452,9.2237,9.1914,9.1919,9.1919,9.1919,9.1671,9.1527,9.1527,9.1527,9.1527,9.1534,9.1632,9.1742,9.1828,9.2075,9.2286,9.24,9.2537,9.2617,9.2695,9.3554,9.3906,9.4023,9.5312,9.582,9.5937,9.6758,9.707,9.7148,9.7578,9.7695,9.7695,9.7695,9.7695,9.7617,9.7226,9.7383,9.7539,9.6719,9.6484,9.6172,9.4844,9.4219,9.3554,9.2226,9.125,9.0351,8.9492,8.8984,8.8437,8.7656,8.75,8.75,8.75,8.7109,8.664,8.6211,8.539,8.4531,8.3633,8.3164,8.2773,8.2344,8.2304,8.2264,8.2171,8.2489,8.2437,8.1906,8.2107,8.2071,8.1719,8.1609,8.1653,8.185,8.1962,8.199,8.1986,8.2072,8.2127,8.2167,8.2263,8.2304,8.2304,8.2304,8.2304,8.2304,8.2304,8.2304,8.2304,8.2304,8.2304,8.2304,8.2304,8.2304,8.2304,9.6288,9.6288,9.6288,9.6288,9.6288,9.6288,9.6288,9.6313,9.639,9.6585,9.6643,9.6479,9.5982,9.5801,9.511,9.3592,9.3415,9.3082,9.2295,9.2187,9.2145,9.2026,9.2026,9.2026,9.2026,9.2026,9.1993,9.1919,9.1919,9.1919,9.1919,9.1957,9.2022,9.2219,9.2237,9.2399,9.2617,9.2617,9.2617,9.2695,9.3711,9.4101,9.4297,9.6054,9.6719,9.6797,9.7461,9.7695,9.7695,9.7695,9.7695,9.7695,9.7695,9.7695,9.7578,9.6914,9.7187,9.7539,9.6875,9.6601,9.6289,9.5429,9.4531,9.3672,9.2812,9.2031,9.1211,9.0195,8.9414,8.8633,8.7695,8.75,8.75,8.75,8.7383,8.7226,8.707,8.6328,8.5429,8.457,8.3828,8.3086,8.2383,8.2304,8.2222,8.2061,8.2171,8.2136,8.1828,8.1909,8.1905,8.1819,8.175,8.1855,8.2054,8.2054,8.2125,8.2304,8.2304,8.2304,8.2304,8.2304,8.2304,8.2304,8.2304,8.2304,8.2304,8.2304,8.2304,8.2304,8.2304,8.2304,8.2304,8.2304,8.2304,8.2304,9.6288,9.6288,9.6288,9.6288,9.6288,9.6288,9.6288,9.6434,9.657,9.6581,9.6804,9.6896,9.6813,9.6151,9.5408,9.4636,9.4388,9.4046,9.3661,9.3416,9.3055,9.2531,9.2494,9.2494,9.2494,9.2494,9.2321,9.1919,9.1919,9.1919,9.1884,9.2093,9.2164,9.2223,9.2448,9.2577,9.2617,9.2617,9.2617,9.2734,9.4375,9.5039,9.5195,9.6914,9.7539,9.7539,9.7656,9.7695,9.7695,9.7695,9.7695,9.7695,9.7695,9.7695,9.7695,9.7578,9.7617,9.7695,9.7578,9.7031,9.6289,9.5429,9.4531,9.3672,9.2812,9.25,9.1953,9.0351,8.9922,8.9336,8.7773,8.75,8.75,8.75,8.6875,8.6094,8.5351,8.4492,8.3633,8.2773,8.2539,8.2422,8.2304,8.2304,8.2304,8.2264,8.2967,8.3044,8.226,8.276,8.2832,8.2259,8.2054,8.2058,8.2264,8.2264,8.2265,8.2304,8.2304,8.2304,8.2304,8.2304,8.2304,8.2304,8.2304,8.2304,8.2304,8.2304,8.2304,8.2304,8.2304,8.2304,8.2304,8.2304,8.2304,8.2304,9.6288,9.6288,9.6288,9.6288,9.6288,9.634,9.6442,9.6558,9.6695,9.7021,9.7142,9.7265,9.7381,9.6646,9.5648,9.4394,9.4209,9.3868,9.3203,9.3078,9.2881,9.2617,9.2617,9.2617,9.2617,9.2617,9.2493,9.2276,9.2276,9.2276,9.2276,9.2393,9.2405,9.2445,9.2537,9.2617,9.2617,9.2617,9.2617,9.2734,9.4492,9.4922,9.4726,9.6875,9.7422,9.7109,9.7539,9.7695,9.7695,9.7695,9.7695,9.7695,9.7695,9.7695,9.7695,9.7695,9.7695,9.7695,9.7695,9.7422,9.6836,9.5547,9.4922,9.4258,9.289,9.2617,9.2226,9.0976,9.0742,9.0195,8.8476,8.8164,8.8008,8.7578,8.7187,8.6797,8.6406,8.5586,8.4531,8.3203,8.2617,8.2304,8.2304,8.2304,8.2304,8.2304,8.2656,8.2695,8.2304,8.2572,8.261,8.2304,8.222,8.2219,8.2304,8.2304,8.2304,8.2304,8.2304,8.2304,8.2304,8.2304,8.2304,8.2304,8.2304,8.2304,8.2304,8.2304,8.2304,8.2304,8.2304,8.2304,8.2304,8.2304,8.2304,8.2304]}]]